Time,TemperatureF,DewpointF,PressureIn,WindDirection,WindDirectionDegrees,WindSpeedMPH,WindSpeedGustMPH,Humidity,HourlyPrecipIn,Conditions,Clouds,dailyrainin,SoftwareType,DateUTC
2013-05-18 00:00:00,81.8,59.6,30.07,WNW,301,0.0,10.0,47,0.00,,---,0.00,VWS V14.01,2013-05-18 04:00:00,
2013-05-18 00:01:00,81.8,59.6,30.07,WNW,300,0.0,4.0,47,0.00,,---,0.00,VWS V14.01,2013-05-18 04:01:00,
2013-05-18 00:02:00,81.8,59.6,30.07,NW,317,0.0,4.0,47,0.00,,---,0.00,VWS V14.01,2013-05-18 04:02:00,
2013-05-18 00:03:00,81.8,59.6,30.07,West,263,5.0,9.0,47,0.00,,---,0.00,VWS V14.01,2013-05-18 04:03:00,
2013-05-18 00:04:00,81.8,60.2,30.07,NW,309,4.0,9.0,48,0.00,,---,0.00,VWS V14.01,2013-05-18 04:04:00,
2013-05-18 00:05:00,81.7,60.1,30.07,WNW,294,4.0,9.0,48,0.00,,---,0.00,VWS V14.01,2013-05-18 04:05:00,
2013-05-18 00:06:00,81.7,59.5,30.07,NW,313,5.0,9.0,47,0.00,,---,0.00,VWS V14.01,2013-05-18 04:06:00,
2013-05-18 00:07:00,81.6,59.4,30.07,NW,314,1.0,9.0,47,0.00,,---,0.00,VWS V14.01,2013-05-18 04:07:00,
2013-05-18 00:08:00,81.5,59.9,30.07,West,281,0.0,9.0,48,0.00,,---,0.00,VWS V14.01,2013-05-18 04:08:00,
2013-05-18 00:09:00,81.5,59.9,30.07,West,279,0.0,9.0,48,0.00,,---,0.00,VWS V14.01,2013-05-18 04:09:00,
2013-05-18 00:10:00,81.4,60.4,30.07,West,271,2.0,9.0,49,0.00,,---,0.00,VWS V14.01,2013-05-18 04:10:00,
2013-05-18 00:11:00,81.4,60.4,30.07,NW,324,0.0,9.0,49,0.00,,---,0.00,VWS V14.01,2013-05-18 04:11:00,
2013-05-18 00:12:00,81.3,60.3,30.07,West,269,7.0,9.0,49,0.00,,---,0.00,VWS V14.01,2013-05-18 04:12:00,
2013-05-18 00:13:00,81.2,60.2,30.07,West,276,7.0,9.0,49,0.00,,---,0.00,VWS V14.01,2013-05-18 04:13:00,
2013-05-18 00:14:00,81.2,60.2,30.07,NW,307,0.0,10.0,49,0.00,,---,0.00,VWS V14.01,2013-05-18 04:14:00,
2013-05-18 00:15:00,81.1,60.7,30.07,WNW,300,1.0,10.0,50,0.00,,---,0.00,VWS V14.01,2013-05-18 04:15:00,
2013-05-18 00:16:00,81.1,60.7,30.07,NW,315,0.0,10.0,50,0.00,,---,0.00,VWS V14.01,2013-05-18 04:16:00,
2013-05-18 00:17:00,81.0,61.2,30.07,West,279,0.0,10.0,51,0.00,,---,0.00,VWS V14.01,2013-05-18 04:17:00,
2013-05-18 00:18:00,81.0,61.2,30.07,NW,313,2.0,10.0,51,0.00,,---,0.00,VWS V14.01,2013-05-18 04:18:00,
2013-05-18 00:19:00,80.9,61.1,30.07,NW,320,0.0,10.0,51,0.00,,---,0.00,VWS V14.01,2013-05-18 04:19:00,
2013-05-18 00:20:00,80.9,61.6,30.07,WSW,240,0.0,10.0,52,0.00,,---,0.00,VWS V14.01,2013-05-18 04:20:00,
2013-05-18 00:21:00,80.8,61.5,30.08,WNW,290,0.0,10.0,52,0.00,,---,0.00,VWS V14.01,2013-05-18 04:21:00,
2013-05-18 00:22:00,80.8,61.5,30.08,NW,315,2.0,10.0,52,0.00,,---,0.00,VWS V14.01,2013-05-18 04:22:00,
2013-05-18 00:23:00,80.7,61.5,30.07,WNW,283,2.0,10.0,52,0.00,,---,0.00,VWS V14.01,2013-05-18 04:23:00,
2013-05-18 00:24:00,80.6,61.9,30.07,WNW,298,0.0,10.0,53,0.00,,---,0.00,VWS V14.01,2013-05-18 04:24:00,
2013-05-18 00:25:00,80.6,61.9,30.07,West,279,4.0,10.0,53,0.00,,---,0.00,VWS V14.01,2013-05-18 04:25:00,
2013-05-18 00:26:00,80.5,61.8,30.07,WNW,298,3.0,10.0,53,0.00,,---,0.00,VWS V14.01,2013-05-18 04:26:00,
2013-05-18 00:27:00,80.4,61.7,30.07,West,278,0.0,10.0,53,0.00,,---,0.00,VWS V14.01,2013-05-18 04:27:00,
2013-05-18 00:28:00,80.3,62.2,30.07,WNW,294,0.0,10.0,54,0.00,,---,0.00,VWS V14.01,2013-05-18 04:28:00,
2013-05-18 00:29:00,80.3,62.2,30.07,WNW,294,0.0,10.0,54,0.00,,---,0.00,VWS V14.01,2013-05-18 04:29:00,
2013-05-18 00:30:00,80.3,62.7,30.07,WSW,238,0.0,10.0,55,0.00,,---,0.00,VWS V14.01,2013-05-18 04:30:00,
2013-05-18 00:31:00,80.2,62.6,30.08,WNW,298,0.0,1.0,55,0.00,,---,0.00,VWS V14.01,2013-05-18 04:31:00,
2013-05-18 00:32:00,80.2,62.6,30.08,WNW,288,4.0,9.0,55,0.00,,---,0.00,VWS V14.01,2013-05-18 04:32:00,
2013-05-18 00:33:00,80.1,63.0,30.08,WNW,286,6.0,9.0,56,0.00,,---,0.00,VWS V14.01,2013-05-18 04:33:00,
2013-05-18 00:34:00,80.0,62.9,30.08,West,269,0.0,9.0,56,0.00,,---,0.00,VWS V14.01,2013-05-18 04:34:00,
2013-05-18 00:35:00,80.0,62.9,30.07,WNW,284,4.0,9.0,56,0.00,,---,0.00,VWS V14.01,2013-05-18 04:35:00,
2013-05-18 00:36:00,79.9,62.8,30.07,WNW,288,1.0,9.0,56,0.00,,---,0.00,VWS V14.01,2013-05-18 04:36:00,
2013-05-18 00:37:00,79.8,63.2,30.08,WSW,257,0.0,9.0,57,0.00,,---,0.00,VWS V14.01,2013-05-18 04:37:00,
2013-05-18 00:38:00,79.8,63.2,30.08,WSW,257,0.0,9.0,57,0.00,,---,0.00,VWS V14.01,2013-05-18 04:38:00,
2013-05-18 00:39:00,79.7,63.1,30.08,WNW,288,0.0,9.0,57,0.00,,---,0.00,VWS V14.01,2013-05-18 04:39:00,
2013-05-18 00:40:00,79.7,63.6,30.08,WNW,289,0.0,9.0,58,0.00,,---,0.00,VWS V14.01,2013-05-18 04:40:00,
2013-05-18 00:41:00,79.6,63.5,30.08,NW,309,2.0,9.0,58,0.00,,---,0.00,VWS V14.01,2013-05-18 04:41:00,
2013-05-18 00:42:00,79.6,63.5,30.08,WNW,300,1.0,9.0,58,0.00,,---,0.00,VWS V14.01,2013-05-18 04:42:00,
2013-05-18 00:43:00,79.5,63.4,30.08,NNW,327,0.0,9.0,58,0.00,,---,0.00,VWS V14.01,2013-05-18 04:43:00,
2013-05-18 00:44:00,79.4,63.8,30.08,NNW,327,0.0,9.0,59,0.00,,---,0.00,VWS V14.01,2013-05-18 04:44:00,
2013-05-18 00:45:00,79.4,63.8,30.08,WNW,289,1.0,9.0,59,0.00,,---,0.00,VWS V14.01,2013-05-18 04:45:00,
2013-05-18 00:46:00,79.4,63.8,30.08,SSW,206,7.0,9.0,59,0.00,,---,0.00,VWS V14.01,2013-05-18 04:46:00,
2013-05-18 00:47:00,79.3,63.7,30.08,WNW,302,4.0,9.0,59,0.00,,---,0.00,VWS V14.01,2013-05-18 04:47:00,
2013-05-18 00:48:00,79.3,64.2,30.08,West,272,5.0,9.0,60,0.00,,---,0.00,VWS V14.01,2013-05-18 04:48:00,
2013-05-18 00:49:00,79.2,64.1,30.08,West,278,3.0,9.0,60,0.00,,---,0.00,VWS V14.01,2013-05-18 04:49:00,
2013-05-18 00:50:00,79.1,64.0,30.08,WNW,292,5.0,9.0,60,0.00,,---,0.00,VWS V14.01,2013-05-18 04:50:00,
2013-05-18 00:51:00,79.0,63.9,30.08,WSW,257,0.0,9.0,60,0.00,,---,0.00,VWS V14.01,2013-05-18 04:51:00,
2013-05-18 00:52:00,79.0,63.9,30.08,WNW,285,7.0,9.0,60,0.00,,---,0.00,VWS V14.01,2013-05-18 04:52:00,
2013-05-18 00:53:00,78.9,64.3,30.08,WNW,302,0.0,9.0,61,0.00,,---,0.00,VWS V14.01,2013-05-18 04:53:00,
2013-05-18 00:54:00,78.9,64.3,30.08,WNW,302,0.0,9.0,61,0.00,,---,0.00,VWS V14.01,2013-05-18 04:54:00,
2013-05-18 00:55:00,78.9,64.3,30.08,WNW,294,2.0,9.0,61,0.00,,---,0.00,VWS V14.01,2013-05-18 04:55:00,
2013-05-18 00:56:00,78.9,64.3,30.08,NNW,339,2.0,9.0,61,0.00,,---,0.00,VWS V14.01,2013-05-18 04:56:00,
2013-05-18 00:57:00,78.8,64.2,30.08,West,269,0.0,9.0,61,0.00,,---,0.00,VWS V14.01,2013-05-18 04:57:00,
2013-05-18 00:58:00,78.8,64.2,30.08,WNW,284,1.0,9.0,61,0.00,,---,0.00,VWS V14.01,2013-05-18 04:58:00,
2013-05-18 00:59:00,78.8,64.2,30.08,NW,322,0.0,9.0,61,0.00,,---,0.00,VWS V14.01,2013-05-18 04:59:00,
2013-05-18 01:00:00,78.7,64.1,30.08,WNW,303,0.0,9.0,61,0.00,,---,0.00,VWS V14.01,2013-05-18 05:00:00,
2013-05-18 01:01:00,78.7,64.1,30.08,NW,325,0.0,5.0,61,0.00,,---,0.00,VWS V14.01,2013-05-18 05:01:00,
2013-05-18 01:02:00,78.7,64.1,30.08,WNW,285,1.0,6.0,61,0.00,,---,0.00,VWS V14.01,2013-05-18 05:02:00,
2013-05-18 01:03:00,78.7,64.1,30.08,North,351,0.0,10.0,61,0.00,,---,0.00,VWS V14.01,2013-05-18 05:03:00,
2013-05-18 01:04:00,78.7,64.1,30.08,WNW,293,5.0,10.0,61,0.00,,---,0.00,VWS V14.01,2013-05-18 05:04:00,
2013-05-18 01:05:00,78.6,64.0,30.08,West,281,0.0,10.0,61,0.00,,---,0.00,VWS V14.01,2013-05-18 05:05:00,
2013-05-18 01:06:00,78.6,64.0,30.08,NW,309,5.0,10.0,61,0.00,,---,0.00,VWS V14.01,2013-05-18 05:06:00,
2013-05-18 01:07:00,78.6,64.0,30.08,NNW,330,0.0,10.0,61,0.00,,---,0.00,VWS V14.01,2013-05-18 05:07:00,
2013-05-18 01:08:00,78.5,64.0,30.08,WNW,287,0.0,10.0,61,0.00,,---,0.00,VWS V14.01,2013-05-18 05:08:00,
2013-05-18 01:09:00,78.5,64.4,30.08,NW,313,1.0,10.0,62,0.00,,---,0.00,VWS V14.01,2013-05-18 05:09:00,
2013-05-18 01:10:00,78.5,64.4,30.08,NW,306,0.0,10.0,62,0.00,,---,0.00,VWS V14.01,2013-05-18 05:10:00,
2013-05-18 01:11:00,78.4,64.3,30.08,WNW,283,0.0,10.0,62,0.00,,---,0.00,VWS V14.01,2013-05-18 05:11:00,
2013-05-18 01:12:00,78.4,64.3,30.08,NNW,329,1.0,10.0,62,0.00,,---,0.00,VWS V14.01,2013-05-18 05:12:00,
2013-05-18 01:13:00,78.4,64.3,30.09,WNW,301,0.0,10.0,62,0.00,,---,0.00,VWS V14.01,2013-05-18 05:13:00,
2013-05-18 01:14:00,78.4,64.8,30.09,NNW,332,2.0,10.0,63,0.00,,---,0.00,VWS V14.01,2013-05-18 05:14:00,
2013-05-18 01:15:00,78.3,64.7,30.09,NNW,341,0.0,10.0,63,0.00,,---,0.00,VWS V14.01,2013-05-18 05:15:00,
2013-05-18 01:16:00,78.3,64.7,30.09,NNW,340,1.0,10.0,63,0.00,,---,0.00,VWS V14.01,2013-05-18 05:16:00,
2013-05-18 01:17:00,78.3,64.7,30.09,NNW,341,0.0,10.0,63,0.00,,---,0.00,VWS V14.01,2013-05-18 05:17:00,
2013-05-18 01:18:00,78.2,64.6,30.09,West,273,0.0,10.0,63,0.00,,---,0.00,VWS V14.01,2013-05-18 05:18:00,
2013-05-18 01:19:00,78.2,64.6,30.09,West,278,0.0,10.0,63,0.00,,---,0.00,VWS V14.01,2013-05-18 05:19:00,
2013-05-18 01:20:00,78.2,64.6,30.09,West,278,0.0,10.0,63,0.00,,---,0.00,VWS V14.01,2013-05-18 05:20:00,
2013-05-18 01:21:00,78.1,64.9,30.09,West,275,0.0,10.0,64,0.00,,---,0.00,VWS V14.01,2013-05-18 05:21:00,
2013-05-18 01:22:00,78.1,64.9,30.09,West,279,0.0,10.0,64,0.00,,---,0.00,VWS V14.01,2013-05-18 05:22:00,
2013-05-18 01:23:00,78.1,64.9,30.09,West,279,6.0,10.0,64,0.00,,---,0.00,VWS V14.01,2013-05-18 05:23:00,
2013-05-18 01:24:00,78.0,65.3,30.09,West,273,0.0,10.0,65,0.00,,---,0.00,VWS V14.01,2013-05-18 05:24:00,
2013-05-18 01:25:00,77.9,65.2,30.09,NW,323,1.0,10.0,65,0.00,,---,0.00,VWS V14.01,2013-05-18 05:25:00,
2013-05-18 01:26:00,77.9,65.2,30.09,NW,311,0.0,10.0,65,0.00,,---,0.00,VWS V14.01,2013-05-18 05:26:00,
2013-05-18 01:27:00,77.9,65.2,30.09,WNW,297,0.0,10.0,65,0.00,,---,0.00,VWS V14.01,2013-05-18 05:27:00,
2013-05-18 01:28:00,77.9,65.6,30.09,West,276,0.0,10.0,66,0.00,,---,0.00,VWS V14.01,2013-05-18 05:28:00,
2013-05-18 01:29:00,77.8,65.5,30.09,West,278,3.0,10.0,66,0.00,,---,0.00,VWS V14.01,2013-05-18 05:29:00,
2013-05-18 01:30:00,77.8,65.5,30.09,West,261,2.0,10.0,66,0.00,,---,0.00,VWS V14.01,2013-05-18 05:30:00,
2013-05-18 01:31:00,77.8,65.5,30.09,NW,318,0.0,4.0,66,0.00,,---,0.00,VWS V14.01,2013-05-18 05:31:00,
2013-05-18 01:32:00,77.7,65.4,30.09,NW,318,0.0,4.0,66,0.00,,---,0.00,VWS V14.01,2013-05-18 05:32:00,
2013-05-18 01:33:00,77.7,65.9,30.09,West,269,0.0,4.0,67,0.00,,---,0.00,VWS V14.01,2013-05-18 05:33:00,
2013-05-18 01:34:00,77.6,65.8,30.09,WNW,296,3.0,4.0,67,0.00,,---,0.00,VWS V14.01,2013-05-18 05:34:00,
2013-05-18 01:35:00,77.6,65.8,30.09,NW,317,0.0,4.0,67,0.00,,---,0.00,VWS V14.01,2013-05-18 05:35:00,
2013-05-18 01:36:00,77.5,65.7,30.09,NW,314,0.0,4.0,67,0.00,,---,0.00,VWS V14.01,2013-05-18 05:36:00,
2013-05-18 01:37:00,77.5,65.7,30.09,NW,314,0.0,4.0,67,0.00,,---,0.00,VWS V14.01,2013-05-18 05:37:00,
2013-05-18 01:38:00,77.4,65.6,30.09,NNW,332,0.0,4.0,67,0.00,,---,0.00,VWS V14.01,2013-05-18 05:38:00,
2013-05-18 01:39:00,77.4,65.6,30.09,West,271,0.0,4.0,67,0.00,,---,0.00,VWS V14.01,2013-05-18 05:39:00,
2013-05-18 01:40:00,77.3,65.9,30.09,NNW,328,0.0,4.0,68,0.00,,---,0.00,VWS V14.01,2013-05-18 05:40:00,
2013-05-18 01:41:00,77.3,65.9,30.09,West,278,2.0,4.0,68,0.00,,---,0.00,VWS V14.01,2013-05-18 05:41:00,
2013-05-18 01:42:00,77.3,65.9,30.09,NW,325,0.0,8.0,68,0.00,,---,0.00,VWS V14.01,2013-05-18 05:42:00,
2013-05-18 01:43:00,77.2,65.8,30.09,NW,325,0.0,8.0,68,0.00,,---,0.00,VWS V14.01,2013-05-18 05:43:00,
2013-05-18 01:44:00,77.1,65.7,30.09,West,279,0.0,8.0,68,0.00,,---,0.00,VWS V14.01,2013-05-18 05:44:00,
2013-05-18 01:45:00,77.2,65.8,30.09,West,281,0.0,8.0,68,0.00,,---,0.00,VWS V14.01,2013-05-18 05:45:00,
2013-05-18 01:46:00,77.1,65.7,30.09,West,277,1.0,8.0,68,0.00,,---,0.00,VWS V14.01,2013-05-18 05:46:00,
2013-05-18 01:47:00,77.0,65.6,30.09,WNW,298,0.0,8.0,68,0.00,,---,0.00,VWS V14.01,2013-05-18 05:47:00,
2013-05-18 01:48:00,77.0,66.1,30.09,West,271,0.0,8.0,69,0.00,,---,0.00,VWS V14.01,2013-05-18 05:48:00,
2013-05-18 01:49:00,76.9,66.0,30.09,WNW,285,0.0,8.0,69,0.00,,---,0.00,VWS V14.01,2013-05-18 05:49:00,
2013-05-18 01:50:00,76.9,66.0,30.09,WNW,285,0.0,8.0,69,0.00,,---,0.00,VWS V14.01,2013-05-18 05:50:00,
2013-05-18 01:51:00,76.9,66.0,30.09,NNW,346,0.0,8.0,69,0.00,,---,0.00,VWS V14.01,2013-05-18 05:51:00,
2013-05-18 01:52:00,76.8,65.9,30.09,NW,317,4.0,8.0,69,0.00,,---,0.00,VWS V14.01,2013-05-18 05:52:00,
2013-05-18 01:53:00,76.8,65.9,30.09,WNW,288,2.0,8.0,69,0.00,,---,0.00,VWS V14.01,2013-05-18 05:53:00,
2013-05-18 01:54:00,76.7,66.2,30.09,WNW,298,0.0,8.0,70,0.00,,---,0.00,VWS V14.01,2013-05-18 05:54:00,
2013-05-18 01:55:00,76.7,66.2,30.09,NNW,327,0.0,8.0,70,0.00,,---,0.00,VWS V14.01,2013-05-18 05:55:00,
2013-05-18 01:56:00,76.6,66.1,30.10,NW,323,0.0,8.0,70,0.00,,---,0.00,VWS V14.01,2013-05-18 05:56:00,
2013-05-18 01:57:00,76.6,66.1,30.10,SW,220,2.0,8.0,70,0.00,,---,0.00,VWS V14.01,2013-05-18 05:57:00,
2013-05-18 01:58:00,76.6,66.1,30.10,WNW,284,0.0,8.0,70,0.00,,---,0.00,VWS V14.01,2013-05-18 05:58:00,
2013-05-18 01:59:00,76.5,66.4,30.09,West,266,4.0,8.0,71,0.00,,---,0.00,VWS V14.01,2013-05-18 05:59:00,
2013-05-18 02:00:00,76.5,66.4,30.09,West,273,0.0,8.0,71,0.00,,---,0.00,VWS V14.01,2013-05-18 06:00:00,
2013-05-18 02:01:00,76.4,66.3,30.10,West,281,2.0,6.0,71,0.00,,---,0.00,VWS V14.01,2013-05-18 06:01:00,
2013-05-18 02:02:00,76.4,66.3,30.10,NW,304,0.0,6.0,71,0.00,,---,0.00,VWS V14.01,2013-05-18 06:02:00,
2013-05-18 02:03:00,76.3,66.2,30.10,NW,304,0.0,6.0,71,0.00,,---,0.00,VWS V14.01,2013-05-18 06:03:00,
2013-05-18 02:04:00,76.3,66.6,30.10,WNW,302,0.0,6.0,72,0.00,,---,0.00,VWS V14.01,2013-05-18 06:04:00,
2013-05-18 02:05:00,76.2,66.5,30.10,WSW,255,0.0,7.0,72,0.00,,---,0.00,VWS V14.01,2013-05-18 06:05:00,
2013-05-18 02:06:00,76.2,66.5,30.10,WNW,287,1.0,7.0,72,0.00,,---,0.00,VWS V14.01,2013-05-18 06:06:00,
2013-05-18 02:07:00,76.2,66.5,30.10,WNW,299,0.0,7.0,72,0.00,,---,0.00,VWS V14.01,2013-05-18 06:07:00,
2013-05-18 02:08:00,76.1,66.4,30.10,West,262,0.0,7.0,72,0.00,,---,0.00,VWS V14.01,2013-05-18 06:08:00,
2013-05-18 02:09:00,76.1,66.4,30.10,WNW,286,0.0,7.0,72,0.00,,---,0.00,VWS V14.01,2013-05-18 06:09:00,
2013-05-18 02:10:00,76.1,66.4,30.10,WNW,286,0.0,7.0,72,0.00,,---,0.00,VWS V14.01,2013-05-18 06:10:00,
2013-05-18 02:11:00,76.0,66.3,30.10,West,267,0.0,7.0,72,0.00,,---,0.00,VWS V14.01,2013-05-18 06:11:00,
2013-05-18 02:12:00,76.0,66.3,30.10,NW,308,1.0,7.0,72,0.00,,---,0.00,VWS V14.01,2013-05-18 06:12:00,
2013-05-18 02:13:00,76.0,66.3,30.10,WNW,282,0.0,7.0,72,0.00,,---,0.00,VWS V14.01,2013-05-18 06:13:00,
2013-05-18 02:14:00,75.9,66.6,30.10,NW,312,3.0,7.0,73,0.00,,---,0.00,VWS V14.01,2013-05-18 06:14:00,
2013-05-18 02:15:00,75.9,66.6,30.10,NW,309,0.0,7.0,73,0.00,,---,0.00,VWS V14.01,2013-05-18 06:15:00,
2013-05-18 02:16:00,75.9,66.6,30.10,NW,309,0.0,7.0,73,0.00,,---,0.00,VWS V14.01,2013-05-18 06:16:00,
2013-05-18 02:17:00,75.8,66.5,30.10,West,272,0.0,7.0,73,0.00,,---,0.00,VWS V14.01,2013-05-18 06:17:00,
2013-05-18 02:18:00,75.8,66.5,30.10,West,272,0.0,7.0,73,0.00,,---,0.00,VWS V14.01,2013-05-18 06:18:00,
2013-05-18 02:19:00,75.8,66.5,30.10,WSW,252,6.0,7.0,73,0.00,,---,0.00,VWS V14.01,2013-05-18 06:19:00,
2013-05-18 02:20:00,75.8,66.5,30.10,NW,305,0.0,7.0,73,0.00,,---,0.00,VWS V14.01,2013-05-18 06:20:00,
2013-05-18 02:21:00,75.7,66.4,30.10,WSW,253,1.0,7.0,73,0.00,,---,0.00,VWS V14.01,2013-05-18 06:21:00,
2013-05-18 02:22:00,75.7,66.4,30.11,West,277,0.0,7.0,73,0.00,,---,0.00,VWS V14.01,2013-05-18 06:22:00,
2013-05-18 02:23:00,75.7,66.4,30.11,NNW,330,0.0,7.0,73,0.00,,---,0.00,VWS V14.01,2013-05-18 06:23:00,
2013-05-18 02:24:00,75.7,66.4,30.11,WNW,290,0.0,7.0,73,0.00,,---,0.00,VWS V14.01,2013-05-18 06:24:00,
2013-05-18 02:25:00,75.7,66.4,30.11,WNW,290,0.0,7.0,73,0.00,,---,0.00,VWS V14.01,2013-05-18 06:25:00,
2013-05-18 02:26:00,75.7,66.4,30.11,WNW,290,0.0,7.0,73,0.00,,---,0.00,VWS V14.01,2013-05-18 06:26:00,
2013-05-18 02:27:00,75.6,66.3,30.11,WNW,290,0.0,7.0,73,0.00,,---,0.00,VWS V14.01,2013-05-18 06:27:00,
2013-05-18 02:28:00,75.6,66.3,30.11,WNW,290,0.0,7.0,73,0.00,,---,0.00,VWS V14.01,2013-05-18 06:28:00,
2013-05-18 02:29:00,75.6,66.3,30.11,WNW,290,0.0,7.0,73,0.00,,---,0.00,VWS V14.01,2013-05-18 06:29:00,
2013-05-18 02:30:00,75.6,66.7,30.11,WNW,290,0.0,7.0,74,0.00,,---,0.00,VWS V14.01,2013-05-18 06:30:00,
2013-05-18 02:31:00,75.6,66.7,30.11,WNW,297,0.0,4.0,74,0.00,,---,0.00,VWS V14.01,2013-05-18 06:31:00,
2013-05-18 02:32:00,75.6,66.7,30.11,WNW,297,0.0,4.0,74,0.00,,---,0.00,VWS V14.01,2013-05-18 06:32:00,
2013-05-18 02:33:00,75.5,66.6,30.11,WNW,284,4.0,4.0,74,0.00,,---,0.00,VWS V14.01,2013-05-18 06:33:00,
2013-05-18 02:34:00,75.5,66.6,30.11,WNW,300,0.0,5.0,74,0.00,,---,0.00,VWS V14.01,2013-05-18 06:34:00,
2013-05-18 02:35:00,75.5,66.6,30.11,North,5,0.0,5.0,74,0.00,,---,0.00,VWS V14.01,2013-05-18 06:35:00,
2013-05-18 02:36:00,75.5,66.2,30.11,WNW,289,0.0,5.0,73,0.00,,---,0.00,VWS V14.01,2013-05-18 06:36:00,
2013-05-18 02:37:00,75.5,66.6,30.11,WNW,293,2.0,5.0,74,0.00,,---,0.00,VWS V14.01,2013-05-18 06:37:00,
2013-05-18 02:38:00,75.4,66.5,30.11,North,360,0.0,5.0,74,0.00,,---,0.00,VWS V14.01,2013-05-18 06:38:00,
2013-05-18 02:39:00,75.4,66.5,30.11,NNW,343,0.0,5.0,74,0.00,,---,0.00,VWS V14.01,2013-05-18 06:39:00,
2013-05-18 02:40:00,75.4,66.5,30.11,NNW,343,0.0,5.0,74,0.00,,---,0.00,VWS V14.01,2013-05-18 06:40:00,
2013-05-18 02:41:00,75.4,66.5,30.11,NW,325,0.0,5.0,74,0.00,,---,0.00,VWS V14.01,2013-05-18 06:41:00,
2013-05-18 02:42:00,75.4,66.5,30.11,NW,325,0.0,5.0,74,0.00,,---,0.00,VWS V14.01,2013-05-18 06:42:00,
2013-05-18 02:43:00,75.4,66.5,30.11,NNW,340,0.0,5.0,74,0.00,,---,0.00,VWS V14.01,2013-05-18 06:43:00,
2013-05-18 02:44:00,75.3,66.4,30.11,NW,314,0.0,5.0,74,0.00,,---,0.00,VWS V14.01,2013-05-18 06:44:00,
2013-05-18 02:45:00,75.3,66.4,30.11,WNW,292,0.0,5.0,74,0.00,,---,0.00,VWS V14.01,2013-05-18 06:45:00,
2013-05-18 02:46:00,75.3,66.4,30.11,WNW,292,0.0,5.0,74,0.00,,---,0.00,VWS V14.01,2013-05-18 06:46:00,
2013-05-18 02:47:00,75.3,66.4,30.11,WNW,292,0.0,5.0,74,0.00,,---,0.00,VWS V14.01,2013-05-18 06:47:00,
2013-05-18 02:48:00,75.2,66.3,30.11,WNW,292,0.0,5.0,74,0.00,,---,0.00,VWS V14.01,2013-05-18 06:48:00,
2013-05-18 02:49:00,75.2,66.3,30.11,WNW,292,0.0,5.0,74,0.00,,---,0.00,VWS V14.01,2013-05-18 06:49:00,
2013-05-18 02:50:00,75.2,66.3,30.11,WNW,292,0.0,5.0,74,0.00,,---,0.00,VWS V14.01,2013-05-18 06:50:00,
2013-05-18 02:51:00,75.2,66.3,30.11,WNW,292,0.0,5.0,74,0.00,,---,0.00,VWS V14.01,2013-05-18 06:51:00,
2013-05-18 02:52:00,75.2,66.3,30.11,WNW,292,0.0,5.0,74,0.00,,---,0.00,VWS V14.01,2013-05-18 06:52:00,
2013-05-18 02:53:00,75.1,66.2,30.11,WNW,292,0.0,5.0,74,0.00,,---,0.00,VWS V14.01,2013-05-18 06:53:00,
2013-05-18 02:54:00,75.1,66.2,30.11,WNW,292,0.0,5.0,74,0.00,,---,0.00,VWS V14.01,2013-05-18 06:54:00,
2013-05-18 02:55:00,75.1,66.2,30.11,WNW,292,0.0,5.0,74,0.00,,---,0.00,VWS V14.01,2013-05-18 06:55:00,
2013-05-18 02:56:00,75.1,66.6,30.11,WNW,292,0.0,5.0,75,0.00,,---,0.00,VWS V14.01,2013-05-18 06:56:00,
2013-05-18 02:57:00,75.0,66.6,30.11,WNW,292,0.0,5.0,75,0.00,,---,0.00,VWS V14.01,2013-05-18 06:57:00,
2013-05-18 02:58:00,75.0,66.6,30.11,WNW,292,0.0,5.0,75,0.00,,---,0.00,VWS V14.01,2013-05-18 06:58:00,
2013-05-18 02:59:00,75.0,66.6,30.11,WNW,292,0.0,5.0,75,0.00,,---,0.00,VWS V14.01,2013-05-18 06:59:00,
2013-05-18 03:00:00,75.0,66.6,30.11,WNW,292,0.0,5.0,75,0.00,,---,0.00,VWS V14.01,2013-05-18 07:00:00,
2013-05-18 03:01:00,74.9,66.4,30.11,WNW,293,0.0,1.0,75,0.00,,---,0.00,VWS V14.01,2013-05-18 07:01:00,
2013-05-18 03:02:00,74.9,66.4,30.11,WNW,293,0.0,1.0,75,0.00,,---,0.00,VWS V14.01,2013-05-18 07:02:00,
2013-05-18 03:03:00,74.9,66.4,30.11,WNW,293,0.0,1.0,75,0.00,,---,0.00,VWS V14.01,2013-05-18 07:03:00,
2013-05-18 03:04:00,74.9,66.4,30.11,WNW,293,0.0,1.0,75,0.00,,---,0.00,VWS V14.01,2013-05-18 07:04:00,
2013-05-18 03:05:00,74.9,66.4,30.11,WNW,293,0.0,1.0,75,0.00,,---,0.00,VWS V14.01,2013-05-18 07:05:00,
2013-05-18 03:06:00,74.8,66.3,30.11,WNW,293,0.0,1.0,75,0.00,,---,0.00,VWS V14.01,2013-05-18 07:06:00,
2013-05-18 03:07:00,74.8,66.3,30.11,WNW,293,0.0,1.0,75,0.00,,---,0.00,VWS V14.01,2013-05-18 07:07:00,
2013-05-18 03:08:00,74.8,66.3,30.11,WNW,293,0.0,1.0,75,0.00,,---,0.00,VWS V14.01,2013-05-18 07:08:00,
2013-05-18 03:09:00,74.7,66.6,30.11,WNW,293,0.0,1.0,76,0.00,,---,0.00,VWS V14.01,2013-05-18 07:09:00,
2013-05-18 03:10:00,74.7,66.6,30.11,WNW,293,0.0,1.0,76,0.00,,---,0.00,VWS V14.01,2013-05-18 07:10:00,
2013-05-18 03:11:00,74.7,66.6,30.11,WNW,293,0.0,1.0,76,0.00,,---,0.00,VWS V14.01,2013-05-18 07:11:00,
2013-05-18 03:12:00,74.7,66.6,30.11,WNW,293,0.0,1.0,76,0.00,,---,0.00,VWS V14.01,2013-05-18 07:12:00,
2013-05-18 03:13:00,74.6,66.5,30.11,WNW,293,0.0,1.0,76,0.00,,---,0.00,VWS V14.01,2013-05-18 07:13:00,
2013-05-18 03:14:00,74.6,66.5,30.11,WNW,293,0.0,1.0,76,0.00,,---,0.00,VWS V14.01,2013-05-18 07:14:00,
2013-05-18 03:15:00,74.6,66.5,30.11,WNW,293,0.0,1.0,76,0.00,,---,0.00,VWS V14.01,2013-05-18 07:15:00,
2013-05-18 03:16:00,74.5,66.8,30.11,WNW,293,0.0,1.0,77,0.00,,---,0.00,VWS V14.01,2013-05-18 07:16:00,
2013-05-18 03:17:00,74.5,66.8,30.11,WNW,293,0.0,1.0,77,0.00,,---,0.00,VWS V14.01,2013-05-18 07:17:00,
2013-05-18 03:18:00,74.5,66.8,30.11,WNW,293,0.0,1.0,77,0.00,,---,0.00,VWS V14.01,2013-05-18 07:18:00,
2013-05-18 03:19:00,74.4,66.7,30.11,WNW,293,0.0,1.0,77,0.00,,---,0.00,VWS V14.01,2013-05-18 07:19:00,
2013-05-18 03:20:00,74.4,66.7,30.11,WNW,293,0.0,1.0,77,0.00,,---,0.00,VWS V14.01,2013-05-18 07:20:00,
2013-05-18 03:21:00,74.4,66.7,30.11,WNW,293,0.0,1.0,77,0.00,,---,0.00,VWS V14.01,2013-05-18 07:21:00,
2013-05-18 03:22:00,74.4,66.7,30.11,WNW,293,0.0,1.0,77,0.00,,---,0.00,VWS V14.01,2013-05-18 07:22:00,
2013-05-18 03:23:00,74.3,66.6,30.11,WNW,293,0.0,1.0,77,0.00,,---,0.00,VWS V14.01,2013-05-18 07:23:00,
2013-05-18 03:24:00,74.3,66.6,30.11,WNW,293,0.0,1.0,77,0.00,,---,0.00,VWS V14.01,2013-05-18 07:24:00,
2013-05-18 03:25:00,74.3,67.0,30.11,WNW,293,0.0,1.0,78,0.00,,---,0.00,VWS V14.01,2013-05-18 07:25:00,
2013-05-18 03:26:00,74.2,66.9,30.11,WNW,293,0.0,1.0,78,0.00,,---,0.00,VWS V14.01,2013-05-18 07:26:00,
2013-05-18 03:27:00,74.2,66.9,30.11,WNW,293,0.0,1.0,78,0.00,,---,0.00,VWS V14.01,2013-05-18 07:27:00,
2013-05-18 03:28:00,74.2,66.9,30.11,WNW,293,0.0,1.0,78,0.00,,---,0.00,VWS V14.01,2013-05-18 07:28:00,
2013-05-18 03:29:00,74.2,66.9,30.11,WNW,293,0.0,1.0,78,0.00,,---,0.00,VWS V14.01,2013-05-18 07:29:00,
2013-05-18 03:30:00,74.2,66.9,30.11,WNW,293,0.0,1.0,78,0.00,,---,0.00,VWS V14.01,2013-05-18 07:30:00,
2013-05-18 03:31:00,74.1,66.8,30.11,WNW,293,0.0,0.0,78,0.00,,---,0.00,VWS V14.01,2013-05-18 07:31:00,
2013-05-18 03:32:00,74.1,66.8,30.11,WNW,293,0.0,0.0,78,0.00,,---,0.00,VWS V14.01,2013-05-18 07:32:00,
2013-05-18 03:33:00,74.1,66.8,30.11,WNW,293,2.0,4.0,78,0.00,,---,0.00,VWS V14.01,2013-05-18 07:33:00,
2013-05-18 03:34:00,74.0,66.7,30.11,WNW,293,0.0,4.0,78,0.00,,---,0.00,VWS V14.01,2013-05-18 07:34:00,
2013-05-18 03:35:00,74.0,66.7,30.11,WNW,293,0.0,4.0,78,0.00,,---,0.00,VWS V14.01,2013-05-18 07:35:00,
2013-05-18 03:36:00,73.9,67.0,30.11,WNW,293,0.0,4.0,79,0.00,,---,0.00,VWS V14.01,2013-05-18 07:36:00,
2013-05-18 03:37:00,73.9,67.0,30.11,WNW,293,0.0,4.0,79,0.00,,---,0.00,VWS V14.01,2013-05-18 07:37:00,
2013-05-18 03:38:00,73.9,67.0,30.11,WNW,293,0.0,4.0,79,0.00,,---,0.00,VWS V14.01,2013-05-18 07:38:00,
2013-05-18 03:39:00,73.8,66.9,30.11,WNW,293,0.0,4.0,79,0.00,,---,0.00,VWS V14.01,2013-05-18 07:39:00,
2013-05-18 03:40:00,73.8,66.9,30.11,WNW,293,0.0,4.0,79,0.00,,---,0.00,VWS V14.01,2013-05-18 07:40:00,
2013-05-18 03:41:00,73.7,66.8,30.11,WNW,293,0.0,4.0,79,0.00,,---,0.00,VWS V14.01,2013-05-18 07:41:00,
2013-05-18 03:42:00,73.7,66.8,30.11,WNW,293,0.0,4.0,79,0.00,,---,0.00,VWS V14.01,2013-05-18 07:42:00,
2013-05-18 03:43:00,73.7,66.8,30.11,WNW,293,0.0,4.0,79,0.00,,---,0.00,VWS V14.01,2013-05-18 07:43:00,
2013-05-18 03:44:00,73.7,66.8,30.11,WNW,293,0.0,4.0,79,0.00,,---,0.00,VWS V14.01,2013-05-18 07:44:00,
2013-05-18 03:45:00,73.6,66.7,30.11,WNW,293,0.0,4.0,79,0.00,,---,0.00,VWS V14.01,2013-05-18 07:45:00,
2013-05-18 03:46:00,73.6,66.7,30.11,WNW,293,0.0,4.0,79,0.00,,---,0.00,VWS V14.01,2013-05-18 07:46:00,
2013-05-18 03:47:00,73.6,66.7,30.11,WNW,293,0.0,4.0,79,0.00,,---,0.00,VWS V14.01,2013-05-18 07:47:00,
2013-05-18 03:48:00,73.6,66.7,30.11,WNW,293,0.0,4.0,79,0.00,,---,0.00,VWS V14.01,2013-05-18 07:48:00,
2013-05-18 03:49:00,73.5,67.0,30.11,WNW,293,0.0,4.0,80,0.00,,---,0.00,VWS V14.01,2013-05-18 07:49:00,
2013-05-18 03:50:00,73.5,66.6,30.11,WNW,293,0.0,4.0,79,0.00,,---,0.00,VWS V14.01,2013-05-18 07:50:00,
2013-05-18 03:51:00,73.5,66.6,30.11,WNW,293,0.0,4.0,79,0.00,,---,0.00,VWS V14.01,2013-05-18 07:51:00,
2013-05-18 03:52:00,73.5,66.6,30.11,WNW,293,0.0,4.0,79,0.00,,---,0.00,VWS V14.01,2013-05-18 07:52:00,
2013-05-18 03:53:00,73.5,67.0,30.11,WNW,293,0.0,4.0,80,0.00,,---,0.00,VWS V14.01,2013-05-18 07:53:00,
2013-05-18 03:54:00,73.5,67.0,30.11,WNW,293,0.0,4.0,80,0.00,,---,0.00,VWS V14.01,2013-05-18 07:54:00,
2013-05-18 03:55:00,73.5,67.0,30.11,WNW,293,0.0,4.0,80,0.00,,---,0.00,VWS V14.01,2013-05-18 07:55:00,
2013-05-18 03:56:00,73.4,66.9,30.11,WNW,293,0.0,4.0,80,0.00,,---,0.00,VWS V14.01,2013-05-18 07:56:00,
2013-05-18 03:57:00,73.4,66.9,30.11,WNW,293,0.0,4.0,80,0.00,,---,0.00,VWS V14.01,2013-05-18 07:57:00,
2013-05-18 03:58:00,73.4,66.9,30.11,WNW,293,0.0,4.0,80,0.00,,---,0.00,VWS V14.01,2013-05-18 07:58:00,
2013-05-18 03:59:00,73.4,66.9,30.11,WNW,293,0.0,4.0,80,0.00,,---,0.00,VWS V14.01,2013-05-18 07:59:00,
2013-05-18 04:00:00,73.3,66.8,30.11,WNW,293,0.0,4.0,80,0.00,,---,0.00,VWS V14.01,2013-05-18 08:00:00,
2013-05-18 04:01:00,73.3,66.8,30.11,WNW,293,0.0,0.0,80,0.00,,---,0.00,VWS V14.01,2013-05-18 08:01:00,
2013-05-18 04:02:00,73.3,66.8,30.11,WNW,293,0.0,0.0,80,0.00,,---,0.00,VWS V14.01,2013-05-18 08:02:00,
2013-05-18 04:03:00,73.3,66.8,30.11,WNW,293,0.0,0.0,80,0.00,,---,0.00,VWS V14.01,2013-05-18 08:03:00,
2013-05-18 04:04:00,73.3,66.8,30.11,WNW,293,0.0,0.0,80,0.00,,---,0.00,VWS V14.01,2013-05-18 08:04:00,
2013-05-18 04:05:00,73.2,66.7,30.11,WNW,293,0.0,0.0,80,0.00,,---,0.00,VWS V14.01,2013-05-18 08:05:00,
2013-05-18 04:06:00,73.2,66.7,30.11,WNW,293,0.0,0.0,80,0.00,,---,0.00,VWS V14.01,2013-05-18 08:06:00,
2013-05-18 04:07:00,73.2,67.0,30.11,WNW,293,0.0,0.0,81,0.00,,---,0.00,VWS V14.01,2013-05-18 08:07:00,
2013-05-18 04:08:00,73.2,67.0,30.11,WNW,293,0.0,1.0,81,0.00,,---,0.00,VWS V14.01,2013-05-18 08:08:00,
2013-05-18 04:09:00,73.1,66.9,30.11,WNW,293,0.0,1.0,81,0.00,,---,0.00,VWS V14.01,2013-05-18 08:09:00,
2013-05-18 04:10:00,73.1,66.9,30.11,WNW,293,0.0,1.0,81,0.00,,---,0.00,VWS V14.01,2013-05-18 08:10:00,
2013-05-18 04:11:00,73.1,66.9,30.11,WNW,293,0.0,1.0,81,0.00,,---,0.00,VWS V14.01,2013-05-18 08:11:00,
2013-05-18 04:12:00,73.1,66.9,30.11,WNW,293,0.0,1.0,81,0.00,,---,0.00,VWS V14.01,2013-05-18 08:12:00,
2013-05-18 04:13:00,73.1,66.9,30.11,WNW,293,0.0,1.0,81,0.00,,---,0.00,VWS V14.01,2013-05-18 08:13:00,
2013-05-18 04:14:00,73.1,66.9,30.11,WNW,293,0.0,1.0,81,0.00,,---,0.00,VWS V14.01,2013-05-18 08:14:00,
2013-05-18 04:15:00,73.0,66.8,30.11,WNW,293,0.0,1.0,81,0.00,,---,0.00,VWS V14.01,2013-05-18 08:15:00,
2013-05-18 04:16:00,73.0,66.8,30.11,WNW,293,0.0,1.0,81,0.00,,---,0.00,VWS V14.01,2013-05-18 08:16:00,
2013-05-18 04:17:00,73.0,66.8,30.11,WNW,293,0.0,1.0,81,0.00,,---,0.00,VWS V14.01,2013-05-18 08:17:00,
2013-05-18 04:18:00,73.0,66.8,30.11,WNW,293,0.0,1.0,81,0.00,,---,0.00,VWS V14.01,2013-05-18 08:18:00,
2013-05-18 04:19:00,73.0,66.8,30.11,WNW,293,0.0,1.0,81,0.00,,---,0.00,VWS V14.01,2013-05-18 08:19:00,
2013-05-18 04:20:00,73.0,66.8,30.11,WNW,293,0.0,1.0,81,0.00,,---,0.00,VWS V14.01,2013-05-18 08:20:00,
2013-05-18 04:21:00,72.9,66.7,30.11,WNW,293,0.0,1.0,81,0.00,,---,0.00,VWS V14.01,2013-05-18 08:21:00,
2013-05-18 04:22:00,72.9,66.7,30.11,WNW,293,0.0,1.0,81,0.00,,---,0.00,VWS V14.01,2013-05-18 08:22:00,
2013-05-18 04:23:00,72.9,67.1,30.11,WNW,293,0.0,1.0,82,0.00,,---,0.00,VWS V14.01,2013-05-18 08:23:00,
2013-05-18 04:24:00,72.9,67.1,30.11,WNW,293,0.0,1.0,82,0.00,,---,0.00,VWS V14.01,2013-05-18 08:24:00,
2013-05-18 04:25:00,72.8,66.6,30.11,WNW,293,0.0,1.0,81,0.00,,---,0.00,VWS V14.01,2013-05-18 08:25:00,
2013-05-18 04:26:00,72.8,66.6,30.11,WNW,293,2.0,2.0,81,0.00,,---,0.00,VWS V14.01,2013-05-18 08:26:00,
2013-05-18 04:27:00,72.8,66.6,30.11,WNW,293,0.0,2.0,81,0.00,,---,0.00,VWS V14.01,2013-05-18 08:27:00,
2013-05-18 04:28:00,72.8,67.0,30.11,WNW,293,0.0,2.0,82,0.00,,---,0.00,VWS V14.01,2013-05-18 08:28:00,
2013-05-18 04:29:00,72.8,67.0,30.11,WNW,293,0.0,2.0,82,0.00,,---,0.00,VWS V14.01,2013-05-18 08:29:00,
2013-05-18 04:30:00,72.8,67.0,30.11,WNW,293,0.0,2.0,82,0.00,,---,0.00,VWS V14.01,2013-05-18 08:30:00,
2013-05-18 04:31:00,72.7,66.9,30.11,WNW,293,0.0,1.0,82,0.00,,---,0.00,VWS V14.01,2013-05-18 08:31:00,
2013-05-18 04:32:00,72.7,66.9,30.11,WNW,293,0.0,1.0,82,0.00,,---,0.00,VWS V14.01,2013-05-18 08:32:00,
2013-05-18 04:33:00,72.7,66.9,30.11,WNW,293,0.0,1.0,82,0.00,,---,0.00,VWS V14.01,2013-05-18 08:33:00,
2013-05-18 04:34:00,72.7,66.9,30.11,WNW,293,0.0,1.0,82,0.00,,---,0.00,VWS V14.01,2013-05-18 08:34:00,
2013-05-18 04:35:00,72.7,66.9,30.12,WNW,293,0.0,1.0,82,0.00,,---,0.00,VWS V14.01,2013-05-18 08:35:00,
2013-05-18 04:36:00,72.6,66.8,30.12,WNW,293,0.0,1.0,82,0.00,,---,0.00,VWS V14.01,2013-05-18 08:36:00,
2013-05-18 04:37:00,72.6,66.8,30.12,WNW,293,0.0,1.0,82,0.00,,---,0.00,VWS V14.01,2013-05-18 08:37:00,
2013-05-18 04:38:00,72.6,66.8,30.12,WNW,293,0.0,1.0,82,0.00,,---,0.00,VWS V14.01,2013-05-18 08:38:00,
2013-05-18 04:39:00,72.6,66.8,30.12,WNW,293,0.0,1.0,82,0.00,,---,0.00,VWS V14.01,2013-05-18 08:39:00,
2013-05-18 04:40:00,72.6,66.8,30.12,WNW,293,0.0,1.0,82,0.00,,---,0.00,VWS V14.01,2013-05-18 08:40:00,
2013-05-18 04:41:00,72.6,66.8,30.12,WNW,293,0.0,1.0,82,0.00,,---,0.00,VWS V14.01,2013-05-18 08:41:00,
2013-05-18 04:42:00,72.6,66.8,30.12,WNW,293,0.0,1.0,82,0.00,,---,0.00,VWS V14.01,2013-05-18 08:42:00,
2013-05-18 04:43:00,72.5,66.7,30.12,WNW,293,0.0,1.0,82,0.00,,---,0.00,VWS V14.01,2013-05-18 08:43:00,
2013-05-18 04:44:00,72.5,66.7,30.12,WNW,293,0.0,1.0,82,0.00,,---,0.00,VWS V14.01,2013-05-18 08:44:00,
2013-05-18 04:45:00,72.5,66.7,30.12,WNW,293,0.0,1.0,82,0.00,,---,0.00,VWS V14.01,2013-05-18 08:45:00,
2013-05-18 04:46:00,72.5,66.7,30.12,WNW,293,0.0,1.0,82,0.00,,---,0.00,VWS V14.01,2013-05-18 08:46:00,
2013-05-18 04:47:00,72.5,67.1,30.12,WNW,293,0.0,1.0,83,0.00,,---,0.00,VWS V14.01,2013-05-18 08:47:00,
2013-05-18 04:48:00,72.4,66.9,30.12,WNW,293,0.0,1.0,83,0.00,,---,0.00,VWS V14.01,2013-05-18 08:48:00,
2013-05-18 04:49:00,72.4,66.9,30.12,WNW,293,0.0,1.0,83,0.00,,---,0.00,VWS V14.01,2013-05-18 08:49:00,
2013-05-18 04:50:00,72.4,66.9,30.12,WNW,293,0.0,1.0,83,0.00,,---,0.00,VWS V14.01,2013-05-18 08:50:00,
2013-05-18 04:51:00,72.4,66.9,30.12,WNW,293,0.0,1.0,83,0.00,,---,0.00,VWS V14.01,2013-05-18 08:51:00,
2013-05-18 04:52:00,72.4,66.9,30.12,WNW,293,0.0,1.0,83,0.00,,---,0.00,VWS V14.01,2013-05-18 08:52:00,
2013-05-18 04:53:00,72.4,66.9,30.12,WNW,293,0.0,1.0,83,0.00,,---,0.00,VWS V14.01,2013-05-18 08:53:00,
2013-05-18 04:54:00,72.3,66.8,30.12,WNW,293,0.0,1.0,83,0.00,,---,0.00,VWS V14.01,2013-05-18 08:54:00,
2013-05-18 04:55:00,72.3,66.8,30.12,WNW,293,0.0,1.0,83,0.00,,---,0.00,VWS V14.01,2013-05-18 08:55:00,
2013-05-18 04:56:00,72.3,66.8,30.11,WNW,293,0.0,1.0,83,0.00,,---,0.00,VWS V14.01,2013-05-18 08:56:00,
2013-05-18 04:57:00,72.3,66.8,30.11,WNW,293,0.0,1.0,83,0.00,,---,0.00,VWS V14.01,2013-05-18 08:57:00,
2013-05-18 04:58:00,72.3,66.8,30.12,WNW,293,0.0,1.0,83,0.00,,---,0.00,VWS V14.01,2013-05-18 08:58:00,
2013-05-18 04:59:00,72.3,66.8,30.12,WNW,293,0.0,1.0,83,0.00,,---,0.00,VWS V14.01,2013-05-18 08:59:00,
2013-05-18 05:00:00,72.2,66.8,30.12,WNW,293,0.0,1.0,83,0.00,,---,0.00,VWS V14.01,2013-05-18 09:00:00,
2013-05-18 05:01:00,72.2,66.8,30.12,WNW,293,0.0,0.0,83,0.00,,---,0.00,VWS V14.01,2013-05-18 09:01:00,
2013-05-18 05:02:00,72.2,66.8,30.12,WNW,293,0.0,0.0,83,0.00,,---,0.00,VWS V14.01,2013-05-18 09:02:00,
2013-05-18 05:03:00,72.2,66.8,30.11,WNW,293,0.0,0.0,83,0.00,,---,0.00,VWS V14.01,2013-05-18 09:03:00,
2013-05-18 05:04:00,72.2,66.8,30.11,WNW,293,0.0,0.0,83,0.00,,---,0.00,VWS V14.01,2013-05-18 09:04:00,
2013-05-18 05:05:00,72.2,66.8,30.11,WNW,293,0.0,0.0,83,0.00,,---,0.00,VWS V14.01,2013-05-18 09:05:00,
2013-05-18 05:06:00,72.2,66.8,30.11,WNW,293,0.0,0.0,83,0.00,,---,0.00,VWS V14.01,2013-05-18 09:06:00,
2013-05-18 05:07:00,72.2,66.8,30.11,WNW,293,0.0,0.0,83,0.00,,---,0.00,VWS V14.01,2013-05-18 09:07:00,
2013-05-18 05:08:00,72.1,66.7,30.11,WNW,293,0.0,0.0,83,0.00,,---,0.00,VWS V14.01,2013-05-18 09:08:00,
2013-05-18 05:09:00,72.1,66.7,30.11,WNW,293,0.0,0.0,83,0.00,,---,0.00,VWS V14.01,2013-05-18 09:09:00,
2013-05-18 05:10:00,72.1,66.7,30.11,WNW,293,0.0,0.0,83,0.00,,---,0.00,VWS V14.01,2013-05-18 09:10:00,
2013-05-18 05:11:00,72.1,66.7,30.11,WNW,293,0.0,1.0,83,0.00,,---,0.00,VWS V14.01,2013-05-18 09:11:00,
2013-05-18 05:12:00,72.1,66.7,30.11,WNW,293,0.0,1.0,83,0.00,,---,0.00,VWS V14.01,2013-05-18 09:12:00,
2013-05-18 05:13:00,72.1,66.7,30.11,WNW,293,0.0,1.0,83,0.00,,---,0.00,VWS V14.01,2013-05-18 09:13:00,
2013-05-18 05:14:00,72.1,66.7,30.11,WNW,293,0.0,1.0,83,0.00,,---,0.00,VWS V14.01,2013-05-18 09:14:00,
2013-05-18 05:15:00,72.1,66.7,30.11,WNW,293,0.0,1.0,83,0.00,,---,0.00,VWS V14.01,2013-05-18 09:15:00,
2013-05-18 05:16:00,72.1,67.0,30.11,WNW,293,0.0,1.0,84,0.00,,---,0.00,VWS V14.01,2013-05-18 09:16:00,
2013-05-18 05:17:00,72.1,67.0,30.11,WNW,293,0.0,1.0,84,0.00,,---,0.00,VWS V14.01,2013-05-18 09:17:00,
2013-05-18 05:18:00,72.0,66.9,30.11,WNW,293,0.0,1.0,84,0.00,,---,0.00,VWS V14.01,2013-05-18 09:18:00,
2013-05-18 05:19:00,72.0,66.9,30.11,WNW,293,0.0,1.0,84,0.00,,---,0.00,VWS V14.01,2013-05-18 09:19:00,
2013-05-18 05:20:00,72.0,66.9,30.11,WNW,293,0.0,1.0,84,0.00,,---,0.00,VWS V14.01,2013-05-18 09:20:00,
2013-05-18 05:21:00,72.0,66.9,30.11,WNW,293,0.0,1.0,84,0.00,,---,0.00,VWS V14.01,2013-05-18 09:21:00,
2013-05-18 05:22:00,72.0,66.9,30.11,WNW,293,0.0,1.0,84,0.00,,---,0.00,VWS V14.01,2013-05-18 09:22:00,
2013-05-18 05:23:00,72.0,66.9,30.11,WNW,293,0.0,1.0,84,0.00,,---,0.00,VWS V14.01,2013-05-18 09:23:00,
2013-05-18 05:24:00,72.0,66.9,30.11,WNW,293,0.0,1.0,84,0.00,,---,0.00,VWS V14.01,2013-05-18 09:24:00,
2013-05-18 05:25:00,71.9,66.8,30.11,WNW,293,0.0,1.0,84,0.00,,---,0.00,VWS V14.01,2013-05-18 09:25:00,
2013-05-18 05:26:00,71.9,66.8,30.11,WNW,293,0.0,1.0,84,0.00,,---,0.00,VWS V14.01,2013-05-18 09:26:00,
2013-05-18 05:27:00,71.9,66.8,30.11,WNW,293,0.0,1.0,84,0.00,,---,0.00,VWS V14.01,2013-05-18 09:27:00,
2013-05-18 05:28:00,71.9,66.8,30.11,WNW,293,0.0,1.0,84,0.00,,---,0.00,VWS V14.01,2013-05-18 09:28:00,
2013-05-18 05:29:00,71.8,66.7,30.11,WNW,293,0.0,1.0,84,0.00,,---,0.00,VWS V14.01,2013-05-18 09:29:00,
2013-05-18 05:30:00,71.8,66.7,30.11,WNW,293,0.0,1.0,84,0.00,,---,0.00,VWS V14.01,2013-05-18 09:30:00,
2013-05-18 05:31:00,71.8,66.7,30.11,WNW,293,0.0,1.0,84,0.00,,---,0.00,VWS V14.01,2013-05-18 09:31:00,
2013-05-18 05:32:00,71.8,66.7,30.11,WNW,293,0.0,1.0,84,0.00,,---,0.00,VWS V14.01,2013-05-18 09:32:00,
2013-05-18 05:33:00,71.7,66.6,30.11,WNW,293,0.0,1.0,84,0.00,,---,0.00,VWS V14.01,2013-05-18 09:33:00,
2013-05-18 05:34:00,71.7,66.9,30.11,WNW,293,0.0,1.0,85,0.00,,---,0.00,VWS V14.01,2013-05-18 09:34:00,
2013-05-18 05:35:00,71.7,66.9,30.11,WNW,293,0.0,1.0,85,0.00,,---,0.00,VWS V14.01,2013-05-18 09:35:00,
2013-05-18 05:36:00,71.7,66.9,30.11,WNW,293,0.0,1.0,85,0.00,,---,0.00,VWS V14.01,2013-05-18 09:36:00,
2013-05-18 05:37:00,71.7,66.9,30.11,WNW,293,0.0,1.0,85,0.00,,---,0.00,VWS V14.01,2013-05-18 09:37:00,
2013-05-18 05:38:00,71.6,66.9,30.11,WNW,293,0.0,1.0,85,0.00,,---,0.00,VWS V14.01,2013-05-18 09:38:00,
2013-05-18 05:39:00,71.6,66.9,30.11,WNW,293,0.0,1.0,85,0.00,,---,0.00,VWS V14.01,2013-05-18 09:39:00,
2013-05-18 05:40:00,71.6,66.9,30.11,WNW,293,0.0,1.0,85,0.00,,---,0.00,VWS V14.01,2013-05-18 09:40:00,
2013-05-18 05:41:00,71.6,66.9,30.11,WNW,293,0.0,1.0,85,0.00,,---,0.00,VWS V14.01,2013-05-18 09:41:00,
2013-05-18 05:42:00,71.6,66.9,30.11,WNW,293,0.0,1.0,85,0.00,,---,0.00,VWS V14.01,2013-05-18 09:42:00,
2013-05-18 05:43:00,71.6,66.9,30.11,WNW,293,0.0,1.0,85,0.00,,---,0.00,VWS V14.01,2013-05-18 09:43:00,
2013-05-18 05:44:00,71.5,66.8,30.11,WNW,293,0.0,1.0,85,0.00,,---,0.00,VWS V14.01,2013-05-18 09:44:00,
2013-05-18 05:45:00,71.5,66.8,30.11,WNW,293,0.0,1.0,85,0.00,,---,0.00,VWS V14.01,2013-05-18 09:45:00,
2013-05-18 05:46:00,71.5,66.8,30.11,WNW,293,0.0,1.0,85,0.00,,---,0.00,VWS V14.01,2013-05-18 09:46:00,
2013-05-18 05:47:00,71.5,66.8,30.11,WNW,293,0.0,1.0,85,0.00,,---,0.00,VWS V14.01,2013-05-18 09:47:00,
2013-05-18 05:48:00,71.5,66.8,30.11,WNW,293,0.0,1.0,85,0.00,,---,0.00,VWS V14.01,2013-05-18 09:48:00,
2013-05-18 05:49:00,71.5,66.8,30.11,WNW,293,0.0,1.0,85,0.00,,---,0.00,VWS V14.01,2013-05-18 09:49:00,
2013-05-18 05:50:00,71.5,66.8,30.11,WNW,293,0.0,1.0,85,0.00,,---,0.00,VWS V14.01,2013-05-18 09:50:00,
2013-05-18 05:51:00,71.5,66.8,30.11,WNW,293,0.0,1.0,85,0.00,,---,0.00,VWS V14.01,2013-05-18 09:51:00,
2013-05-18 05:52:00,71.5,66.8,30.11,WNW,293,0.0,1.0,85,0.00,,---,0.00,VWS V14.01,2013-05-18 09:52:00,
2013-05-18 05:53:00,71.5,66.8,30.11,WNW,293,0.0,1.0,85,0.00,,---,0.00,VWS V14.01,2013-05-18 09:53:00,
2013-05-18 05:54:00,71.5,66.8,30.11,WNW,293,0.0,1.0,85,0.00,,---,0.00,VWS V14.01,2013-05-18 09:54:00,
2013-05-18 05:55:00,71.5,66.8,30.11,WNW,293,0.0,1.0,85,0.00,,---,0.00,VWS V14.01,2013-05-18 09:55:00,
2013-05-18 05:56:00,71.5,66.8,30.11,WNW,293,0.0,1.0,85,0.00,,---,0.00,VWS V14.01,2013-05-18 09:56:00,
2013-05-18 05:57:00,71.4,67.0,30.11,WNW,293,0.0,1.0,86,0.00,,---,0.00,VWS V14.01,2013-05-18 09:57:00,
2013-05-18 05:58:00,71.5,67.1,30.11,WNW,293,0.0,1.0,86,0.00,,---,0.00,VWS V14.01,2013-05-18 09:58:00,
2013-05-18 05:59:00,71.4,67.0,30.11,WNW,293,0.0,1.0,86,0.00,,---,0.00,VWS V14.01,2013-05-18 09:59:00,
2013-05-18 06:00:00,71.4,67.0,30.11,WNW,293,0.0,1.0,86,0.00,,---,0.00,VWS V14.01,2013-05-18 10:00:00,
2013-05-18 06:01:00,71.4,67.0,30.11,WNW,293,0.0,0.0,86,0.00,,---,0.00,VWS V14.01,2013-05-18 10:01:00,
2013-05-18 06:02:00,71.4,67.0,30.11,WNW,293,0.0,0.0,86,0.00,,---,0.00,VWS V14.01,2013-05-18 10:02:00,
2013-05-18 06:03:00,71.4,67.0,30.11,WNW,293,0.0,0.0,86,0.00,,---,0.00,VWS V14.01,2013-05-18 10:03:00,
2013-05-18 06:04:00,71.4,67.0,30.11,WNW,293,0.0,0.0,86,0.00,,---,0.00,VWS V14.01,2013-05-18 10:04:00,
2013-05-18 06:05:00,71.4,67.0,30.11,WNW,293,0.0,1.0,86,0.00,,---,0.00,VWS V14.01,2013-05-18 10:05:00,
2013-05-18 06:06:00,71.4,67.0,30.11,WNW,293,0.0,1.0,86,0.00,,---,0.00,VWS V14.01,2013-05-18 10:06:00,
2013-05-18 06:07:00,71.3,66.9,30.11,WNW,293,0.0,1.0,86,0.00,,---,0.00,VWS V14.01,2013-05-18 10:07:00,
2013-05-18 06:08:00,71.3,66.9,30.11,WNW,293,0.0,1.0,86,0.00,,---,0.00,VWS V14.01,2013-05-18 10:08:00,
2013-05-18 06:09:00,71.3,66.9,30.11,WNW,293,0.0,1.0,86,0.00,,---,0.00,VWS V14.01,2013-05-18 10:09:00,
2013-05-18 06:10:00,71.3,66.9,30.11,WNW,293,0.0,1.0,86,0.00,,---,0.00,VWS V14.01,2013-05-18 10:10:00,
2013-05-18 06:11:00,71.3,66.9,30.11,WNW,293,0.0,1.0,86,0.00,,---,0.00,VWS V14.01,2013-05-18 10:11:00,
2013-05-18 06:12:00,71.3,66.9,30.11,WNW,293,0.0,1.0,86,0.00,,---,0.00,VWS V14.01,2013-05-18 10:12:00,
2013-05-18 06:13:00,71.3,66.9,30.11,WNW,293,0.0,1.0,86,0.00,,---,0.00,VWS V14.01,2013-05-18 10:13:00,
2013-05-18 06:14:00,71.3,66.9,30.11,WNW,293,0.0,1.0,86,0.00,,---,0.00,VWS V14.01,2013-05-18 10:14:00,
2013-05-18 06:15:00,71.3,66.9,30.11,WNW,293,0.0,1.0,86,0.00,,---,0.00,VWS V14.01,2013-05-18 10:15:00,
2013-05-18 06:16:00,71.2,66.8,30.11,WNW,293,0.0,1.0,86,0.00,,---,0.00,VWS V14.01,2013-05-18 10:16:00,
2013-05-18 06:17:00,71.2,66.8,30.11,WNW,293,0.0,1.0,86,0.00,,---,0.00,VWS V14.01,2013-05-18 10:17:00,
2013-05-18 06:18:00,71.2,66.8,30.11,WNW,293,0.0,3.0,86,0.00,,---,0.00,VWS V14.01,2013-05-18 10:18:00,
2013-05-18 06:19:00,71.2,66.8,30.11,WNW,293,0.0,3.0,86,0.00,,---,0.00,VWS V14.01,2013-05-18 10:19:00,
2013-05-18 06:20:00,71.2,66.8,30.11,WNW,293,0.0,3.0,86,0.00,,---,0.00,VWS V14.01,2013-05-18 10:20:00,
2013-05-18 06:21:00,71.2,66.8,30.11,WNW,293,0.0,3.0,86,0.00,,---,0.00,VWS V14.01,2013-05-18 10:21:00,
2013-05-18 06:22:00,71.2,66.8,30.11,WNW,293,0.0,3.0,86,0.00,,---,0.00,VWS V14.01,2013-05-18 10:22:00,
2013-05-18 06:23:00,71.2,66.8,30.11,West,266,3.0,3.0,86,0.00,,---,0.00,VWS V14.01,2013-05-18 10:23:00,
2013-05-18 06:24:00,71.2,66.8,30.11,WSW,246,1.0,5.0,86,0.00,,---,0.00,VWS V14.01,2013-05-18 10:24:00,
2013-05-18 06:25:00,71.2,67.1,30.11,WSW,246,0.0,5.0,87,0.00,,---,0.00,VWS V14.01,2013-05-18 10:25:00,
2013-05-18 06:26:00,71.2,67.1,30.11,WSW,246,0.0,5.0,87,0.00,,---,0.00,VWS V14.01,2013-05-18 10:26:00,
2013-05-18 06:27:00,71.2,67.1,30.11,WSW,246,0.0,5.0,87,0.00,,---,0.00,VWS V14.01,2013-05-18 10:27:00,
2013-05-18 06:28:00,71.2,67.1,30.11,WSW,252,0.0,5.0,87,0.00,,---,0.00,VWS V14.01,2013-05-18 10:28:00,
2013-05-18 06:29:00,71.2,67.1,30.11,WSW,252,0.0,5.0,87,0.00,,---,0.00,VWS V14.01,2013-05-18 10:29:00,
2013-05-18 06:30:00,71.2,67.1,30.11,WSW,252,0.0,5.0,87,0.00,,---,0.00,VWS V14.01,2013-05-18 10:30:00,
2013-05-18 06:31:00,71.2,67.1,30.11,WSW,252,0.0,0.0,87,0.00,,---,0.00,VWS V14.01,2013-05-18 10:31:00,
2013-05-18 06:32:00,71.1,67.0,30.11,WSW,252,0.0,0.0,87,0.00,,---,0.00,VWS V14.01,2013-05-18 10:32:00,
2013-05-18 06:33:00,71.1,67.0,30.11,WSW,251,2.0,4.0,87,0.00,,---,0.00,VWS V14.01,2013-05-18 10:33:00,
2013-05-18 06:34:00,71.1,67.0,30.11,WSW,251,0.0,4.0,87,0.00,,---,0.00,VWS V14.01,2013-05-18 10:34:00,
2013-05-18 06:35:00,71.1,67.0,30.11,WSW,251,0.0,4.0,87,0.00,,---,0.00,VWS V14.01,2013-05-18 10:35:00,
2013-05-18 06:36:00,71.1,67.0,30.11,WSW,251,0.0,4.0,87,0.00,,---,0.00,VWS V14.01,2013-05-18 10:36:00,
2013-05-18 06:37:00,71.1,67.0,30.11,West,277,0.0,4.0,87,0.00,,---,0.00,VWS V14.01,2013-05-18 10:37:00,
2013-05-18 06:38:00,71.1,67.0,30.11,West,277,0.0,4.0,87,0.00,,---,0.00,VWS V14.01,2013-05-18 10:38:00,
2013-05-18 06:39:00,71.1,67.0,30.11,West,277,0.0,4.0,87,0.00,,---,0.00,VWS V14.01,2013-05-18 10:39:00,
2013-05-18 06:40:00,71.1,67.0,30.11,West,277,0.0,4.0,87,0.00,,---,0.00,VWS V14.01,2013-05-18 10:40:00,
2013-05-18 06:41:00,71.1,67.0,30.11,West,277,0.0,4.0,87,0.00,,---,0.00,VWS V14.01,2013-05-18 10:41:00,
2013-05-18 06:42:00,71.1,67.0,30.11,West,277,0.0,4.0,87,0.00,,---,0.00,VWS V14.01,2013-05-18 10:42:00,
2013-05-18 06:43:00,71.1,67.0,30.11,West,277,0.0,4.0,87,0.00,,---,0.00,VWS V14.01,2013-05-18 10:43:00,
2013-05-18 06:44:00,71.1,67.0,30.11,West,277,0.0,4.0,87,0.00,,---,0.00,VWS V14.01,2013-05-18 10:44:00,
2013-05-18 06:45:00,71.1,67.0,30.11,West,277,0.0,4.0,87,0.00,,---,0.00,VWS V14.01,2013-05-18 10:45:00,
2013-05-18 06:46:00,71.0,66.9,30.11,West,277,0.0,4.0,87,0.00,,---,0.00,VWS V14.01,2013-05-18 10:46:00,
2013-05-18 06:47:00,71.0,66.9,30.11,West,277,0.0,4.0,87,0.00,,---,0.00,VWS V14.01,2013-05-18 10:47:00,
2013-05-18 06:48:00,71.0,66.9,30.11,West,264,2.0,4.0,87,0.00,,---,0.00,VWS V14.01,2013-05-18 10:48:00,
2013-05-18 06:49:00,71.0,66.9,30.11,WSW,251,0.0,4.0,87,0.00,,---,0.00,VWS V14.01,2013-05-18 10:49:00,
2013-05-18 06:50:00,71.1,67.0,30.11,WSW,251,0.0,4.0,87,0.00,,---,0.00,VWS V14.01,2013-05-18 10:50:00,
2013-05-18 06:51:00,71.1,67.0,30.11,WSW,251,0.0,4.0,87,0.00,,---,0.00,VWS V14.01,2013-05-18 10:51:00,
2013-05-18 06:52:00,71.1,67.0,30.11,West,276,2.0,4.0,87,0.00,,---,0.00,VWS V14.01,2013-05-18 10:52:00,
2013-05-18 06:53:00,71.1,67.0,30.11,WNW,283,0.0,4.0,87,0.00,,---,0.00,VWS V14.01,2013-05-18 10:53:00,
2013-05-18 06:54:00,71.1,67.0,30.11,West,281,0.0,4.0,87,0.00,,---,0.00,VWS V14.01,2013-05-18 10:54:00,
2013-05-18 06:55:00,71.1,67.4,30.11,West,281,0.0,4.0,88,0.00,,---,0.00,VWS V14.01,2013-05-18 10:55:00,
2013-05-18 06:56:00,71.1,67.4,30.11,West,281,0.0,4.0,88,0.00,,---,0.00,VWS V14.01,2013-05-18 10:56:00,
2013-05-18 06:57:00,71.1,67.4,30.11,WNW,283,0.0,4.0,88,0.00,,---,0.00,VWS V14.01,2013-05-18 10:57:00,
2013-05-18 06:58:00,71.1,67.4,30.11,WNW,282,0.0,4.0,88,0.00,,---,0.00,VWS V14.01,2013-05-18 10:58:00,
2013-05-18 06:59:00,71.1,67.4,30.11,WNW,282,0.0,4.0,88,0.00,,---,0.00,VWS V14.01,2013-05-18 10:59:00,
2013-05-18 07:00:00,71.0,67.3,30.11,WNW,282,0.0,4.0,88,0.00,,---,0.00,VWS V14.01,2013-05-18 11:00:00,
2013-05-18 07:01:00,71.0,67.3,30.11,WNW,296,0.0,5.0,88,0.00,,---,0.00,VWS V14.01,2013-05-18 11:01:00,
2013-05-18 07:02:00,71.0,67.3,30.11,West,275,0.0,6.0,88,0.00,,---,0.00,VWS V14.01,2013-05-18 11:02:00,
2013-05-18 07:03:00,71.0,67.3,30.11,West,277,4.0,6.0,88,0.00,,---,0.00,VWS V14.01,2013-05-18 11:03:00,
2013-05-18 07:04:00,71.0,67.3,30.11,West,279,5.0,6.0,88,0.00,,---,0.00,VWS V14.01,2013-05-18 11:04:00,
2013-05-18 07:05:00,71.0,67.3,30.11,WNW,290,3.0,6.0,88,0.00,,---,0.00,VWS V14.01,2013-05-18 11:05:00,
2013-05-18 07:06:00,71.0,67.3,30.11,WNW,290,0.0,6.0,88,0.00,,---,0.00,VWS V14.01,2013-05-18 11:06:00,
2013-05-18 07:07:00,71.0,67.3,30.11,WNW,290,0.0,6.0,88,0.00,,---,0.00,VWS V14.01,2013-05-18 11:07:00,
2013-05-18 07:08:00,71.0,67.3,30.11,WNW,290,0.0,6.0,88,0.00,,---,0.00,VWS V14.01,2013-05-18 11:08:00,
2013-05-18 07:09:00,71.0,67.3,30.11,WNW,290,0.0,6.0,88,0.00,,---,0.00,VWS V14.01,2013-05-18 11:09:00,
2013-05-18 07:10:00,71.0,67.3,30.11,West,271,0.0,6.0,88,0.00,,---,0.00,VWS V14.01,2013-05-18 11:10:00,
2013-05-18 07:11:00,71.0,67.3,30.11,NW,316,6.0,6.0,88,0.00,,---,0.00,VWS V14.01,2013-05-18 11:11:00,
2013-05-18 07:12:00,71.0,67.3,30.11,NW,316,0.0,6.0,88,0.00,,---,0.00,VWS V14.01,2013-05-18 11:12:00,
2013-05-18 07:13:00,71.0,67.3,30.11,NW,316,0.0,6.0,88,0.00,,---,0.00,VWS V14.01,2013-05-18 11:13:00,
2013-05-18 07:14:00,71.0,67.3,30.11,NW,316,0.0,6.0,88,0.00,,---,0.00,VWS V14.01,2013-05-18 11:14:00,
2013-05-18 07:15:00,71.0,67.3,30.11,NW,320,1.0,6.0,88,0.00,,---,0.00,VWS V14.01,2013-05-18 11:15:00,
2013-05-18 07:16:00,71.0,67.3,30.11,NW,320,0.0,6.0,88,0.00,,---,0.00,VWS V14.01,2013-05-18 11:16:00,
2013-05-18 07:17:00,71.0,67.3,30.11,NW,320,0.0,6.0,88,0.00,,---,0.00,VWS V14.01,2013-05-18 11:17:00,
2013-05-18 07:18:00,71.0,67.3,30.11,NW,320,0.0,6.0,88,0.00,,---,0.00,VWS V14.01,2013-05-18 11:18:00,
2013-05-18 07:19:00,71.0,67.3,30.12,NW,318,3.0,6.0,88,0.00,,---,0.00,VWS V14.01,2013-05-18 11:19:00,
2013-05-18 07:20:00,71.0,67.3,30.11,NW,318,0.0,6.0,88,0.00,,---,0.00,VWS V14.01,2013-05-18 11:20:00,
2013-05-18 07:21:00,71.0,67.3,30.11,NW,318,0.0,6.0,88,0.00,,---,0.00,VWS V14.01,2013-05-18 11:21:00,
2013-05-18 07:22:00,71.0,66.9,30.12,NW,318,0.0,6.0,87,0.00,,---,0.00,VWS V14.01,2013-05-18 11:22:00,
2013-05-18 07:23:00,71.0,66.9,30.12,NW,318,0.0,6.0,87,0.00,,---,0.00,VWS V14.01,2013-05-18 11:23:00,
2013-05-18 07:24:00,71.0,66.9,30.11,NW,318,0.0,6.0,87,0.00,,---,0.00,VWS V14.01,2013-05-18 11:24:00,
2013-05-18 07:25:00,71.0,66.9,30.11,NW,318,0.0,6.0,87,0.00,,---,0.00,VWS V14.01,2013-05-18 11:25:00,
2013-05-18 07:26:00,71.0,66.9,30.12,NW,318,0.0,6.0,87,0.00,,---,0.00,VWS V14.01,2013-05-18 11:26:00,
2013-05-18 07:27:00,70.9,66.8,30.12,NW,318,0.0,6.0,87,0.00,,---,0.00,VWS V14.01,2013-05-18 11:27:00,
2013-05-18 07:28:00,70.9,66.8,30.11,NW,318,0.0,6.0,87,0.00,,---,0.00,VWS V14.01,2013-05-18 11:28:00,
2013-05-18 07:29:00,70.9,66.8,30.11,NW,318,0.0,6.0,87,0.00,,---,0.00,VWS V14.01,2013-05-18 11:29:00,
2013-05-18 07:30:00,70.9,66.8,30.11,NW,318,0.0,6.0,87,0.00,,---,0.00,VWS V14.01,2013-05-18 11:30:00,
2013-05-18 07:31:00,70.9,66.8,30.11,WNW,290,0.0,5.0,87,0.00,,---,0.00,VWS V14.01,2013-05-18 11:31:00,
2013-05-18 07:32:00,70.9,66.8,30.11,NW,309,0.0,5.0,87,0.00,,---,0.00,VWS V14.01,2013-05-18 11:32:00,
2013-05-18 07:33:00,70.9,66.8,30.11,NW,309,0.0,5.0,87,0.00,,---,0.00,VWS V14.01,2013-05-18 11:33:00,
2013-05-18 07:34:00,70.8,66.7,30.11,NW,309,0.0,5.0,87,0.00,,---,0.00,VWS V14.01,2013-05-18 11:34:00,
2013-05-18 07:35:00,70.8,66.7,30.11,NW,309,0.0,5.0,87,0.00,,---,0.00,VWS V14.01,2013-05-18 11:35:00,
2013-05-18 07:36:00,70.8,66.7,30.11,NW,309,0.0,5.0,87,0.00,,---,0.00,VWS V14.01,2013-05-18 11:36:00,
2013-05-18 07:37:00,70.8,66.7,30.11,NW,309,0.0,5.0,87,0.00,,---,0.00,VWS V14.01,2013-05-18 11:37:00,
2013-05-18 07:38:00,70.8,66.7,30.11,NW,309,0.0,5.0,87,0.00,,---,0.00,VWS V14.01,2013-05-18 11:38:00,
2013-05-18 07:39:00,70.8,66.7,30.11,NW,309,0.0,5.0,87,0.00,,---,0.00,VWS V14.01,2013-05-18 11:39:00,
2013-05-18 07:40:00,70.7,66.7,30.11,NW,309,0.0,5.0,87,0.00,,---,0.00,VWS V14.01,2013-05-18 11:40:00,
2013-05-18 07:41:00,70.7,66.7,30.11,NW,309,0.0,5.0,87,0.00,,---,0.00,VWS V14.01,2013-05-18 11:41:00,
2013-05-18 07:42:00,70.7,66.7,30.11,NW,309,0.0,5.0,87,0.00,,---,0.00,VWS V14.01,2013-05-18 11:42:00,
2013-05-18 07:43:00,70.7,66.7,30.11,NW,309,0.0,5.0,87,0.00,,---,0.00,VWS V14.01,2013-05-18 11:43:00,
2013-05-18 07:44:00,70.7,67.0,30.11,NW,309,0.0,5.0,88,0.00,,---,0.00,VWS V14.01,2013-05-18 11:44:00,
2013-05-18 07:45:00,70.7,67.0,30.11,NW,309,0.0,5.0,88,0.00,,---,0.00,VWS V14.01,2013-05-18 11:45:00,
2013-05-18 07:46:00,70.6,66.9,30.11,NW,309,0.0,5.0,88,0.00,,---,0.00,VWS V14.01,2013-05-18 11:46:00,
2013-05-18 07:47:00,70.6,66.9,30.11,NW,309,0.0,5.0,88,0.00,,---,0.00,VWS V14.01,2013-05-18 11:47:00,
2013-05-18 07:48:00,70.6,66.9,30.11,NW,309,0.0,5.0,88,0.00,,---,0.00,VWS V14.01,2013-05-18 11:48:00,
2013-05-18 07:49:00,70.6,66.9,30.11,NW,309,0.0,5.0,88,0.00,,---,0.00,VWS V14.01,2013-05-18 11:49:00,
2013-05-18 07:50:00,70.6,66.9,30.11,NW,309,0.0,5.0,88,0.00,,---,0.00,VWS V14.01,2013-05-18 11:50:00,
2013-05-18 07:51:00,70.6,66.9,30.11,NW,309,0.0,5.0,88,0.00,,---,0.00,VWS V14.01,2013-05-18 11:51:00,
2013-05-18 07:52:00,70.5,66.8,30.11,NW,309,0.0,5.0,88,0.00,,---,0.00,VWS V14.01,2013-05-18 11:52:00,
2013-05-18 07:53:00,70.5,66.8,30.11,NW,309,0.0,5.0,88,0.00,,---,0.00,VWS V14.01,2013-05-18 11:53:00,
2013-05-18 07:54:00,70.5,66.8,30.11,NW,309,0.0,5.0,88,0.00,,---,0.00,VWS V14.01,2013-05-18 11:54:00,
2013-05-18 07:55:00,70.5,66.8,30.11,NW,309,0.0,5.0,88,0.00,,---,0.00,VWS V14.01,2013-05-18 11:55:00,
2013-05-18 07:56:00,70.5,66.8,30.11,NW,309,0.0,5.0,88,0.00,,---,0.00,VWS V14.01,2013-05-18 11:56:00,
2013-05-18 07:57:00,70.5,66.8,30.11,NW,309,0.0,5.0,88,0.00,,---,0.00,VWS V14.01,2013-05-18 11:57:00,
2013-05-18 07:58:00,70.4,66.7,30.11,NW,309,0.0,5.0,88,0.00,,---,0.00,VWS V14.01,2013-05-18 11:58:00,
2013-05-18 07:59:00,70.4,66.7,30.11,NW,309,0.0,5.0,88,0.00,,---,0.00,VWS V14.01,2013-05-18 11:59:00,
2013-05-18 08:00:00,70.4,66.7,30.11,NW,309,0.0,5.0,88,0.00,,---,0.00,VWS V14.01,2013-05-18 12:00:00,
2013-05-18 08:01:00,70.4,66.7,30.11,NW,309,0.0,0.0,88,0.00,,---,0.00,VWS V14.01,2013-05-18 12:01:00,
2013-05-18 08:02:00,70.4,66.7,30.11,NW,309,0.0,0.0,88,0.00,,---,0.00,VWS V14.01,2013-05-18 12:02:00,
2013-05-18 08:03:00,70.4,66.7,30.11,NW,309,0.0,0.0,88,0.00,,---,0.00,VWS V14.01,2013-05-18 12:03:00,
2013-05-18 08:04:00,70.4,66.7,30.11,NW,309,0.0,0.0,88,0.00,,---,0.00,VWS V14.01,2013-05-18 12:04:00,
2013-05-18 08:05:00,70.4,66.7,30.11,NW,309,0.0,0.0,88,0.00,,---,0.00,VWS V14.01,2013-05-18 12:05:00,
2013-05-18 08:06:00,70.4,66.7,30.11,NW,309,0.0,0.0,88,0.00,,---,0.00,VWS V14.01,2013-05-18 12:06:00,
2013-05-18 08:07:00,70.4,66.7,30.11,NW,309,0.0,0.0,88,0.00,,---,0.00,VWS V14.01,2013-05-18 12:07:00,
2013-05-18 08:08:00,70.4,66.7,30.11,NW,309,0.0,0.0,88,0.00,,---,0.00,VWS V14.01,2013-05-18 12:08:00,
2013-05-18 08:09:00,70.4,66.7,30.11,NW,309,0.0,0.0,88,0.00,,---,0.00,VWS V14.01,2013-05-18 12:09:00,
2013-05-18 08:10:00,70.3,66.6,30.11,NW,309,0.0,0.0,88,0.00,,---,0.00,VWS V14.01,2013-05-18 12:10:00,
2013-05-18 08:11:00,70.3,66.6,30.11,NW,309,0.0,0.0,88,0.00,,---,0.00,VWS V14.01,2013-05-18 12:11:00,
2013-05-18 08:12:00,70.3,66.6,30.11,NW,309,0.0,1.0,88,0.00,,---,0.00,VWS V14.01,2013-05-18 12:12:00,
2013-05-18 08:13:00,70.3,66.6,30.11,NW,309,0.0,1.0,88,0.00,,---,0.00,VWS V14.01,2013-05-18 12:13:00,
2013-05-18 08:14:00,70.3,66.6,30.11,NW,309,0.0,1.0,88,0.00,,---,0.00,VWS V14.01,2013-05-18 12:14:00,
2013-05-18 08:15:00,70.3,66.6,30.11,NW,309,0.0,1.0,88,0.00,,---,0.00,VWS V14.01,2013-05-18 12:15:00,
2013-05-18 08:16:00,70.3,66.6,30.11,NW,309,0.0,1.0,88,0.00,,---,0.00,VWS V14.01,2013-05-18 12:16:00,
2013-05-18 08:17:00,70.3,66.6,30.11,NW,309,0.0,1.0,88,0.00,,---,0.00,VWS V14.01,2013-05-18 12:17:00,
2013-05-18 08:18:00,70.3,66.6,30.11,NW,309,0.0,1.0,88,0.00,,---,0.00,VWS V14.01,2013-05-18 12:18:00,
2013-05-18 08:19:00,70.3,66.6,30.11,NW,309,0.0,1.0,88,0.00,,---,0.00,VWS V14.01,2013-05-18 12:19:00,
2013-05-18 08:20:00,70.3,66.6,30.11,NW,309,0.0,1.0,88,0.00,,---,0.00,VWS V14.01,2013-05-18 12:20:00,
2013-05-18 08:21:00,70.3,66.6,30.11,NW,309,0.0,1.0,88,0.00,,---,0.00,VWS V14.01,2013-05-18 12:21:00,
2013-05-18 08:22:00,70.3,66.6,30.11,NW,309,0.0,1.0,88,0.00,,---,0.00,VWS V14.01,2013-05-18 12:22:00,
2013-05-18 08:23:00,70.3,66.6,30.11,NW,309,0.0,1.0,88,0.00,,---,0.00,VWS V14.01,2013-05-18 12:23:00,
2013-05-18 08:24:00,70.3,66.6,30.10,NW,309,0.0,1.0,88,0.00,,---,0.00,VWS V14.01,2013-05-18 12:24:00,
2013-05-18 08:25:00,70.2,66.5,30.10,NW,309,0.0,1.0,88,0.00,,---,0.00,VWS V14.01,2013-05-18 12:25:00,
2013-05-18 08:26:00,70.3,66.6,30.10,NW,309,0.0,1.0,88,0.00,,---,0.00,VWS V14.01,2013-05-18 12:26:00,
2013-05-18 08:27:00,70.3,66.9,30.10,NW,309,0.0,1.0,89,0.00,,---,0.00,VWS V14.01,2013-05-18 12:27:00,
2013-05-18 08:28:00,70.3,66.6,30.10,NW,309,0.0,1.0,88,0.00,,---,0.00,VWS V14.01,2013-05-18 12:28:00,
2013-05-18 08:29:00,70.2,66.5,30.10,NW,309,0.0,1.0,88,0.00,,---,0.00,VWS V14.01,2013-05-18 12:29:00,
2013-05-18 08:30:00,70.2,66.8,30.10,NW,309,0.0,1.0,89,0.00,,---,0.00,VWS V14.01,2013-05-18 12:30:00,
2013-05-18 08:31:00,70.2,66.5,30.10,NW,309,0.0,0.0,88,0.00,,---,0.00,VWS V14.01,2013-05-18 12:31:00,
2013-05-18 08:32:00,70.2,66.5,30.10,NW,309,0.0,0.0,88,0.00,,---,0.00,VWS V14.01,2013-05-18 12:32:00,
2013-05-18 08:33:00,70.2,66.5,30.10,NW,309,0.0,0.0,88,0.00,,---,0.00,VWS V14.01,2013-05-18 12:33:00,
2013-05-18 08:34:00,70.2,66.5,30.10,NW,309,0.0,0.0,88,0.00,,---,0.00,VWS V14.01,2013-05-18 12:34:00,
2013-05-18 08:35:00,70.2,66.5,30.10,NW,309,0.0,0.0,88,0.00,,---,0.00,VWS V14.01,2013-05-18 12:35:00,
2013-05-18 08:36:00,70.2,66.5,30.10,NW,309,0.0,1.0,88,0.00,,---,0.00,VWS V14.01,2013-05-18 12:36:00,
2013-05-18 08:37:00,70.2,66.5,30.10,NW,309,0.0,1.0,88,0.00,,---,0.00,VWS V14.01,2013-05-18 12:37:00,
2013-05-18 08:38:00,70.2,66.5,30.10,NW,309,0.0,1.0,88,0.00,,---,0.00,VWS V14.01,2013-05-18 12:38:00,
2013-05-18 08:39:00,70.2,66.5,30.10,NW,309,0.0,1.0,88,0.00,,---,0.00,VWS V14.01,2013-05-18 12:39:00,
2013-05-18 08:40:00,70.2,66.5,30.10,NW,309,0.0,1.0,88,0.00,,---,0.00,VWS V14.01,2013-05-18 12:40:00,
2013-05-18 08:41:00,70.2,66.5,30.10,NW,309,0.0,1.0,88,0.00,,---,0.00,VWS V14.01,2013-05-18 12:41:00,
2013-05-18 08:42:00,70.2,66.5,30.10,NW,309,0.0,1.0,88,0.00,,---,0.00,VWS V14.01,2013-05-18 12:42:00,
2013-05-18 08:43:00,70.2,66.5,30.10,NW,309,0.0,1.0,88,0.00,,---,0.00,VWS V14.01,2013-05-18 12:43:00,
2013-05-18 08:44:00,70.2,66.5,30.10,NW,309,0.0,1.0,88,0.00,,---,0.00,VWS V14.01,2013-05-18 12:44:00,
2013-05-18 08:45:00,70.2,66.5,30.10,NW,309,0.0,1.0,88,0.00,,---,0.00,VWS V14.01,2013-05-18 12:45:00,
2013-05-18 08:46:00,70.2,66.5,30.10,NW,309,0.0,1.0,88,0.00,,---,0.00,VWS V14.01,2013-05-18 12:46:00,
2013-05-18 08:47:00,70.2,66.5,30.10,NW,309,0.0,1.0,88,0.00,,---,0.00,VWS V14.01,2013-05-18 12:47:00,
2013-05-18 08:48:00,70.2,66.5,30.10,NW,309,0.0,1.0,88,0.00,,---,0.00,VWS V14.01,2013-05-18 12:48:00,
2013-05-18 08:49:00,70.2,66.5,30.10,NW,309,0.0,3.0,88,0.00,,---,0.00,VWS V14.01,2013-05-18 12:49:00,
2013-05-18 08:50:00,70.2,66.5,30.10,NW,309,0.0,3.0,88,0.00,,---,0.00,VWS V14.01,2013-05-18 12:50:00,
2013-05-18 08:51:00,70.2,66.5,30.10,NW,309,0.0,3.0,88,0.00,,---,0.00,VWS V14.01,2013-05-18 12:51:00,
2013-05-18 08:52:00,70.2,66.5,30.10,NW,309,0.0,3.0,88,0.00,,---,0.00,VWS V14.01,2013-05-18 12:52:00,
2013-05-18 08:53:00,70.2,66.5,30.10,NW,309,0.0,3.0,88,0.00,,---,0.00,VWS V14.01,2013-05-18 12:53:00,
2013-05-18 08:54:00,70.2,66.5,30.10,NW,309,0.0,3.0,88,0.00,,---,0.00,VWS V14.01,2013-05-18 12:54:00,
2013-05-18 08:55:00,70.2,66.5,30.10,NW,309,0.0,3.0,88,0.00,,---,0.00,VWS V14.01,2013-05-18 12:55:00,
2013-05-18 08:56:00,70.2,66.5,30.10,NW,309,0.0,3.0,88,0.00,,---,0.00,VWS V14.01,2013-05-18 12:56:00,
2013-05-18 08:57:00,70.2,66.5,30.10,NW,309,0.0,3.0,88,0.00,,---,0.00,VWS V14.01,2013-05-18 12:57:00,
2013-05-18 08:58:00,70.2,66.5,30.10,NW,309,0.0,3.0,88,0.00,,---,0.00,VWS V14.01,2013-05-18 12:58:00,
2013-05-18 08:59:00,70.2,66.5,30.10,NW,309,0.0,3.0,88,0.00,,---,0.00,VWS V14.01,2013-05-18 12:59:00,
2013-05-18 09:00:00,70.1,66.4,30.10,NW,309,0.0,3.0,88,0.00,,---,0.00,VWS V14.01,2013-05-18 13:00:00,
2013-05-18 09:01:00,70.2,66.5,30.10,NW,309,0.0,0.0,88,0.00,,---,0.00,VWS V14.01,2013-05-18 13:01:00,
2013-05-18 09:02:00,70.1,66.4,30.10,NW,309,0.0,0.0,88,0.00,,---,0.00,VWS V14.01,2013-05-18 13:02:00,
2013-05-18 09:03:00,70.1,66.4,30.10,NW,309,0.0,0.0,88,0.00,,---,0.00,VWS V14.01,2013-05-18 13:03:00,
2013-05-18 09:04:00,70.1,66.4,30.10,NW,309,0.0,0.0,88,0.00,,---,0.00,VWS V14.01,2013-05-18 13:04:00,
2013-05-18 09:05:00,70.1,66.4,30.10,NW,309,0.0,0.0,88,0.00,,---,0.00,VWS V14.01,2013-05-18 13:05:00,
2013-05-18 09:06:00,70.1,66.4,30.10,NW,309,0.0,0.0,88,0.00,,---,0.00,VWS V14.01,2013-05-18 13:06:00,
2013-05-18 09:07:00,70.1,66.4,30.10,NW,309,0.0,0.0,88,0.00,,---,0.00,VWS V14.01,2013-05-18 13:07:00,
2013-05-18 09:08:00,70.1,66.4,30.10,NW,309,0.0,0.0,88,0.00,,---,0.00,VWS V14.01,2013-05-18 13:08:00,
2013-05-18 09:09:00,70.1,66.4,30.10,NW,309,0.0,0.0,88,0.00,,---,0.00,VWS V14.01,2013-05-18 13:09:00,
2013-05-18 09:10:00,70.1,66.4,30.10,NW,309,0.0,0.0,88,0.00,,---,0.00,VWS V14.01,2013-05-18 13:10:00,
2013-05-18 09:11:00,70.1,66.4,30.10,NW,309,0.0,1.0,88,0.00,,---,0.00,VWS V14.01,2013-05-18 13:11:00,
2013-05-18 09:12:00,70.1,66.4,30.10,NW,309,0.0,1.0,88,0.00,,---,0.00,VWS V14.01,2013-05-18 13:12:00,
2013-05-18 09:13:00,70.1,66.4,30.10,NW,309,0.0,1.0,88,0.00,,---,0.00,VWS V14.01,2013-05-18 13:13:00,
2013-05-18 09:14:00,70.1,66.4,30.10,NW,309,0.0,1.0,88,0.00,,---,0.00,VWS V14.01,2013-05-18 13:14:00,
2013-05-18 09:15:00,70.1,66.4,30.10,NW,309,0.0,1.0,88,0.00,,---,0.00,VWS V14.01,2013-05-18 13:15:00,
2013-05-18 09:16:00,70.1,66.4,30.10,NW,309,0.0,1.0,88,0.00,,---,0.00,VWS V14.01,2013-05-18 13:16:00,
2013-05-18 09:17:00,70.1,66.4,30.10,NW,309,0.0,1.0,88,0.00,,---,0.00,VWS V14.01,2013-05-18 13:17:00,
2013-05-18 09:18:00,70.1,66.4,30.10,NW,309,0.0,1.0,88,0.00,,---,0.00,VWS V14.01,2013-05-18 13:18:00,
2013-05-18 09:19:00,70.1,66.4,30.10,NW,309,0.0,1.0,88,0.00,,---,0.00,VWS V14.01,2013-05-18 13:19:00,
2013-05-18 09:20:00,70.1,66.4,30.10,NW,309,0.0,1.0,88,0.00,,---,0.00,VWS V14.01,2013-05-18 13:20:00,
2013-05-18 09:21:00,70.1,66.4,30.10,NW,309,0.0,1.0,88,0.00,,---,0.00,VWS V14.01,2013-05-18 13:21:00,
2013-05-18 09:22:00,70.1,66.4,30.10,NW,309,0.0,1.0,88,0.00,,---,0.00,VWS V14.01,2013-05-18 13:22:00,
2013-05-18 09:23:00,70.1,66.4,30.10,NW,309,0.0,1.0,88,0.00,,---,0.00,VWS V14.01,2013-05-18 13:23:00,
2013-05-18 09:24:00,70.1,66.4,30.10,NW,309,0.0,1.0,88,0.00,,---,0.00,VWS V14.01,2013-05-18 13:24:00,
2013-05-18 09:25:00,70.1,66.4,30.10,NW,309,0.0,1.0,88,0.00,,---,0.00,VWS V14.01,2013-05-18 13:25:00,
2013-05-18 09:26:00,70.1,66.4,30.10,NW,309,0.0,1.0,88,0.00,,---,0.00,VWS V14.01,2013-05-18 13:26:00,
2013-05-18 09:27:00,70.1,66.4,30.10,NW,309,0.0,1.0,88,0.00,,---,0.00,VWS V14.01,2013-05-18 13:27:00,
2013-05-18 09:28:00,70.1,66.4,30.10,NW,309,0.0,1.0,88,0.00,,---,0.00,VWS V14.01,2013-05-18 13:28:00,
2013-05-18 09:29:00,70.1,66.4,30.10,NW,309,0.0,1.0,88,0.00,,---,0.00,VWS V14.01,2013-05-18 13:29:00,
2013-05-18 09:30:00,70.1,66.4,30.10,NW,309,0.0,1.0,88,0.00,,---,0.00,VWS V14.01,2013-05-18 13:30:00,
2013-05-18 09:31:00,70.1,66.4,30.10,NW,309,0.0,0.0,88,0.00,,---,0.00,VWS V14.01,2013-05-18 13:31:00,
2013-05-18 09:32:00,70.1,66.4,30.10,NW,309,0.0,1.0,88,0.00,,---,0.00,VWS V14.01,2013-05-18 13:32:00,
2013-05-18 09:33:00,70.1,66.4,30.10,NW,309,0.0,1.0,88,0.00,,---,0.00,VWS V14.01,2013-05-18 13:33:00,
2013-05-18 09:34:00,70.1,66.4,30.10,NW,309,0.0,1.0,88,0.00,,---,0.00,VWS V14.01,2013-05-18 13:34:00,
2013-05-18 09:35:00,70.1,66.4,30.10,NW,309,0.0,1.0,88,0.00,,---,0.00,VWS V14.01,2013-05-18 13:35:00,
2013-05-18 09:36:00,70.1,66.7,30.10,NW,309,0.0,1.0,89,0.00,,---,0.00,VWS V14.01,2013-05-18 13:36:00,
2013-05-18 09:37:00,70.1,66.7,30.10,NW,309,1.0,1.0,89,0.00,,---,0.00,VWS V14.01,2013-05-18 13:37:00,
2013-05-18 09:38:00,70.1,66.7,30.10,NW,309,0.0,1.0,89,0.00,,---,0.00,VWS V14.01,2013-05-18 13:38:00,
2013-05-18 09:39:00,70.0,66.3,30.10,NW,309,0.0,1.0,88,0.00,,---,0.00,VWS V14.01,2013-05-18 13:39:00,
2013-05-18 09:40:00,70.1,66.7,30.09,NW,309,0.0,1.0,89,0.00,,---,0.00,VWS V14.01,2013-05-18 13:40:00,
2013-05-18 09:41:00,70.1,66.7,30.09,NW,309,1.0,1.0,89,0.00,,---,0.00,VWS V14.01,2013-05-18 13:41:00,
2013-05-18 09:42:00,70.1,66.7,30.09,NW,309,0.0,1.0,89,0.00,,---,0.00,VWS V14.01,2013-05-18 13:42:00,
2013-05-18 09:43:00,70.1,66.7,30.09,NW,309,0.0,1.0,89,0.00,,---,0.00,VWS V14.01,2013-05-18 13:43:00,
2013-05-18 09:44:00,70.1,66.7,30.09,NW,309,0.0,1.0,89,0.00,,---,0.00,VWS V14.01,2013-05-18 13:44:00,
2013-05-18 09:45:00,70.0,66.6,30.09,NW,309,0.0,1.0,89,0.00,,---,0.00,VWS V14.01,2013-05-18 13:45:00,
2013-05-18 09:46:00,70.0,66.6,30.09,NW,309,0.0,1.0,89,0.00,,---,0.00,VWS V14.01,2013-05-18 13:46:00,
2013-05-18 09:47:00,70.0,66.6,30.09,NW,309,0.0,1.0,89,0.00,,---,0.00,VWS V14.01,2013-05-18 13:47:00,
2013-05-18 09:48:00,70.0,66.6,30.09,NW,309,0.0,1.0,89,0.00,,---,0.00,VWS V14.01,2013-05-18 13:48:00,
2013-05-18 09:49:00,70.0,66.6,30.09,NW,309,0.0,1.0,89,0.00,,---,0.00,VWS V14.01,2013-05-18 13:49:00,
2013-05-18 09:50:00,70.0,66.6,30.09,NW,309,0.0,1.0,89,0.00,,---,0.00,VWS V14.01,2013-05-18 13:50:00,
2013-05-18 09:51:00,70.0,66.6,30.09,NW,309,0.0,1.0,89,0.00,,---,0.00,VWS V14.01,2013-05-18 13:51:00,
2013-05-18 09:52:00,70.0,66.6,30.09,NW,309,0.0,1.0,89,0.00,,---,0.00,VWS V14.01,2013-05-18 13:52:00,
2013-05-18 09:53:00,70.0,66.6,30.09,NW,309,0.0,1.0,89,0.00,,---,0.00,VWS V14.01,2013-05-18 13:53:00,
2013-05-18 09:54:00,70.0,66.6,30.09,NW,309,0.0,1.0,89,0.00,,---,0.00,VWS V14.01,2013-05-18 13:54:00,
2013-05-18 09:55:00,70.0,66.6,30.09,NW,309,0.0,1.0,89,0.00,,---,0.00,VWS V14.01,2013-05-18 13:55:00,
2013-05-18 09:56:00,70.0,66.6,30.09,NW,309,0.0,1.0,89,0.00,,---,0.00,VWS V14.01,2013-05-18 13:56:00,
2013-05-18 09:57:00,70.0,66.6,30.09,NW,309,0.0,1.0,89,0.00,,---,0.00,VWS V14.01,2013-05-18 13:57:00,
2013-05-18 09:58:00,69.9,66.5,30.09,NW,309,0.0,1.0,89,0.00,,---,0.00,VWS V14.01,2013-05-18 13:58:00,
2013-05-18 09:59:00,70.0,66.6,30.09,NW,309,0.0,1.0,89,0.00,,---,0.00,VWS V14.01,2013-05-18 13:59:00,
2013-05-18 10:00:00,70.0,66.6,30.09,NW,309,0.0,1.0,89,0.00,,---,0.00,VWS V14.01,2013-05-18 14:00:00,
2013-05-18 10:01:00,70.0,66.6,30.09,NW,309,0.0,1.0,89,0.00,,---,0.00,VWS V14.01,2013-05-18 14:01:00,
2013-05-18 10:02:00,70.0,66.6,30.09,NW,309,0.0,1.0,89,0.00,,---,0.00,VWS V14.01,2013-05-18 14:02:00,
2013-05-18 10:03:00,69.9,66.5,30.09,NW,309,0.0,1.0,89,0.00,,---,0.00,VWS V14.01,2013-05-18 14:03:00,
2013-05-18 10:04:00,69.9,66.5,30.09,NW,309,0.0,1.0,89,0.00,,---,0.00,VWS V14.01,2013-05-18 14:04:00,
2013-05-18 10:05:00,70.0,66.6,30.09,NW,309,0.0,1.0,89,0.00,,---,0.00,VWS V14.01,2013-05-18 14:05:00,
2013-05-18 10:06:00,70.0,66.6,30.09,NW,309,0.0,1.0,89,0.00,,---,0.00,VWS V14.01,2013-05-18 14:06:00,
2013-05-18 10:07:00,70.0,66.6,30.09,NW,309,0.0,1.0,89,0.00,,---,0.00,VWS V14.01,2013-05-18 14:07:00,
2013-05-18 10:08:00,70.0,66.6,30.09,NW,309,0.0,1.0,89,0.00,,---,0.00,VWS V14.01,2013-05-18 14:08:00,
2013-05-18 10:09:00,70.0,66.3,30.09,NW,309,0.0,1.0,88,0.00,,---,0.00,VWS V14.01,2013-05-18 14:09:00,
2013-05-18 10:10:00,70.0,66.6,30.09,NW,309,0.0,1.0,89,0.00,,---,0.00,VWS V14.01,2013-05-18 14:10:00,
2013-05-18 10:11:00,70.0,66.6,30.09,NW,309,0.0,1.0,89,0.00,,---,0.00,VWS V14.01,2013-05-18 14:11:00,
2013-05-18 10:12:00,70.0,66.3,30.09,NW,309,0.0,1.0,88,0.00,,---,0.00,VWS V14.01,2013-05-18 14:12:00,
2013-05-18 10:13:00,70.0,66.3,30.09,NW,309,0.0,1.0,88,0.00,,---,0.00,VWS V14.01,2013-05-18 14:13:00,
2013-05-18 10:14:00,70.0,66.3,30.09,NW,309,0.0,1.0,88,0.00,,---,0.00,VWS V14.01,2013-05-18 14:14:00,
2013-05-18 10:15:00,70.0,66.3,30.09,NW,309,0.0,1.0,88,0.00,,---,0.00,VWS V14.01,2013-05-18 14:15:00,
2013-05-18 10:16:00,70.0,66.3,30.09,NW,309,0.0,1.0,88,0.00,,---,0.00,VWS V14.01,2013-05-18 14:16:00,
2013-05-18 10:17:00,70.0,66.3,30.09,NW,309,0.0,1.0,88,0.00,,---,0.00,VWS V14.01,2013-05-18 14:17:00,
2013-05-18 10:18:00,70.0,66.3,30.09,NW,309,0.0,1.0,88,0.00,,---,0.00,VWS V14.01,2013-05-18 14:18:00,
2013-05-18 10:19:00,70.0,66.3,30.09,NW,309,0.0,1.0,88,0.00,,---,0.00,VWS V14.01,2013-05-18 14:19:00,
2013-05-18 10:20:00,70.0,66.3,30.09,NW,309,0.0,1.0,88,0.00,,---,0.00,VWS V14.01,2013-05-18 14:20:00,
2013-05-18 10:21:00,70.0,66.3,30.09,NW,309,0.0,1.0,88,0.00,,---,0.00,VWS V14.01,2013-05-18 14:21:00,
2013-05-18 10:22:00,69.9,66.2,30.09,NW,309,0.0,1.0,88,0.00,,---,0.00,VWS V14.01,2013-05-18 14:22:00,
2013-05-18 10:23:00,70.0,66.3,30.09,NW,309,0.0,3.0,88,0.00,,---,0.00,VWS V14.01,2013-05-18 14:23:00,
2013-05-18 10:24:00,70.0,66.3,30.09,NW,309,0.0,3.0,88,0.00,,---,0.00,VWS V14.01,2013-05-18 14:24:00,
2013-05-18 10:25:00,70.0,66.3,30.09,NW,309,0.0,3.0,88,0.00,,---,0.00,VWS V14.01,2013-05-18 14:25:00,
2013-05-18 10:26:00,70.0,66.3,30.09,NW,309,0.0,3.0,88,0.00,,---,0.00,VWS V14.01,2013-05-18 14:26:00,
2013-05-18 10:27:00,70.0,66.3,30.09,NW,309,0.0,3.0,88,0.00,,---,0.00,VWS V14.01,2013-05-18 14:27:00,
2013-05-18 10:28:00,70.0,66.3,30.09,NW,309,0.0,3.0,88,0.00,,---,0.00,VWS V14.01,2013-05-18 14:28:00,
2013-05-18 10:29:00,69.9,66.2,30.09,NW,309,0.0,3.0,88,0.00,,---,0.00,VWS V14.01,2013-05-18 14:29:00,
2013-05-18 10:30:00,70.0,66.3,30.09,NW,309,0.0,0.0,88,0.00,,---,0.00,VWS V14.01,2013-05-18 14:30:00,
2013-05-18 10:31:00,70.0,66.3,30.09,NW,309,0.0,0.0,88,0.00,,---,0.00,VWS V14.01,2013-05-18 14:31:00,
2013-05-18 10:32:00,70.0,66.3,30.09,NW,309,0.0,0.0,88,0.00,,---,0.00,VWS V14.01,2013-05-18 14:32:00,
2013-05-18 10:33:00,69.9,66.2,30.09,NW,309,0.0,0.0,88,0.00,,---,0.00,VWS V14.01,2013-05-18 14:33:00,
2013-05-18 10:34:00,70.0,66.3,30.09,NW,309,0.0,0.0,88,0.00,,---,0.00,VWS V14.01,2013-05-18 14:34:00,
2013-05-18 10:35:00,69.9,66.2,30.09,NW,309,0.0,0.0,88,0.00,,---,0.00,VWS V14.01,2013-05-18 14:35:00,
2013-05-18 10:36:00,69.9,66.2,30.09,NW,309,0.0,0.0,88,0.00,,---,0.00,VWS V14.01,2013-05-18 14:36:00,
2013-05-18 10:37:00,69.9,66.2,30.09,NW,309,0.0,0.0,88,0.00,,---,0.00,VWS V14.01,2013-05-18 14:37:00,
2013-05-18 10:38:00,69.9,66.2,30.09,NW,309,0.0,0.0,88,0.00,,---,0.00,VWS V14.01,2013-05-18 14:38:00,
2013-05-18 10:39:00,69.9,66.2,30.08,NW,309,0.0,0.0,88,0.00,,---,0.00,VWS V14.01,2013-05-18 14:39:00,
2013-05-18 10:40:00,69.9,66.2,30.08,NW,309,0.0,1.0,88,0.00,,---,0.00,VWS V14.01,2013-05-18 14:40:00,
2013-05-18 10:41:00,69.9,66.2,30.08,NW,309,0.0,1.0,88,0.00,,---,0.00,VWS V14.01,2013-05-18 14:41:00,
2013-05-18 10:42:00,69.9,66.2,30.08,NW,309,0.0,1.0,88,0.00,,---,0.00,VWS V14.01,2013-05-18 14:42:00,
2013-05-18 10:43:00,69.9,66.2,30.08,NW,309,0.0,1.0,88,0.00,,---,0.00,VWS V14.01,2013-05-18 14:43:00,
2013-05-18 10:44:00,69.9,66.2,30.09,NW,309,0.0,1.0,88,0.00,,---,0.00,VWS V14.01,2013-05-18 14:44:00,
2013-05-18 10:45:00,69.9,66.5,30.09,NW,309,0.0,1.0,89,0.00,,---,0.00,VWS V14.01,2013-05-18 14:45:00,
2013-05-18 10:46:00,69.9,66.5,30.08,NW,309,0.0,1.0,89,0.00,,---,0.00,VWS V14.01,2013-05-18 14:46:00,
2013-05-18 10:47:00,69.9,66.5,30.08,NW,309,0.0,1.0,89,0.00,,---,0.00,VWS V14.01,2013-05-18 14:47:00,
2013-05-18 10:48:00,69.9,66.5,30.08,NW,309,0.0,1.0,89,0.00,,---,0.00,VWS V14.01,2013-05-18 14:48:00,
2013-05-18 10:49:00,69.9,66.5,30.08,NW,309,0.0,1.0,89,0.00,,---,0.00,VWS V14.01,2013-05-18 14:49:00,
2013-05-18 10:50:00,69.9,66.5,30.08,NW,309,0.0,1.0,89,0.00,,---,0.00,VWS V14.01,2013-05-18 14:50:00,
2013-05-18 10:51:00,69.9,66.5,30.08,NW,309,0.0,1.0,89,0.00,,---,0.00,VWS V14.01,2013-05-18 14:51:00,
2013-05-18 10:52:00,69.9,66.5,30.08,NW,309,0.0,1.0,89,0.00,,---,0.00,VWS V14.01,2013-05-18 14:52:00,
2013-05-18 10:53:00,69.8,66.4,30.09,NW,309,0.0,1.0,89,0.00,,---,0.00,VWS V14.01,2013-05-18 14:53:00,
2013-05-18 10:54:00,69.9,66.5,30.09,NW,309,0.0,1.0,89,0.00,,---,0.00,VWS V14.01,2013-05-18 14:54:00,
2013-05-18 10:55:00,69.9,66.5,30.08,NW,309,0.0,1.0,89,0.00,,---,0.00,VWS V14.01,2013-05-18 14:55:00,
2013-05-18 10:56:00,69.8,66.4,30.08,NW,309,0.0,1.0,89,0.00,,---,0.00,VWS V14.01,2013-05-18 14:56:00,
2013-05-18 10:57:00,69.8,66.4,30.09,NW,309,0.0,1.0,89,0.00,,---,0.00,VWS V14.01,2013-05-18 14:57:00,
2013-05-18 10:58:00,69.8,66.4,30.09,NW,309,0.0,1.0,89,0.00,,---,0.00,VWS V14.01,2013-05-18 14:58:00,
2013-05-18 10:59:00,69.8,66.4,30.09,NW,309,0.0,1.0,89,0.00,,---,0.00,VWS V14.01,2013-05-18 14:59:00,
2013-05-18 11:00:00,69.8,66.4,30.09,NW,309,0.0,1.0,89,0.00,,---,0.00,VWS V14.01,2013-05-18 15:00:00,
2013-05-18 11:01:00,69.8,66.4,30.09,NW,309,0.0,0.0,89,0.00,,---,0.00,VWS V14.01,2013-05-18 15:01:00,
2013-05-18 11:02:00,69.8,66.4,30.09,NW,309,0.0,0.0,89,0.00,,---,0.00,VWS V14.01,2013-05-18 15:02:00,
2013-05-18 11:03:00,69.8,66.4,30.09,NW,309,0.0,0.0,89,0.00,,---,0.00,VWS V14.01,2013-05-18 15:03:00,
2013-05-18 11:04:00,69.8,66.4,30.09,NW,309,0.0,0.0,89,0.00,,---,0.00,VWS V14.01,2013-05-18 15:04:00,
2013-05-18 11:05:00,69.8,66.4,30.09,NW,309,0.0,0.0,89,0.00,,---,0.00,VWS V14.01,2013-05-18 15:05:00,
2013-05-18 11:06:00,69.8,66.4,30.09,NW,309,0.0,0.0,89,0.00,,---,0.00,VWS V14.01,2013-05-18 15:06:00,
2013-05-18 11:07:00,69.8,66.4,30.09,NW,309,0.0,0.0,89,0.00,,---,0.00,VWS V14.01,2013-05-18 15:07:00,
2013-05-18 11:08:00,69.8,66.4,30.09,NW,309,0.0,0.0,89,0.00,,---,0.00,VWS V14.01,2013-05-18 15:08:00,
2013-05-18 11:09:00,69.8,66.4,30.09,NW,309,0.0,0.0,89,0.00,,---,0.00,VWS V14.01,2013-05-18 15:09:00,
2013-05-18 11:10:00,69.8,66.4,30.09,NW,309,0.0,0.0,89,0.00,,---,0.00,VWS V14.01,2013-05-18 15:10:00,
2013-05-18 11:11:00,69.7,66.3,30.09,NW,309,0.0,0.0,89,0.00,,---,0.00,VWS V14.01,2013-05-18 15:11:00,
2013-05-18 11:12:00,69.8,66.4,30.09,NW,309,0.0,1.0,89,0.00,,---,0.00,VWS V14.01,2013-05-18 15:12:00,
2013-05-18 11:13:00,69.7,66.3,30.09,NW,309,0.0,1.0,89,0.00,,---,0.00,VWS V14.01,2013-05-18 15:13:00,
2013-05-18 11:14:00,69.8,66.4,30.09,NW,309,0.0,1.0,89,0.00,,---,0.00,VWS V14.01,2013-05-18 15:14:00,
2013-05-18 11:15:00,69.7,66.3,30.09,NW,309,0.0,1.0,89,0.00,,---,0.00,VWS V14.01,2013-05-18 15:15:00,
2013-05-18 11:16:00,69.7,66.3,30.09,NW,309,0.0,1.0,89,0.00,,---,0.00,VWS V14.01,2013-05-18 15:16:00,
2013-05-18 11:17:00,69.7,66.3,30.09,NW,309,0.0,1.0,89,0.00,,---,0.00,VWS V14.01,2013-05-18 15:17:00,
2013-05-18 11:18:00,69.7,66.3,30.09,NW,309,0.0,1.0,89,0.00,,---,0.00,VWS V14.01,2013-05-18 15:18:00,
2013-05-18 11:19:00,69.7,66.3,30.09,NW,309,0.0,1.0,89,0.00,,---,0.00,VWS V14.01,2013-05-18 15:19:00,
2013-05-18 11:20:00,69.7,66.3,30.09,NW,309,0.0,1.0,89,0.00,,---,0.00,VWS V14.01,2013-05-18 15:20:00,
2013-05-18 11:21:00,69.7,66.3,30.09,NW,309,0.0,1.0,89,0.00,,---,0.00,VWS V14.01,2013-05-18 15:21:00,
2013-05-18 11:22:00,69.7,66.3,30.09,NW,309,0.0,1.0,89,0.00,,---,0.00,VWS V14.01,2013-05-18 15:22:00,
2013-05-18 11:23:00,69.7,66.3,30.09,NW,309,0.0,1.0,89,0.00,,---,0.00,VWS V14.01,2013-05-18 15:23:00,
2013-05-18 11:24:00,69.7,66.3,30.09,NW,309,0.0,1.0,89,0.00,,---,0.00,VWS V14.01,2013-05-18 15:24:00,
2013-05-18 11:25:00,69.7,66.3,30.09,NW,309,0.0,1.0,89,0.00,,---,0.00,VWS V14.01,2013-05-18 15:25:00,
2013-05-18 11:26:00,69.7,66.3,30.09,NW,309,0.0,1.0,89,0.00,,---,0.00,VWS V14.01,2013-05-18 15:26:00,
2013-05-18 11:27:00,69.7,66.3,30.09,NW,309,0.0,1.0,89,0.00,,---,0.00,VWS V14.01,2013-05-18 15:27:00,
2013-05-18 11:28:00,69.7,66.3,30.09,NW,309,0.0,1.0,89,0.00,,---,0.00,VWS V14.01,2013-05-18 15:28:00,
2013-05-18 11:29:00,69.7,66.3,30.09,NW,309,0.0,1.0,89,0.00,,---,0.00,VWS V14.01,2013-05-18 15:29:00,
2013-05-18 11:30:00,69.7,66.3,30.09,NW,309,0.0,1.0,89,0.00,,---,0.00,VWS V14.01,2013-05-18 15:30:00,
2013-05-18 11:31:00,69.7,66.3,30.09,NW,309,0.0,0.0,89,0.00,,---,0.00,VWS V14.01,2013-05-18 15:31:00,
2013-05-18 11:32:00,69.7,66.3,30.09,NW,309,0.0,0.0,89,0.00,,---,0.00,VWS V14.01,2013-05-18 15:32:00,
2013-05-18 11:33:00,69.7,66.3,30.09,NW,309,0.0,0.0,89,0.00,,---,0.00,VWS V14.01,2013-05-18 15:33:00,
2013-05-18 11:34:00,69.6,66.2,30.09,NW,309,0.0,0.0,89,0.00,,---,0.00,VWS V14.01,2013-05-18 15:34:00,
2013-05-18 11:35:00,69.7,66.3,30.09,NW,309,0.0,0.0,89,0.00,,---,0.00,VWS V14.01,2013-05-18 15:35:00,
2013-05-18 11:36:00,69.6,66.2,30.09,NW,309,0.0,0.0,89,0.00,,---,0.00,VWS V14.01,2013-05-18 15:36:00,
2013-05-18 11:37:00,69.6,66.2,30.09,NW,309,0.0,0.0,89,0.00,,---,0.00,VWS V14.01,2013-05-18 15:37:00,
2013-05-18 11:38:00,69.6,66.2,30.09,NW,309,0.0,0.0,89,0.00,,---,0.00,VWS V14.01,2013-05-18 15:38:00,
2013-05-18 11:39:00,69.6,66.2,30.09,NW,309,0.0,0.0,89,0.00,,---,0.00,VWS V14.01,2013-05-18 15:39:00,
2013-05-18 11:40:00,69.6,66.2,30.09,NW,309,0.0,0.0,89,0.00,,---,0.00,VWS V14.01,2013-05-18 15:40:00,
2013-05-18 11:41:00,69.6,66.2,30.09,NW,309,0.0,0.0,89,0.00,,---,0.00,VWS V14.01,2013-05-18 15:41:00,
2013-05-18 11:42:00,69.6,66.2,30.09,NW,309,0.0,1.0,89,0.00,,---,0.00,VWS V14.01,2013-05-18 15:42:00,
2013-05-18 11:43:00,69.6,66.2,30.08,NW,309,0.0,1.0,89,0.00,,---,0.00,VWS V14.01,2013-05-18 15:43:00,
2013-05-18 11:44:00,69.6,66.2,30.08,NW,309,0.0,1.0,89,0.00,,---,0.00,VWS V14.01,2013-05-18 15:44:00,
2013-05-18 11:45:00,69.6,66.2,30.08,NW,309,0.0,1.0,89,0.00,,---,0.00,VWS V14.01,2013-05-18 15:45:00,
2013-05-18 11:46:00,69.6,66.2,30.08,NW,309,0.0,1.0,89,0.00,,---,0.00,VWS V14.01,2013-05-18 15:46:00,
2013-05-18 11:47:00,69.6,66.2,30.08,NW,309,0.0,1.0,89,0.00,,---,0.00,VWS V14.01,2013-05-18 15:47:00,
2013-05-18 11:48:00,69.6,66.2,30.08,NW,309,0.0,1.0,89,0.00,,---,0.00,VWS V14.01,2013-05-18 15:48:00,
2013-05-18 11:49:00,69.6,66.2,30.08,NW,309,0.0,1.0,89,0.00,,---,0.00,VWS V14.01,2013-05-18 15:49:00,
2013-05-18 11:50:00,69.6,66.2,30.08,NW,309,0.0,1.0,89,0.00,,---,0.00,VWS V14.01,2013-05-18 15:50:00,
2013-05-18 11:51:00,69.6,66.2,30.08,NW,309,0.0,1.0,89,0.00,,---,0.00,VWS V14.01,2013-05-18 15:51:00,
2013-05-18 11:52:00,69.6,66.2,30.09,NW,309,0.0,1.0,89,0.00,,---,0.00,VWS V14.01,2013-05-18 15:52:00,
2013-05-18 11:53:00,69.6,66.2,30.09,NW,309,0.0,1.0,89,0.00,,---,0.00,VWS V14.01,2013-05-18 15:53:00,
2013-05-18 11:54:00,69.6,66.2,30.08,NW,309,0.0,1.0,89,0.00,,---,0.00,VWS V14.01,2013-05-18 15:54:00,
2013-05-18 11:55:00,69.6,66.2,30.09,NW,309,0.0,1.0,89,0.00,,---,0.00,VWS V14.01,2013-05-18 15:55:00,
2013-05-18 11:56:00,69.6,66.2,30.09,NW,309,0.0,1.0,89,0.00,,---,0.00,VWS V14.01,2013-05-18 15:56:00,
2013-05-18 11:57:00,69.6,66.2,30.09,NW,309,0.0,1.0,89,0.00,,---,0.00,VWS V14.01,2013-05-18 15:57:00,
2013-05-18 11:58:00,69.5,66.1,30.09,NW,309,0.0,1.0,89,0.00,,---,0.00,VWS V14.01,2013-05-18 15:58:00,
2013-05-18 11:59:00,69.5,66.1,30.09,NW,309,0.0,1.0,89,0.00,,---,0.00,VWS V14.01,2013-05-18 15:59:00,
2013-05-18 12:00:00,69.5,66.1,30.09,NW,309,0.0,1.0,89,0.00,,---,0.00,VWS V14.01,2013-05-18 16:00:00,
2013-05-18 12:01:00,69.5,66.1,30.09,NW,309,0.0,0.0,89,0.00,,---,0.00,VWS V14.01,2013-05-18 16:01:00,
2013-05-18 12:02:00,69.5,66.1,30.09,NW,309,0.0,0.0,89,0.00,,---,0.00,VWS V14.01,2013-05-18 16:02:00,
2013-05-18 12:03:00,69.5,66.1,30.09,NW,309,0.0,0.0,89,0.00,,---,0.00,VWS V14.01,2013-05-18 16:03:00,
2013-05-18 12:04:00,69.5,66.1,30.09,NW,309,0.0,0.0,89,0.00,,---,0.00,VWS V14.01,2013-05-18 16:04:00,
2013-05-18 12:05:00,69.5,66.1,30.09,NW,309,0.0,0.0,89,0.00,,---,0.00,VWS V14.01,2013-05-18 16:05:00,
2013-05-18 12:06:00,69.5,66.1,30.09,NW,309,0.0,0.0,89,0.00,,---,0.00,VWS V14.01,2013-05-18 16:06:00,
2013-05-18 12:07:00,69.5,66.1,30.09,NW,309,0.0,0.0,89,0.00,,---,0.00,VWS V14.01,2013-05-18 16:07:00,
2013-05-18 12:08:00,69.5,66.1,30.09,NW,309,0.0,0.0,89,0.00,,---,0.00,VWS V14.01,2013-05-18 16:08:00,
2013-05-18 12:09:00,69.5,66.1,30.09,NW,309,0.0,0.0,89,0.00,,---,0.00,VWS V14.01,2013-05-18 16:09:00,
2013-05-18 12:10:00,69.5,66.1,30.09,NW,309,0.0,0.0,89,0.00,,---,0.00,VWS V14.01,2013-05-18 16:10:00,
2013-05-18 12:11:00,69.5,66.1,30.09,NW,309,0.0,0.0,89,0.00,,---,0.00,VWS V14.01,2013-05-18 16:11:00,
2013-05-18 12:12:00,69.5,66.1,30.09,NW,309,0.0,0.0,89,0.00,,---,0.00,VWS V14.01,2013-05-18 16:12:00,
2013-05-18 12:13:00,69.5,66.1,30.09,NW,309,0.0,0.0,89,0.00,,---,0.00,VWS V14.01,2013-05-18 16:13:00,
2013-05-18 12:14:00,69.5,66.1,30.09,NW,309,0.0,0.0,89,0.00,,---,0.00,VWS V14.01,2013-05-18 16:14:00,
2013-05-18 12:15:00,69.5,66.1,30.09,NW,309,0.0,0.0,89,0.00,,---,0.00,VWS V14.01,2013-05-18 16:15:00,
2013-05-18 12:16:00,69.5,66.1,30.10,NW,309,0.0,0.0,89,0.00,,---,0.00,VWS V14.01,2013-05-18 16:16:00,
2013-05-18 12:17:00,69.5,66.1,30.10,NW,309,0.0,0.0,89,0.00,,---,0.00,VWS V14.01,2013-05-18 16:17:00,
2013-05-18 12:18:00,69.5,66.4,30.10,NW,309,0.0,0.0,90,0.00,,---,0.00,VWS V14.01,2013-05-18 16:18:00,
2013-05-18 12:19:00,69.5,66.4,30.10,NW,309,0.0,0.0,90,0.00,,---,0.00,VWS V14.01,2013-05-18 16:19:00,
2013-05-18 12:20:00,69.5,66.4,30.10,NW,309,0.0,0.0,90,0.00,,---,0.00,VWS V14.01,2013-05-18 16:20:00,
2013-05-18 12:21:00,69.4,66.3,30.10,NW,309,0.0,0.0,90,0.00,,---,0.00,VWS V14.01,2013-05-18 16:21:00,
2013-05-18 12:22:00,69.4,66.3,30.10,NW,309,0.0,0.0,90,0.00,,---,0.00,VWS V14.01,2013-05-18 16:22:00,
2013-05-18 12:23:00,69.4,66.3,30.10,NW,309,0.0,0.0,90,0.00,,---,0.00,VWS V14.01,2013-05-18 16:23:00,
2013-05-18 12:24:00,69.4,66.3,30.10,NW,309,0.0,0.0,90,0.00,,---,0.00,VWS V14.01,2013-05-18 16:24:00,
2013-05-18 12:25:00,69.4,66.3,30.10,NW,309,0.0,0.0,90,0.00,,---,0.00,VWS V14.01,2013-05-18 16:25:00,
2013-05-18 12:26:00,69.4,66.3,30.10,NW,309,0.0,0.0,90,0.00,,---,0.00,VWS V14.01,2013-05-18 16:26:00,
2013-05-18 12:27:00,69.4,66.3,30.10,NW,309,0.0,0.0,90,0.00,,---,0.00,VWS V14.01,2013-05-18 16:27:00,
2013-05-18 12:28:00,69.4,66.3,30.10,NW,309,0.0,0.0,90,0.00,,---,0.00,VWS V14.01,2013-05-18 16:28:00,
2013-05-18 12:29:00,69.4,66.3,30.10,NW,309,0.0,0.0,90,0.00,,---,0.00,VWS V14.01,2013-05-18 16:29:00,
2013-05-18 12:30:00,69.4,66.3,30.10,NW,309,0.0,0.0,90,0.00,,---,0.00,VWS V14.01,2013-05-18 16:30:00,
2013-05-18 12:31:00,69.3,66.2,30.10,NW,309,0.0,0.0,90,0.00,,---,0.00,VWS V14.01,2013-05-18 16:31:00,
2013-05-18 12:32:00,69.3,66.2,30.10,NW,309,0.0,0.0,90,0.00,,---,0.00,VWS V14.01,2013-05-18 16:32:00,
2013-05-18 12:33:00,69.3,66.2,30.10,NW,309,0.0,0.0,90,0.00,,---,0.00,VWS V14.01,2013-05-18 16:33:00,
2013-05-18 12:34:00,69.3,66.2,30.10,NW,309,0.0,0.0,90,0.00,,---,0.00,VWS V14.01,2013-05-18 16:34:00,
2013-05-18 12:35:00,69.3,66.2,30.10,NW,309,0.0,1.0,90,0.00,,---,0.00,VWS V14.01,2013-05-18 16:35:00,
2013-05-18 12:36:00,69.3,66.2,30.10,NW,309,0.0,1.0,90,0.00,,---,0.00,VWS V14.01,2013-05-18 16:36:00,
2013-05-18 12:37:00,69.2,66.2,30.10,NW,309,0.0,1.0,90,0.00,,---,0.00,VWS V14.01,2013-05-18 16:37:00,
2013-05-18 12:38:00,69.2,66.2,30.10,NW,309,0.0,1.0,90,0.00,,---,0.00,VWS V14.01,2013-05-18 16:38:00,
2013-05-18 12:39:00,69.2,66.2,30.10,NW,309,0.0,1.0,90,0.00,,---,0.00,VWS V14.01,2013-05-18 16:39:00,
2013-05-18 12:40:00,69.2,66.2,30.10,NW,309,0.0,1.0,90,0.00,,---,0.00,VWS V14.01,2013-05-18 16:40:00,
2013-05-18 12:41:00,69.2,66.2,30.10,NW,309,0.0,1.0,90,0.00,,---,0.00,VWS V14.01,2013-05-18 16:41:00,
2013-05-18 12:42:00,69.2,66.2,30.10,NW,309,0.0,1.0,90,0.00,,---,0.00,VWS V14.01,2013-05-18 16:42:00,
2013-05-18 12:43:00,69.2,66.2,30.10,NW,309,0.0,1.0,90,0.00,,---,0.00,VWS V14.01,2013-05-18 16:43:00,
2013-05-18 12:44:00,69.2,66.2,30.10,NW,309,0.0,1.0,90,0.00,,---,0.00,VWS V14.01,2013-05-18 16:44:00,
2013-05-18 12:45:00,69.2,66.2,30.10,NW,309,0.0,1.0,90,0.00,,---,0.00,VWS V14.01,2013-05-18 16:45:00,
2013-05-18 12:46:00,69.2,66.2,30.10,NW,309,0.0,1.0,90,0.00,,---,0.00,VWS V14.01,2013-05-18 16:46:00,
2013-05-18 12:47:00,69.2,66.2,30.10,NW,309,0.0,1.0,90,0.00,,---,0.00,VWS V14.01,2013-05-18 16:47:00,
2013-05-18 12:48:00,69.2,66.2,30.10,NW,309,0.0,1.0,90,0.00,,---,0.00,VWS V14.01,2013-05-18 16:48:00,
2013-05-18 12:49:00,69.2,66.2,30.10,NW,309,0.0,1.0,90,0.00,,---,0.00,VWS V14.01,2013-05-18 16:49:00,
2013-05-18 12:50:00,69.2,66.5,30.10,NW,309,0.0,1.0,91,0.00,,---,0.00,VWS V14.01,2013-05-18 16:50:00,
2013-05-18 12:51:00,69.1,66.4,30.10,NW,309,0.0,1.0,91,0.00,,---,0.00,VWS V14.01,2013-05-18 16:51:00,
2013-05-18 12:52:00,69.1,66.4,30.10,NW,309,0.0,1.0,91,0.00,,---,0.00,VWS V14.01,2013-05-18 16:52:00,
2013-05-18 12:53:00,69.1,66.4,30.10,NW,309,0.0,1.0,91,0.00,,---,0.00,VWS V14.01,2013-05-18 16:53:00,
2013-05-18 12:54:00,69.1,66.4,30.10,NW,309,0.0,1.0,91,0.00,,---,0.00,VWS V14.01,2013-05-18 16:54:00,
2013-05-18 12:55:00,69.1,66.4,30.10,NW,309,0.0,1.0,91,0.00,,---,0.00,VWS V14.01,2013-05-18 16:55:00,
2013-05-18 12:56:00,69.1,66.4,30.10,NW,309,0.0,1.0,91,0.00,,---,0.00,VWS V14.01,2013-05-18 16:56:00,
2013-05-18 12:57:00,69.1,66.4,30.10,NW,309,0.0,1.0,91,0.00,,---,0.00,VWS V14.01,2013-05-18 16:57:00,
2013-05-18 12:58:00,69.1,66.4,30.10,NW,309,0.0,1.0,91,0.00,,---,0.00,VWS V14.01,2013-05-18 16:58:00,
2013-05-18 12:59:00,69.1,66.4,30.10,NW,309,0.0,1.0,91,0.00,,---,0.00,VWS V14.01,2013-05-18 16:59:00,
2013-05-18 13:00:00,69.0,66.3,30.10,NW,309,0.0,1.0,91,0.00,,---,0.00,VWS V14.01,2013-05-18 17:00:00,
2013-05-18 13:01:00,69.0,66.3,30.10,NW,309,0.0,0.0,91,0.00,,---,0.00,VWS V14.01,2013-05-18 17:01:00,
2013-05-18 13:02:00,69.0,66.3,30.10,NW,309,0.0,0.0,91,0.00,,---,0.00,VWS V14.01,2013-05-18 17:02:00,
2013-05-18 13:03:00,69.0,66.3,30.10,NW,309,0.0,0.0,91,0.00,,---,0.00,VWS V14.01,2013-05-18 17:03:00,
2013-05-18 13:04:00,69.0,66.3,30.10,NW,309,0.0,0.0,91,0.00,,---,0.00,VWS V14.01,2013-05-18 17:04:00,
2013-05-18 13:05:00,69.0,66.3,30.10,NW,309,0.0,0.0,91,0.00,,---,0.00,VWS V14.01,2013-05-18 17:05:00,
2013-05-18 13:06:00,69.0,66.3,30.10,NW,309,0.0,0.0,91,0.00,,---,0.00,VWS V14.01,2013-05-18 17:06:00,
2013-05-18 13:07:00,69.0,66.3,30.10,NW,309,0.0,0.0,91,0.00,,---,0.00,VWS V14.01,2013-05-18 17:07:00,
2013-05-18 13:08:00,69.0,66.3,30.10,NW,309,0.0,1.0,91,0.00,,---,0.00,VWS V14.01,2013-05-18 17:08:00,
2013-05-18 13:09:00,69.0,66.3,30.10,NW,309,0.0,1.0,91,0.00,,---,0.00,VWS V14.01,2013-05-18 17:09:00,
2013-05-18 13:10:00,69.0,66.3,30.10,NW,309,0.0,1.0,91,0.00,,---,0.00,VWS V14.01,2013-05-18 17:10:00,
2013-05-18 13:11:00,69.0,66.3,30.10,NW,309,0.0,1.0,91,0.00,,---,0.00,VWS V14.01,2013-05-18 17:11:00,
2013-05-18 13:12:00,69.0,66.3,30.10,NW,309,0.0,1.0,91,0.00,,---,0.00,VWS V14.01,2013-05-18 17:12:00,
2013-05-18 13:13:00,69.0,66.3,30.10,NW,309,0.0,1.0,91,0.00,,---,0.00,VWS V14.01,2013-05-18 17:13:00,
2013-05-18 13:14:00,69.0,66.3,30.10,NW,309,0.0,1.0,91,0.00,,---,0.00,VWS V14.01,2013-05-18 17:14:00,
2013-05-18 13:15:00,69.0,66.3,30.10,NW,309,0.0,1.0,91,0.00,,---,0.00,VWS V14.01,2013-05-18 17:15:00,
2013-05-18 13:16:00,69.0,66.3,30.10,NW,309,0.0,1.0,91,0.00,,---,0.00,VWS V14.01,2013-05-18 17:16:00,
2013-05-18 13:17:00,69.0,66.3,30.10,NW,309,0.0,1.0,91,0.00,,---,0.00,VWS V14.01,2013-05-18 17:17:00,
2013-05-18 13:18:00,69.0,66.3,30.10,NW,309,0.0,3.0,91,0.00,,---,0.00,VWS V14.01,2013-05-18 17:18:00,
2013-05-18 13:19:00,69.0,66.3,30.10,NW,309,0.0,3.0,91,0.00,,---,0.00,VWS V14.01,2013-05-18 17:19:00,
2013-05-18 13:20:00,69.0,66.3,30.11,NW,309,0.0,3.0,91,0.00,,---,0.00,VWS V14.01,2013-05-18 17:20:00,
2013-05-18 13:21:00,69.0,66.3,30.11,NW,309,0.0,3.0,91,0.00,,---,0.00,VWS V14.01,2013-05-18 17:21:00,
2013-05-18 13:22:00,69.0,66.3,30.11,NW,309,0.0,3.0,91,0.00,,---,0.00,VWS V14.01,2013-05-18 17:22:00,
2013-05-18 13:23:00,69.0,66.3,30.11,NW,309,0.0,3.0,91,0.00,,---,0.00,VWS V14.01,2013-05-18 17:23:00,
2013-05-18 13:24:00,69.0,66.3,30.11,NW,309,0.0,3.0,91,0.00,,---,0.00,VWS V14.01,2013-05-18 17:24:00,
2013-05-18 13:25:00,69.0,66.3,30.11,NW,309,0.0,3.0,91,0.00,,---,0.00,VWS V14.01,2013-05-18 17:25:00,
2013-05-18 13:26:00,69.0,66.3,30.11,NW,309,0.0,3.0,91,0.00,,---,0.00,VWS V14.01,2013-05-18 17:26:00,
2013-05-18 13:27:00,69.0,66.3,30.11,NW,309,0.0,3.0,91,0.00,,---,0.00,VWS V14.01,2013-05-18 17:27:00,
2013-05-18 13:28:00,69.0,66.3,30.11,NW,309,0.0,3.0,91,0.00,,---,0.00,VWS V14.01,2013-05-18 17:28:00,
2013-05-18 13:29:00,69.0,66.3,30.11,NW,309,0.0,3.0,91,0.00,,---,0.00,VWS V14.01,2013-05-18 17:29:00,
2013-05-18 13:30:00,69.0,66.3,30.11,NW,309,0.0,0.0,91,0.00,,---,0.00,VWS V14.01,2013-05-18 17:30:00,
2013-05-18 13:31:00,69.0,66.3,30.11,NW,309,0.0,0.0,91,0.00,,---,0.00,VWS V14.01,2013-05-18 17:31:00,
2013-05-18 13:32:00,69.0,66.3,30.11,NW,309,0.0,0.0,91,0.00,,---,0.00,VWS V14.01,2013-05-18 17:32:00,
2013-05-18 13:33:00,69.0,66.3,30.11,NW,309,0.0,0.0,91,0.00,,---,0.00,VWS V14.01,2013-05-18 17:33:00,
2013-05-18 13:34:00,69.0,66.3,30.11,NW,309,0.0,0.0,91,0.00,,---,0.00,VWS V14.01,2013-05-18 17:34:00,
2013-05-18 13:35:00,69.0,66.3,30.11,NW,309,0.0,0.0,91,0.00,,---,0.00,VWS V14.01,2013-05-18 17:35:00,
2013-05-18 13:36:00,69.1,66.4,30.11,NW,309,0.0,0.0,91,0.00,,---,0.00,VWS V14.01,2013-05-18 17:36:00,
2013-05-18 13:37:00,69.1,66.4,30.11,NW,309,0.0,0.0,91,0.00,,---,0.00,VWS V14.01,2013-05-18 17:37:00,
2013-05-18 13:38:00,69.1,66.4,30.11,NW,309,0.0,1.0,91,0.00,,---,0.00,VWS V14.01,2013-05-18 17:38:00,
2013-05-18 13:39:00,69.1,66.4,30.11,NW,309,0.0,1.0,91,0.00,,---,0.00,VWS V14.01,2013-05-18 17:39:00,
2013-05-18 13:40:00,69.1,66.7,30.11,NW,309,0.0,1.0,92,0.00,,---,0.00,VWS V14.01,2013-05-18 17:40:00,
2013-05-18 13:41:00,69.1,66.7,30.11,NW,309,0.0,1.0,92,0.00,,---,0.00,VWS V14.01,2013-05-18 17:41:00,
2013-05-18 13:42:00,69.1,66.7,30.11,NW,309,0.0,1.0,92,0.00,,---,0.00,VWS V14.01,2013-05-18 17:42:00,
2013-05-18 13:43:00,69.1,66.7,30.11,NW,309,0.0,1.0,92,0.00,,---,0.00,VWS V14.01,2013-05-18 17:43:00,
2013-05-18 13:44:00,69.2,66.8,30.11,NW,309,0.0,1.0,92,0.00,,---,0.00,VWS V14.01,2013-05-18 17:44:00,
2013-05-18 13:45:00,69.2,66.8,30.11,NW,309,0.0,1.0,92,0.00,,---,0.00,VWS V14.01,2013-05-18 17:45:00,
2013-05-18 13:46:00,69.2,66.8,30.11,NW,309,0.0,1.0,92,0.00,,---,0.00,VWS V14.01,2013-05-18 17:46:00,
2013-05-18 13:47:00,69.2,66.8,30.12,NW,309,0.0,1.0,92,0.00,,---,0.00,VWS V14.01,2013-05-18 17:47:00,
2013-05-18 13:48:00,69.2,66.8,30.12,NW,309,0.0,1.0,92,0.00,,---,0.00,VWS V14.01,2013-05-18 17:48:00,
2013-05-18 13:49:00,69.2,66.8,30.12,NW,309,0.0,1.0,92,0.00,,---,0.00,VWS V14.01,2013-05-18 17:49:00,
2013-05-18 13:50:00,69.3,66.9,30.12,NW,309,0.0,1.0,92,0.00,,---,0.00,VWS V14.01,2013-05-18 17:50:00,
2013-05-18 13:51:00,69.3,66.9,30.12,NW,309,0.0,1.0,92,0.00,,---,0.00,VWS V14.01,2013-05-18 17:51:00,
2013-05-18 13:52:00,69.3,66.9,30.12,NW,309,0.0,1.0,92,0.00,,---,0.00,VWS V14.01,2013-05-18 17:52:00,
2013-05-18 13:53:00,69.3,66.9,30.12,NW,309,0.0,1.0,92,0.00,,---,0.00,VWS V14.01,2013-05-18 17:53:00,
2013-05-18 13:54:00,69.4,67.0,30.12,NW,309,0.0,1.0,92,0.00,,---,0.00,VWS V14.01,2013-05-18 17:54:00,
2013-05-18 13:55:00,69.4,67.0,30.12,NW,309,0.0,1.0,92,0.00,,---,0.00,VWS V14.01,2013-05-18 17:55:00,
2013-05-18 13:56:00,69.4,67.0,30.12,NW,309,0.0,1.0,92,0.00,,---,0.00,VWS V14.01,2013-05-18 17:56:00,
2013-05-18 13:57:00,69.5,67.1,30.12,NW,309,3.0,3.0,92,0.00,,---,0.00,VWS V14.01,2013-05-18 17:57:00,
2013-05-18 13:58:00,69.5,67.1,30.12,NW,309,0.0,3.0,92,0.00,,---,0.00,VWS V14.01,2013-05-18 17:58:00,
2013-05-18 13:59:00,69.6,66.9,30.13,NNW,343,2.0,3.0,91,0.00,,---,0.00,VWS V14.01,2013-05-18 17:59:00,
2013-05-18 14:00:00,69.6,66.9,30.13,NNW,340,0.0,3.0,91,0.00,,---,0.00,VWS V14.01,2013-05-18 18:00:00,
2013-05-18 14:01:00,69.7,67.0,30.12,NNW,340,0.0,0.0,91,0.00,,---,0.00,VWS V14.01,2013-05-18 18:01:00,
2013-05-18 14:02:00,69.7,67.0,30.12,NNW,340,0.0,0.0,91,0.00,,---,0.00,VWS V14.01,2013-05-18 18:02:00,
2013-05-18 14:03:00,69.7,67.0,30.13,North,355,2.0,4.0,91,0.00,,---,0.00,VWS V14.01,2013-05-18 18:03:00,
2013-05-18 14:04:00,69.8,67.1,30.13,North,355,0.0,4.0,91,0.00,,---,0.00,VWS V14.01,2013-05-18 18:04:00,
2013-05-18 14:05:00,69.8,67.1,30.13,North,355,0.0,4.0,91,0.00,,---,0.00,VWS V14.01,2013-05-18 18:05:00,
2013-05-18 14:06:00,69.8,67.4,30.13,North,355,0.0,4.0,92,0.00,,---,0.00,VWS V14.01,2013-05-18 18:06:00,
2013-05-18 14:07:00,69.9,67.2,30.13,North,360,0.0,4.0,91,0.00,,---,0.00,VWS V14.01,2013-05-18 18:07:00,
2013-05-18 14:08:00,69.9,67.2,30.13,North,360,0.0,4.0,91,0.00,,---,0.00,VWS V14.01,2013-05-18 18:08:00,
2013-05-18 14:09:00,69.9,67.2,30.13,North,360,0.0,4.0,91,0.00,,---,0.00,VWS V14.01,2013-05-18 18:09:00,
2013-05-18 14:10:00,69.9,67.2,30.13,North,360,0.0,4.0,91,0.00,,---,0.00,VWS V14.01,2013-05-18 18:10:00,
2013-05-18 14:11:00,70.0,67.3,30.13,North,360,0.0,4.0,91,0.00,,---,0.00,VWS V14.01,2013-05-18 18:11:00,
2013-05-18 14:12:00,70.0,67.3,30.13,North,360,0.0,4.0,91,0.00,,---,0.00,VWS V14.01,2013-05-18 18:12:00,
2013-05-18 14:13:00,70.0,67.3,30.13,North,360,0.0,4.0,91,0.00,,---,0.00,VWS V14.01,2013-05-18 18:13:00,
2013-05-18 14:14:00,70.0,67.3,30.13,North,360,0.0,4.0,91,0.00,,---,0.00,VWS V14.01,2013-05-18 18:14:00,
2013-05-18 14:15:00,70.1,67.4,30.13,North,360,0.0,4.0,91,0.00,,---,0.00,VWS V14.01,2013-05-18 18:15:00,
2013-05-18 14:16:00,70.1,67.0,30.13,North,360,0.0,4.0,90,0.00,,---,0.00,VWS V14.01,2013-05-18 18:16:00,
2013-05-18 14:17:00,70.1,67.0,30.13,North,360,0.0,4.0,90,0.00,,---,0.00,VWS V14.01,2013-05-18 18:17:00,
2013-05-18 14:18:00,70.1,67.0,30.13,NNW,346,3.0,5.0,90,0.00,,---,0.00,VWS V14.01,2013-05-18 18:18:00,
2013-05-18 14:19:00,70.1,67.0,30.13,North,9,3.0,5.0,90,0.00,,---,0.00,VWS V14.01,2013-05-18 18:19:00,
2013-05-18 14:20:00,70.1,67.0,30.13,North,9,0.0,5.0,90,0.00,,---,0.00,VWS V14.01,2013-05-18 18:20:00,
2013-05-18 14:21:00,70.2,67.1,30.13,North,9,0.0,5.0,90,0.00,,---,0.00,VWS V14.01,2013-05-18 18:21:00,
2013-05-18 14:22:00,70.2,67.1,30.13,North,9,0.0,5.0,90,0.00,,---,0.00,VWS V14.01,2013-05-18 18:22:00,
2013-05-18 14:23:00,70.2,67.1,30.13,North,5,4.0,5.0,90,0.00,,---,0.00,VWS V14.01,2013-05-18 18:23:00,
2013-05-18 14:24:00,70.2,67.1,30.13,North,5,0.0,5.0,90,0.00,,---,0.00,VWS V14.01,2013-05-18 18:24:00,
2013-05-18 14:25:00,70.2,67.1,30.13,North,5,0.0,5.0,90,0.00,,---,0.00,VWS V14.01,2013-05-18 18:25:00,
2013-05-18 14:26:00,70.2,67.1,30.13,North,5,0.0,5.0,90,0.00,,---,0.00,VWS V14.01,2013-05-18 18:26:00,
2013-05-18 14:27:00,70.2,67.1,30.13,North,5,0.0,5.0,90,0.00,,---,0.00,VWS V14.01,2013-05-18 18:27:00,
2013-05-18 14:28:00,70.2,67.1,30.13,North,5,0.0,5.0,90,0.00,,---,0.00,VWS V14.01,2013-05-18 18:28:00,
2013-05-18 14:29:00,70.2,67.1,30.13,North,5,0.0,5.0,90,0.00,,---,0.00,VWS V14.01,2013-05-18 18:29:00,
2013-05-18 14:30:00,70.1,67.0,30.13,North,5,0.0,0.0,90,0.00,,---,0.00,VWS V14.01,2013-05-18 18:30:00,
2013-05-18 14:31:00,70.1,67.0,30.13,North,5,0.0,0.0,90,0.00,,---,0.00,VWS V14.01,2013-05-18 18:31:00,
2013-05-18 14:32:00,70.1,67.0,30.13,North,5,0.0,0.0,90,0.00,,---,0.00,VWS V14.01,2013-05-18 18:32:00,
2013-05-18 14:33:00,70.1,67.0,30.13,North,5,0.0,1.0,90,0.00,,---,0.00,VWS V14.01,2013-05-18 18:33:00,
2013-05-18 14:34:00,70.1,67.0,30.13,North,5,0.0,1.0,90,0.00,,---,0.00,VWS V14.01,2013-05-18 18:34:00,
2013-05-18 14:35:00,70.1,67.0,30.13,North,5,0.0,1.0,90,0.00,,---,0.00,VWS V14.01,2013-05-18 18:35:00,
2013-05-18 14:36:00,70.1,67.4,30.13,North,5,0.0,1.0,91,0.00,,---,0.00,VWS V14.01,2013-05-18 18:36:00,
2013-05-18 14:37:00,70.1,67.4,30.13,North,5,0.0,4.0,91,0.00,,---,0.00,VWS V14.01,2013-05-18 18:37:00,
2013-05-18 14:38:00,70.1,67.4,30.13,North,5,0.0,4.0,91,0.00,,---,0.00,VWS V14.01,2013-05-18 18:38:00,
2013-05-18 14:39:00,70.2,67.4,30.13,North,5,0.0,4.0,91,0.00,,---,0.00,VWS V14.01,2013-05-18 18:39:00,
2013-05-18 14:40:00,70.2,67.4,30.13,North,5,0.0,4.0,91,0.00,,---,0.00,VWS V14.01,2013-05-18 18:40:00,
2013-05-18 14:41:00,70.3,67.6,30.13,North,5,0.0,4.0,91,0.00,,---,0.00,VWS V14.01,2013-05-18 18:41:00,
2013-05-18 14:42:00,70.3,67.6,30.13,North,5,0.0,4.0,91,0.00,,---,0.00,VWS V14.01,2013-05-18 18:42:00,
2013-05-18 14:43:00,70.3,67.6,30.13,North,5,0.0,4.0,91,0.00,,---,0.00,VWS V14.01,2013-05-18 18:43:00,
2013-05-18 14:44:00,70.2,67.4,30.13,North,5,0.0,4.0,91,0.00,,---,0.00,VWS V14.01,2013-05-18 18:44:00,
2013-05-18 14:45:00,70.3,67.6,30.13,North,5,0.0,4.0,91,0.01,,---,0.01,VWS V14.01,2013-05-18 18:45:00,
2013-05-18 14:46:00,70.3,67.6,30.13,North,5,0.0,4.0,91,0.01,,---,0.01,VWS V14.01,2013-05-18 18:46:00,
2013-05-18 14:47:00,70.3,67.6,30.13,North,5,3.0,4.0,91,0.01,,---,0.01,VWS V14.01,2013-05-18 18:47:00,
2013-05-18 14:48:00,70.2,67.4,30.14,North,5,0.0,4.0,91,0.01,,---,0.01,VWS V14.01,2013-05-18 18:48:00,
2013-05-18 14:49:00,70.3,67.6,30.13,North,5,0.0,4.0,91,0.01,,---,0.01,VWS V14.01,2013-05-18 18:49:00,
2013-05-18 14:50:00,70.2,67.4,30.13,North,5,3.0,4.0,91,0.01,,---,0.01,VWS V14.01,2013-05-18 18:50:00,
2013-05-18 14:51:00,70.2,67.4,30.13,North,5,0.0,4.0,91,0.01,,---,0.01,VWS V14.01,2013-05-18 18:51:00,
2013-05-18 14:52:00,70.2,67.4,30.13,North,5,0.0,4.0,91,0.01,,---,0.01,VWS V14.01,2013-05-18 18:52:00,
2013-05-18 14:53:00,70.2,67.4,30.13,North,5,0.0,4.0,91,0.01,,---,0.01,VWS V14.01,2013-05-18 18:53:00,
2013-05-18 14:54:00,70.2,67.4,30.13,North,5,0.0,4.0,91,0.01,,---,0.01,VWS V14.01,2013-05-18 18:54:00,
2013-05-18 14:55:00,70.2,67.4,30.13,North,5,3.0,4.0,91,0.01,,---,0.01,VWS V14.01,2013-05-18 18:55:00,
2013-05-18 14:56:00,70.2,67.4,30.13,North,5,0.0,4.0,91,0.01,,---,0.01,VWS V14.01,2013-05-18 18:56:00,
2013-05-18 14:57:00,70.2,67.4,30.13,North,5,0.0,4.0,91,0.01,,---,0.01,VWS V14.01,2013-05-18 18:57:00,
2013-05-18 14:58:00,70.2,67.4,30.13,North,5,0.0,4.0,91,0.01,,---,0.01,VWS V14.01,2013-05-18 18:58:00,
2013-05-18 14:59:00,70.3,67.6,30.13,NNE,13,1.0,4.0,91,0.01,,---,0.01,VWS V14.01,2013-05-18 18:59:00,
2013-05-18 15:00:00,70.3,67.6,30.13,NNE,25,0.0,4.0,91,0.01,,---,0.01,VWS V14.01,2013-05-18 19:00:00,
2013-05-18 15:01:00,70.4,67.7,30.13,NNE,25,0.0,1.0,91,0.01,,---,0.01,VWS V14.01,2013-05-18 19:01:00,
2013-05-18 15:02:00,70.4,67.7,30.13,NNE,25,0.0,1.0,91,0.01,,---,0.01,VWS V14.01,2013-05-18 19:02:00,
2013-05-18 15:03:00,70.4,67.7,30.13,NNE,25,0.0,1.0,91,0.01,,---,0.01,VWS V14.01,2013-05-18 19:03:00,
2013-05-18 15:04:00,70.4,67.7,30.14,North,5,5.0,7.0,91,0.01,,---,0.01,VWS V14.01,2013-05-18 19:04:00,
2013-05-18 15:05:00,70.3,67.2,30.14,North,5,0.0,7.0,90,0.01,,---,0.01,VWS V14.01,2013-05-18 19:05:00,
2013-05-18 15:06:00,70.3,67.2,30.14,North,5,0.0,7.0,90,0.02,,---,0.02,VWS V14.01,2013-05-18 19:06:00,
2013-05-18 15:07:00,70.3,67.2,30.14,NNE,23,0.0,7.0,90,0.02,,---,0.02,VWS V14.01,2013-05-18 19:07:00,
2013-05-18 15:08:00,70.2,67.1,30.14,NNE,15,2.0,7.0,90,0.02,,---,0.02,VWS V14.01,2013-05-18 19:08:00,
2013-05-18 15:09:00,70.2,67.1,30.14,NNE,17,1.0,7.0,90,0.02,,---,0.02,VWS V14.01,2013-05-18 19:09:00,
2013-05-18 15:10:00,70.1,67.0,30.15,NNE,26,0.0,7.0,90,0.02,,---,0.02,VWS V14.01,2013-05-18 19:10:00,
2013-05-18 15:11:00,70.2,67.4,30.15,NNE,13,0.0,7.0,91,0.02,,---,0.02,VWS V14.01,2013-05-18 19:11:00,
2013-05-18 15:12:00,70.2,67.4,30.15,NNE,32,0.0,7.0,91,0.02,,---,0.02,VWS V14.01,2013-05-18 19:12:00,
2013-05-18 15:13:00,70.1,67.4,30.15,NE,43,0.0,7.0,91,0.02,,---,0.02,VWS V14.01,2013-05-18 19:13:00,
2013-05-18 15:14:00,70.1,67.4,30.15,ENE,63,0.0,7.0,91,0.03,,---,0.03,VWS V14.01,2013-05-18 19:14:00,
2013-05-18 15:15:00,70.1,67.4,30.15,NE,46,5.0,7.0,91,0.03,,---,0.03,VWS V14.01,2013-05-18 19:15:00,
2013-05-18 15:16:00,69.9,66.8,30.15,NE,52,5.0,7.0,90,0.03,,---,0.03,VWS V14.01,2013-05-18 19:16:00,
2013-05-18 15:17:00,69.8,66.7,30.15,NE,40,0.0,7.0,90,0.03,,---,0.03,VWS V14.01,2013-05-18 19:17:00,
2013-05-18 15:18:00,69.7,66.6,30.14,NNE,23,0.0,7.0,90,0.03,,---,0.03,VWS V14.01,2013-05-18 19:18:00,
2013-05-18 15:19:00,69.7,66.6,30.14,NNE,23,1.0,7.0,90,0.04,,---,0.04,VWS V14.01,2013-05-18 19:19:00,
2013-05-18 15:20:00,69.6,66.5,30.15,NNE,16,0.0,7.0,90,0.04,,---,0.04,VWS V14.01,2013-05-18 19:20:00,
2013-05-18 15:21:00,69.5,66.4,30.15,NE,51,3.0,7.0,90,0.04,,---,0.04,VWS V14.01,2013-05-18 19:21:00,
2013-05-18 15:22:00,69.5,66.4,30.15,North,9,0.0,7.0,90,0.04,,---,0.04,VWS V14.01,2013-05-18 19:22:00,
2013-05-18 15:23:00,69.4,66.3,30.15,NE,51,0.0,7.0,90,0.04,,---,0.04,VWS V14.01,2013-05-18 19:23:00,
2013-05-18 15:24:00,69.3,66.2,30.15,North,360,3.0,7.0,90,0.04,,---,0.04,VWS V14.01,2013-05-18 19:24:00,
2013-05-18 15:25:00,69.3,66.2,30.15,North,360,0.0,7.0,90,0.04,,---,0.04,VWS V14.01,2013-05-18 19:25:00,
2013-05-18 15:26:00,69.3,66.2,30.15,North,360,0.0,7.0,90,0.04,,---,0.04,VWS V14.01,2013-05-18 19:26:00,
2013-05-18 15:27:00,69.2,66.2,30.15,NNE,27,0.0,7.0,90,0.04,,---,0.04,VWS V14.01,2013-05-18 19:27:00,
2013-05-18 15:28:00,69.2,66.2,30.15,NE,34,0.0,7.0,90,0.04,,---,0.04,VWS V14.01,2013-05-18 19:28:00,
2013-05-18 15:29:00,69.1,66.1,30.15,NE,54,0.0,7.0,90,0.04,,---,0.04,VWS V14.01,2013-05-18 19:29:00,
2013-05-18 15:30:00,69.0,65.9,30.15,NE,49,3.0,7.0,90,0.05,,---,0.05,VWS V14.01,2013-05-18 19:30:00,
2013-05-18 15:31:00,69.0,65.9,30.15,NE,55,0.0,4.0,90,0.05,,---,0.05,VWS V14.01,2013-05-18 19:31:00,
2013-05-18 15:32:00,68.9,65.8,30.15,NE,50,3.0,4.0,90,0.06,,---,0.06,VWS V14.01,2013-05-18 19:32:00,
2013-05-18 15:33:00,68.8,65.8,30.15,ENE,58,1.0,4.0,90,0.06,,---,0.06,VWS V14.01,2013-05-18 19:33:00,
2013-05-18 15:34:00,68.6,65.6,30.15,ENE,61,2.0,9.0,90,0.07,,---,0.07,VWS V14.01,2013-05-18 19:34:00,
2013-05-18 15:35:00,68.5,65.1,30.15,NE,49,0.0,9.0,89,0.08,,---,0.08,VWS V14.01,2013-05-18 19:35:00,
2013-05-18 15:36:00,68.4,65.4,30.15,NE,52,0.0,9.0,90,0.09,,---,0.09,VWS V14.01,2013-05-18 19:36:00,
2013-05-18 15:37:00,68.3,65.3,30.15,NE,55,0.0,9.0,90,0.10,,---,0.10,VWS V14.01,2013-05-18 19:37:00,
2013-05-18 15:38:00,68.2,65.2,30.15,NE,55,0.0,9.0,90,0.10,,---,0.10,VWS V14.01,2013-05-18 19:38:00,
2013-05-18 15:39:00,68.2,65.2,30.15,NE,55,0.0,9.0,90,0.10,,---,0.10,VWS V14.01,2013-05-18 19:39:00,
2013-05-18 15:40:00,68.1,65.1,30.15,NE,55,0.0,9.0,90,0.10,,---,0.10,VWS V14.01,2013-05-18 19:40:00,
2013-05-18 15:41:00,68.1,65.1,30.15,NE,55,0.0,9.0,90,0.11,,---,0.11,VWS V14.01,2013-05-18 19:41:00,
2013-05-18 15:42:00,68.0,65.0,30.15,NE,55,0.0,9.0,90,0.11,,---,0.11,VWS V14.01,2013-05-18 19:42:00,
2013-05-18 15:43:00,68.0,65.0,30.15,NE,55,0.0,9.0,90,0.11,,---,0.11,VWS V14.01,2013-05-18 19:43:00,
2013-05-18 15:44:00,67.9,64.9,30.15,NE,55,0.0,9.0,90,0.11,,---,0.11,VWS V14.01,2013-05-18 19:44:00,
2013-05-18 15:45:00,67.8,64.8,30.15,NE,55,0.0,9.0,90,0.11,,---,0.11,VWS V14.01,2013-05-18 19:45:00,
2013-05-18 15:46:00,67.8,64.8,30.15,NE,55,0.0,9.0,90,0.11,,---,0.11,VWS V14.01,2013-05-18 19:46:00,
2013-05-18 15:47:00,67.7,64.7,30.15,NE,55,0.0,9.0,90,0.11,,---,0.11,VWS V14.01,2013-05-18 19:47:00,
2013-05-18 15:48:00,67.7,64.7,30.15,NE,55,0.0,9.0,90,0.12,,---,0.12,VWS V14.01,2013-05-18 19:48:00,
2013-05-18 15:49:00,67.7,64.7,30.15,NE,55,0.0,9.0,90,0.12,,---,0.12,VWS V14.01,2013-05-18 19:49:00,
2013-05-18 15:50:00,67.6,64.6,30.16,NE,55,0.0,9.0,90,0.12,,---,0.12,VWS V14.01,2013-05-18 19:50:00,
2013-05-18 15:51:00,67.6,64.6,30.16,NE,55,0.0,9.0,90,0.12,,---,0.12,VWS V14.01,2013-05-18 19:51:00,
2013-05-18 15:52:00,67.6,64.6,30.15,NE,55,0.0,9.0,90,0.12,,---,0.12,VWS V14.01,2013-05-18 19:52:00,
2013-05-18 15:53:00,67.6,64.6,30.15,NE,55,0.0,9.0,90,0.12,,---,0.12,VWS V14.01,2013-05-18 19:53:00,
2013-05-18 15:54:00,67.5,64.5,30.16,NE,55,0.0,9.0,90,0.12,,---,0.12,VWS V14.01,2013-05-18 19:54:00,
2013-05-18 15:55:00,67.5,64.5,30.16,NE,55,0.0,9.0,90,0.12,,---,0.12,VWS V14.01,2013-05-18 19:55:00,
2013-05-18 15:56:00,67.5,64.5,30.15,NE,55,0.0,9.0,90,0.12,,---,0.12,VWS V14.01,2013-05-18 19:56:00,
2013-05-18 15:57:00,67.5,64.5,30.15,NE,55,0.0,9.0,90,0.13,,---,0.13,VWS V14.01,2013-05-18 19:57:00,
2013-05-18 15:58:00,67.5,64.5,30.15,NE,55,0.0,9.0,90,0.13,,---,0.13,VWS V14.01,2013-05-18 19:58:00,
2013-05-18 15:59:00,67.4,64.4,30.15,NE,55,0.0,9.0,90,0.13,,---,0.13,VWS V14.01,2013-05-18 19:59:00,
2013-05-18 16:00:00,67.4,64.7,30.15,NE,55,0.0,9.0,91,0.13,,---,0.13,VWS V14.01,2013-05-18 20:00:00,
2013-05-18 16:01:00,67.3,64.6,30.15,NE,55,0.0,0.0,91,0.12,,---,0.13,VWS V14.01,2013-05-18 20:01:00,
2013-05-18 16:02:00,67.3,64.6,30.15,NE,55,0.0,0.0,91,0.12,,---,0.13,VWS V14.01,2013-05-18 20:02:00,
2013-05-18 16:03:00,67.2,64.5,30.15,NE,55,0.0,0.0,91,0.12,,---,0.13,VWS V14.01,2013-05-18 20:03:00,
2013-05-18 16:04:00,67.2,64.5,30.15,NE,55,0.0,0.0,91,0.13,,---,0.14,VWS V14.01,2013-05-18 20:04:00,
2013-05-18 16:05:00,67.2,64.5,30.15,NE,55,0.0,0.0,91,0.13,,---,0.14,VWS V14.01,2013-05-18 20:05:00,
2013-05-18 16:06:00,67.2,64.5,30.15,NE,55,0.0,0.0,91,0.13,,---,0.14,VWS V14.01,2013-05-18 20:06:00,
2013-05-18 16:07:00,67.2,64.5,30.15,NE,55,0.0,0.0,91,0.13,,---,0.14,VWS V14.01,2013-05-18 20:07:00,
2013-05-18 16:08:00,67.2,64.8,30.15,NE,55,1.0,1.0,92,0.13,,---,0.14,VWS V14.01,2013-05-18 20:08:00,
2013-05-18 16:09:00,67.2,64.8,30.15,NE,55,0.0,1.0,92,0.13,,---,0.14,VWS V14.01,2013-05-18 20:09:00,
2013-05-18 16:10:00,67.2,64.8,30.15,NE,55,0.0,1.0,92,0.13,,---,0.14,VWS V14.01,2013-05-18 20:10:00,
2013-05-18 16:11:00,67.3,64.9,30.15,NE,55,0.0,1.0,92,0.13,,---,0.14,VWS V14.01,2013-05-18 20:11:00,
2013-05-18 16:12:00,67.4,65.0,30.15,NE,55,0.0,1.0,92,0.13,,---,0.14,VWS V14.01,2013-05-18 20:12:00,
2013-05-18 16:13:00,67.4,65.0,30.15,NE,55,0.0,1.0,92,0.13,,---,0.14,VWS V14.01,2013-05-18 20:13:00,
2013-05-18 16:14:00,67.4,65.0,30.15,NE,55,0.0,1.0,92,0.13,,---,0.14,VWS V14.01,2013-05-18 20:14:00,
2013-05-18 16:15:00,67.4,65.0,30.16,NE,55,0.0,1.0,92,0.13,,---,0.14,VWS V14.01,2013-05-18 20:15:00,
2013-05-18 16:16:00,67.4,65.0,30.16,NE,55,0.0,1.0,92,0.13,,---,0.14,VWS V14.01,2013-05-18 20:16:00,
2013-05-18 16:17:00,67.5,65.1,30.16,NE,55,0.0,1.0,92,0.13,,---,0.14,VWS V14.01,2013-05-18 20:17:00,
2013-05-18 16:18:00,67.5,65.1,30.16,NE,55,0.0,1.0,92,0.13,,---,0.14,VWS V14.01,2013-05-18 20:18:00,
2013-05-18 16:19:00,67.6,65.5,30.16,NE,55,0.0,1.0,93,0.13,,---,0.14,VWS V14.01,2013-05-18 20:19:00,
2013-05-18 16:20:00,67.6,65.5,30.16,NE,55,0.0,1.0,93,0.13,,---,0.14,VWS V14.01,2013-05-18 20:20:00,
2013-05-18 16:21:00,67.7,65.6,30.16,NE,55,0.0,1.0,93,0.13,,---,0.14,VWS V14.01,2013-05-18 20:21:00,
2013-05-18 16:22:00,67.7,65.6,30.16,NE,55,0.0,1.0,93,0.13,,---,0.14,VWS V14.01,2013-05-18 20:22:00,
2013-05-18 16:23:00,67.8,65.7,30.16,NE,55,0.0,1.0,93,0.13,,---,0.14,VWS V14.01,2013-05-18 20:23:00,
2013-05-18 16:24:00,67.8,65.7,30.16,NE,55,0.0,1.0,93,0.13,,---,0.14,VWS V14.01,2013-05-18 20:24:00,
2013-05-18 16:25:00,67.8,65.7,30.16,NE,55,0.0,1.0,93,0.13,,---,0.14,VWS V14.01,2013-05-18 20:25:00,
2013-05-18 16:26:00,67.8,65.7,30.16,NE,55,0.0,1.0,93,0.13,,---,0.14,VWS V14.01,2013-05-18 20:26:00,
2013-05-18 16:27:00,67.9,65.8,30.16,NE,55,0.0,1.0,93,0.13,,---,0.14,VWS V14.01,2013-05-18 20:27:00,
2013-05-18 16:28:00,67.9,65.8,30.16,NE,55,0.0,1.0,93,0.13,,---,0.14,VWS V14.01,2013-05-18 20:28:00,
2013-05-18 16:29:00,67.9,65.8,30.16,NE,55,0.0,1.0,93,0.13,,---,0.14,VWS V14.01,2013-05-18 20:29:00,
2013-05-18 16:30:00,67.9,65.8,30.16,NE,55,0.0,1.0,93,0.13,,---,0.14,VWS V14.01,2013-05-18 20:30:00,
2013-05-18 16:31:00,68.0,65.9,30.15,NE,55,0.0,0.0,93,0.09,,---,0.14,VWS V14.01,2013-05-18 20:31:00,
2013-05-18 16:32:00,68.0,65.9,30.15,NE,55,0.0,0.0,93,0.09,,---,0.14,VWS V14.01,2013-05-18 20:32:00,
2013-05-18 16:33:00,68.1,66.0,30.15,NE,55,0.0,0.0,93,0.09,,---,0.14,VWS V14.01,2013-05-18 20:33:00,
2013-05-18 16:34:00,68.1,66.0,30.15,NE,55,0.0,0.0,93,0.09,,---,0.14,VWS V14.01,2013-05-18 20:34:00,
2013-05-18 16:35:00,68.1,66.0,30.15,NE,55,0.0,0.0,93,0.09,,---,0.14,VWS V14.01,2013-05-18 20:35:00,
2013-05-18 16:36:00,68.1,66.0,30.15,NE,55,0.0,0.0,93,0.09,,---,0.14,VWS V14.01,2013-05-18 20:36:00,
2013-05-18 16:37:00,68.2,66.1,30.15,NE,55,0.0,0.0,93,0.09,,---,0.14,VWS V14.01,2013-05-18 20:37:00,
2013-05-18 16:38:00,68.2,66.1,30.15,NE,55,0.0,0.0,93,0.09,,---,0.14,VWS V14.01,2013-05-18 20:38:00,
2013-05-18 16:39:00,68.3,66.2,30.15,NE,55,0.0,0.0,93,0.09,,---,0.14,VWS V14.01,2013-05-18 20:39:00,
2013-05-18 16:40:00,68.3,66.2,30.15,NE,55,0.0,0.0,93,0.09,,---,0.14,VWS V14.01,2013-05-18 20:40:00,
2013-05-18 16:41:00,68.3,66.2,30.15,NE,55,0.0,0.0,93,0.09,,---,0.14,VWS V14.01,2013-05-18 20:41:00,
2013-05-18 16:42:00,68.4,66.3,30.15,NE,55,0.0,0.0,93,0.09,,---,0.14,VWS V14.01,2013-05-18 20:42:00,
2013-05-18 16:43:00,68.4,66.3,30.15,NE,55,0.0,0.0,93,0.09,,---,0.14,VWS V14.01,2013-05-18 20:43:00,
2013-05-18 16:44:00,68.4,66.3,30.15,NE,55,0.0,0.0,93,0.09,,---,0.14,VWS V14.01,2013-05-18 20:44:00,
2013-05-18 16:45:00,68.4,66.3,30.15,NE,55,0.0,0.0,93,0.09,,---,0.14,VWS V14.01,2013-05-18 20:45:00,
2013-05-18 16:46:00,68.5,66.4,30.15,NE,55,0.0,1.0,93,0.09,,---,0.14,VWS V14.01,2013-05-18 20:46:00,
2013-05-18 16:47:00,68.5,66.4,30.15,NE,55,0.0,1.0,93,0.09,,---,0.14,VWS V14.01,2013-05-18 20:47:00,
2013-05-18 16:48:00,68.5,66.4,30.15,NE,55,0.0,1.0,93,0.09,,---,0.14,VWS V14.01,2013-05-18 20:48:00,
2013-05-18 16:49:00,68.5,66.4,30.15,NE,55,0.0,1.0,93,0.09,,---,0.14,VWS V14.01,2013-05-18 20:49:00,
2013-05-18 16:50:00,68.5,66.1,30.15,NE,55,0.0,1.0,92,0.09,,---,0.14,VWS V14.01,2013-05-18 20:50:00,
2013-05-18 16:51:00,68.5,66.4,30.15,NE,55,0.0,1.0,93,0.09,,---,0.14,VWS V14.01,2013-05-18 20:51:00,
2013-05-18 16:52:00,68.6,66.5,30.15,NE,55,0.0,1.0,93,0.09,,---,0.14,VWS V14.01,2013-05-18 20:52:00,
2013-05-18 16:53:00,68.6,66.5,30.15,NE,55,0.0,1.0,93,0.09,,---,0.14,VWS V14.01,2013-05-18 20:53:00,
2013-05-18 16:54:00,68.6,66.5,30.15,NE,55,0.0,1.0,93,0.09,,---,0.14,VWS V14.01,2013-05-18 20:54:00,
2013-05-18 16:55:00,68.7,66.6,30.15,NE,55,0.0,1.0,93,0.09,,---,0.14,VWS V14.01,2013-05-18 20:55:00,
2013-05-18 16:56:00,68.7,66.6,30.15,NE,55,0.0,1.0,93,0.09,,---,0.14,VWS V14.01,2013-05-18 20:56:00,
2013-05-18 16:57:00,68.7,66.6,30.15,NE,55,0.0,1.0,93,0.09,,---,0.14,VWS V14.01,2013-05-18 20:57:00,
2013-05-18 16:58:00,68.8,66.4,30.14,ENE,61,0.0,1.0,92,0.09,,---,0.14,VWS V14.01,2013-05-18 20:58:00,
2013-05-18 16:59:00,68.9,66.8,30.14,ESE,121,0.0,1.0,93,0.09,,---,0.14,VWS V14.01,2013-05-18 20:59:00,
2013-05-18 17:00:00,68.9,66.5,30.15,ESE,121,0.0,1.0,92,0.09,,---,0.14,VWS V14.01,2013-05-18 21:00:00,
2013-05-18 17:01:00,69.2,67.1,30.14,ESE,121,0.0,0.0,93,0.01,,---,0.14,VWS V14.01,2013-05-18 21:01:00,
2013-05-18 17:02:00,69.5,67.4,30.14,ESE,121,0.0,0.0,93,0.01,,---,0.14,VWS V14.01,2013-05-18 21:02:00,
2013-05-18 17:03:00,69.8,68.0,30.14,ESE,121,0.0,1.0,94,0.01,,---,0.14,VWS V14.01,2013-05-18 21:03:00,
2013-05-18 17:04:00,69.9,67.8,30.14,ESE,121,0.0,1.0,93,0.01,,---,0.14,VWS V14.01,2013-05-18 21:04:00,
2013-05-18 17:05:00,70.0,67.9,30.14,SE,140,0.0,1.0,93,0.01,,---,0.14,VWS V14.01,2013-05-18 21:05:00,
2013-05-18 17:06:00,70.1,67.7,30.14,South,169,0.0,1.0,92,0.01,,---,0.14,VWS V14.01,2013-05-18 21:06:00,
2013-05-18 17:07:00,70.1,67.4,30.14,South,169,0.0,1.0,91,0.01,,---,0.14,VWS V14.01,2013-05-18 21:07:00,
2013-05-18 17:08:00,70.2,67.4,30.14,South,169,0.0,1.0,91,0.01,,---,0.14,VWS V14.01,2013-05-18 21:08:00,
2013-05-18 17:09:00,70.2,67.4,30.14,South,170,0.0,1.0,91,0.01,,---,0.14,VWS V14.01,2013-05-18 21:09:00,
2013-05-18 17:10:00,70.3,67.6,30.14,South,170,1.0,1.0,91,0.01,,---,0.14,VWS V14.01,2013-05-18 21:10:00,
2013-05-18 17:11:00,70.5,67.8,30.14,South,170,0.0,1.0,91,0.01,,---,0.14,VWS V14.01,2013-05-18 21:11:00,
2013-05-18 17:12:00,70.6,67.8,30.14,South,170,0.0,1.0,91,0.01,,---,0.14,VWS V14.01,2013-05-18 21:12:00,
2013-05-18 17:13:00,70.8,68.1,30.14,South,170,0.0,1.0,91,0.01,,---,0.14,VWS V14.01,2013-05-18 21:13:00,
2013-05-18 17:14:00,70.9,68.2,30.14,South,170,0.0,1.0,91,0.01,,---,0.14,VWS V14.01,2013-05-18 21:14:00,
2013-05-18 17:15:00,71.1,68.0,30.14,South,170,0.0,1.0,90,0.01,,---,0.14,VWS V14.01,2013-05-18 21:15:00,
2013-05-18 17:16:00,71.3,68.2,30.14,South,171,0.0,1.0,90,0.01,,---,0.14,VWS V14.01,2013-05-18 21:16:00,
2013-05-18 17:17:00,71.4,68.0,30.14,South,171,0.0,1.0,89,0.01,,---,0.14,VWS V14.01,2013-05-18 21:17:00,
2013-05-18 17:18:00,71.5,68.1,30.14,South,171,0.0,1.0,89,0.01,,---,0.14,VWS V14.01,2013-05-18 21:18:00,
2013-05-18 17:19:00,71.7,68.3,30.14,South,173,0.0,1.0,89,0.01,,---,0.14,VWS V14.01,2013-05-18 21:19:00,
2013-05-18 17:20:00,71.8,68.1,30.14,South,177,0.0,1.0,88,0.01,,---,0.14,VWS V14.01,2013-05-18 21:20:00,
2013-05-18 17:21:00,72.0,68.3,30.13,South,182,0.0,1.0,88,0.01,,---,0.14,VWS V14.01,2013-05-18 21:21:00,
2013-05-18 17:22:00,72.1,68.3,30.13,South,182,0.0,1.0,88,0.01,,---,0.14,VWS V14.01,2013-05-18 21:22:00,
2013-05-18 17:23:00,72.3,68.2,30.13,South,182,0.0,1.0,87,0.01,,---,0.14,VWS V14.01,2013-05-18 21:23:00,
2013-05-18 17:24:00,72.4,68.3,30.13,South,182,0.0,1.0,87,0.01,,---,0.14,VWS V14.01,2013-05-18 21:24:00,
2013-05-18 17:25:00,72.7,68.9,30.14,South,187,1.0,1.0,88,0.01,,---,0.14,VWS V14.01,2013-05-18 21:25:00,
2013-05-18 17:26:00,72.8,68.7,30.14,NW,312,0.0,1.0,87,0.01,,---,0.14,VWS V14.01,2013-05-18 21:26:00,
2013-05-18 17:27:00,73.1,69.0,30.14,North,351,0.0,3.0,87,0.01,,---,0.14,VWS V14.01,2013-05-18 21:27:00,
2013-05-18 17:28:00,73.4,69.3,30.14,NNW,338,0.0,3.0,87,0.01,,---,0.14,VWS V14.01,2013-05-18 21:28:00,
2013-05-18 17:29:00,73.5,69.1,30.14,NNW,338,0.0,3.0,86,0.01,,---,0.14,VWS V14.01,2013-05-18 21:29:00,
2013-05-18 17:30:00,73.6,69.2,30.14,NNW,338,0.0,3.0,86,0.01,,---,0.14,VWS V14.01,2013-05-18 21:30:00,
2013-05-18 17:31:00,73.7,69.3,30.14,NNW,338,0.0,0.0,86,0.00,,---,0.14,VWS V14.01,2013-05-18 21:31:00,
2013-05-18 17:32:00,73.9,69.4,30.14,NNW,338,0.0,1.0,86,0.00,,---,0.14,VWS V14.01,2013-05-18 21:32:00,
2013-05-18 17:33:00,74.1,69.3,30.13,NW,315,0.0,1.0,85,0.00,,---,0.14,VWS V14.01,2013-05-18 21:33:00,
2013-05-18 17:34:00,74.2,69.1,30.14,WNW,302,5.0,5.0,84,0.00,,---,0.14,VWS V14.01,2013-05-18 21:34:00,
2013-05-18 17:35:00,74.3,69.2,30.14,WNW,301,2.0,5.0,84,0.00,,---,0.14,VWS V14.01,2013-05-18 21:35:00,
2013-05-18 17:36:00,74.4,69.3,30.14,West,277,5.0,6.0,84,0.00,,---,0.14,VWS V14.01,2013-05-18 21:36:00,
2013-05-18 17:37:00,74.4,68.9,30.14,West,271,0.0,6.0,83,0.00,,---,0.14,VWS V14.01,2013-05-18 21:37:00,
2013-05-18 17:38:00,74.4,68.9,30.13,NNW,338,0.0,6.0,83,0.00,,---,0.14,VWS V14.01,2013-05-18 21:38:00,
2013-05-18 17:39:00,74.6,69.4,30.13,WNW,301,0.0,6.0,84,0.00,,---,0.14,VWS V14.01,2013-05-18 21:39:00,
2013-05-18 17:40:00,74.8,69.7,30.13,West,267,3.0,7.0,84,0.00,,---,0.14,VWS V14.01,2013-05-18 21:40:00,
2013-05-18 17:41:00,74.9,70.1,30.13,West,267,0.0,7.0,85,0.00,,---,0.14,VWS V14.01,2013-05-18 21:41:00,
2013-05-18 17:42:00,75.1,69.9,30.13,West,267,0.0,7.0,84,0.00,,---,0.14,VWS V14.01,2013-05-18 21:42:00,
2013-05-18 17:43:00,75.1,69.6,30.13,West,267,0.0,7.0,83,0.00,,---,0.14,VWS V14.01,2013-05-18 21:43:00,
2013-05-18 17:44:00,75.3,70.1,30.13,West,267,0.0,7.0,84,0.00,,---,0.14,VWS V14.01,2013-05-18 21:44:00,
2013-05-18 17:45:00,75.5,70.0,30.14,West,267,0.0,7.0,83,0.00,,---,0.14,VWS V14.01,2013-05-18 21:45:00,
2013-05-18 17:46:00,75.6,70.1,30.14,SW,221,0.0,7.0,83,0.00,,---,0.14,VWS V14.01,2013-05-18 21:46:00,
2013-05-18 17:47:00,75.6,69.7,30.14,SW,229,0.0,7.0,82,0.00,,---,0.14,VWS V14.01,2013-05-18 21:47:00,
2013-05-18 17:48:00,75.7,70.2,30.14,SW,230,0.0,7.0,83,0.00,,---,0.14,VWS V14.01,2013-05-18 21:48:00,
2013-05-18 17:49:00,75.8,69.9,30.14,WSW,244,0.0,7.0,82,0.00,,---,0.14,VWS V14.01,2013-05-18 21:49:00,
2013-05-18 17:50:00,75.9,69.7,30.14,WSW,244,0.0,7.0,81,0.00,,---,0.14,VWS V14.01,2013-05-18 21:50:00,
2013-05-18 17:51:00,76.1,70.6,30.13,SW,232,0.0,7.0,83,0.00,,---,0.14,VWS V14.01,2013-05-18 21:51:00,
2013-05-18 17:52:00,76.2,70.3,30.13,WSW,252,0.0,7.0,82,0.00,,---,0.14,VWS V14.01,2013-05-18 21:52:00,
2013-05-18 17:53:00,76.4,70.1,30.13,West,269,0.0,7.0,81,0.00,,---,0.14,VWS V14.01,2013-05-18 21:53:00,
2013-05-18 17:54:00,76.6,70.0,30.13,WNW,296,0.0,7.0,80,0.00,,---,0.14,VWS V14.01,2013-05-18 21:54:00,
2013-05-18 17:55:00,76.9,70.3,30.13,NNW,332,0.0,7.0,80,0.00,,---,0.14,VWS V14.01,2013-05-18 21:55:00,
2013-05-18 17:56:00,77.1,70.5,30.13,West,267,3.0,7.0,80,0.00,,---,0.14,VWS V14.01,2013-05-18 21:56:00,
2013-05-18 17:57:00,77.3,70.7,30.13,West,264,0.0,7.0,80,0.00,,---,0.14,VWS V14.01,2013-05-18 21:57:00,
2013-05-18 17:58:00,77.5,71.2,30.13,SSW,193,0.0,7.0,81,0.00,,---,0.14,VWS V14.01,2013-05-18 21:58:00,
2013-05-18 17:59:00,77.5,70.8,30.13,SSW,193,0.0,7.0,80,0.00,,---,0.14,VWS V14.01,2013-05-18 21:59:00,
2013-05-18 18:00:00,77.5,70.8,30.13,SSW,194,0.0,7.0,80,0.00,,---,0.14,VWS V14.01,2013-05-18 22:00:00,
2013-05-18 18:01:00,77.5,70.8,30.13,South,190,0.0,1.0,80,0.00,,---,0.14,VWS V14.01,2013-05-18 22:01:00,
2013-05-18 18:02:00,77.5,70.8,30.13,West,270,0.0,1.0,80,0.00,,---,0.14,VWS V14.01,2013-05-18 22:02:00,
2013-05-18 18:03:00,77.6,70.6,30.13,West,270,0.0,1.0,79,0.00,,---,0.14,VWS V14.01,2013-05-18 22:03:00,
2013-05-18 18:04:00,77.7,70.7,30.13,WSW,254,0.0,5.0,79,0.00,,---,0.14,VWS V14.01,2013-05-18 22:04:00,
2013-05-18 18:05:00,77.8,70.8,30.13,WSW,255,0.0,5.0,79,0.00,,---,0.14,VWS V14.01,2013-05-18 22:05:00,
2013-05-18 18:06:00,78.0,70.6,30.13,West,279,0.0,5.0,78,0.00,,---,0.14,VWS V14.01,2013-05-18 22:06:00,
2013-05-18 18:07:00,78.1,71.1,30.13,WNW,300,0.0,5.0,79,0.00,,---,0.14,VWS V14.01,2013-05-18 22:07:00,
2013-05-18 18:08:00,78.2,70.0,30.13,WNW,300,0.0,5.0,76,0.00,,---,0.14,VWS V14.01,2013-05-18 22:08:00,
2013-05-18 18:09:00,78.4,70.6,30.13,WSW,246,6.0,6.0,77,0.00,,---,0.14,VWS V14.01,2013-05-18 22:09:00,
2013-05-18 18:10:00,78.4,70.2,30.13,WSW,249,4.0,6.0,76,0.00,,---,0.14,VWS V14.01,2013-05-18 22:10:00,
2013-05-18 18:11:00,78.5,70.3,30.13,West,269,0.0,6.0,76,0.00,,---,0.14,VWS V14.01,2013-05-18 22:11:00,
2013-05-18 18:12:00,78.6,71.2,30.13,WSW,246,0.0,6.0,78,0.00,,---,0.14,VWS V14.01,2013-05-18 22:12:00,
2013-05-18 18:13:00,78.7,70.9,30.13,West,276,3.0,6.0,77,0.00,,---,0.14,VWS V14.01,2013-05-18 22:13:00,
2013-05-18 18:14:00,78.8,70.2,30.13,WSW,249,0.0,6.0,75,0.00,,---,0.14,VWS V14.01,2013-05-18 22:14:00,
2013-05-18 18:15:00,78.8,70.6,30.13,West,263,0.0,6.0,76,0.00,,---,0.14,VWS V14.01,2013-05-18 22:15:00,
2013-05-18 18:16:00,79.0,70.8,30.13,WSW,254,2.0,6.0,76,0.00,,---,0.14,VWS V14.01,2013-05-18 22:16:00,
2013-05-18 18:17:00,79.1,70.1,30.13,WSW,254,0.0,6.0,74,0.00,,---,0.14,VWS V14.01,2013-05-18 22:17:00,
2013-05-18 18:18:00,79.1,70.1,30.13,WSW,240,0.0,6.0,74,0.00,,---,0.14,VWS V14.01,2013-05-18 22:18:00,
2013-05-18 18:19:00,79.2,69.8,30.12,WSW,258,0.0,6.0,73,0.00,,---,0.14,VWS V14.01,2013-05-18 22:19:00,
2013-05-18 18:20:00,79.3,69.9,30.12,SW,217,1.0,6.0,73,0.00,,---,0.14,VWS V14.01,2013-05-18 22:20:00,
2013-05-18 18:21:00,79.3,69.9,30.12,WSW,248,0.0,6.0,73,0.00,,---,0.14,VWS V14.01,2013-05-18 22:21:00,
2013-05-18 18:22:00,79.3,69.9,30.12,WSW,255,0.0,6.0,73,0.00,,---,0.14,VWS V14.01,2013-05-18 22:22:00,
2013-05-18 18:23:00,79.3,69.9,30.12,NW,322,4.0,6.0,73,0.00,,---,0.14,VWS V14.01,2013-05-18 22:23:00,
2013-05-18 18:24:00,79.3,69.9,30.12,NNW,331,0.0,6.0,73,0.00,,---,0.14,VWS V14.01,2013-05-18 22:24:00,
2013-05-18 18:25:00,79.3,70.3,30.12,NNW,331,0.0,6.0,74,0.00,,---,0.14,VWS V14.01,2013-05-18 22:25:00,
2013-05-18 18:26:00,79.3,69.5,30.12,NNW,331,3.0,6.0,72,0.00,,---,0.14,VWS V14.01,2013-05-18 22:26:00,
2013-05-18 18:27:00,79.2,69.4,30.12,NNW,331,0.0,6.0,72,0.00,,---,0.14,VWS V14.01,2013-05-18 22:27:00,
2013-05-18 18:28:00,79.1,69.3,30.12,NNW,331,0.0,6.0,72,0.00,,---,0.14,VWS V14.01,2013-05-18 22:28:00,
2013-05-18 18:29:00,79.2,69.4,30.12,NNW,344,5.0,6.0,72,0.00,,---,0.14,VWS V14.01,2013-05-18 22:29:00,
2013-05-18 18:30:00,79.1,69.3,30.12,North,355,1.0,6.0,72,0.00,,---,0.14,VWS V14.01,2013-05-18 22:30:00,
2013-05-18 18:31:00,79.0,69.2,30.12,ENE,59,0.0,1.0,72,0.00,,---,0.14,VWS V14.01,2013-05-18 22:31:00,
2013-05-18 18:32:00,79.0,69.2,30.12,NNE,28,0.0,1.0,72,0.00,,---,0.14,VWS V14.01,2013-05-18 22:32:00,
2013-05-18 18:33:00,79.0,68.4,30.12,North,5,0.0,5.0,70,0.00,,---,0.14,VWS V14.01,2013-05-18 22:33:00,
2013-05-18 18:34:00,79.1,68.5,30.12,North,9,0.0,5.0,70,0.00,,---,0.14,VWS V14.01,2013-05-18 22:34:00,
2013-05-18 18:35:00,79.2,68.6,30.12,NNW,345,0.0,5.0,70,0.00,,---,0.14,VWS V14.01,2013-05-18 22:35:00,
2013-05-18 18:36:00,79.4,68.8,30.12,NNW,344,1.0,5.0,70,0.00,,---,0.14,VWS V14.01,2013-05-18 22:36:00,
2013-05-18 18:37:00,79.5,68.9,30.12,NNW,340,1.0,5.0,70,0.00,,---,0.14,VWS V14.01,2013-05-18 22:37:00,
2013-05-18 18:38:00,79.8,67.9,30.12,NNW,330,6.0,7.0,67,0.00,,---,0.14,VWS V14.01,2013-05-18 22:38:00,
2013-05-18 18:39:00,80.0,67.6,30.12,NW,319,4.0,7.0,66,0.00,,---,0.14,VWS V14.01,2013-05-18 22:39:00,
2013-05-18 18:40:00,80.0,67.6,30.12,NNW,340,0.0,7.0,66,0.00,,---,0.14,VWS V14.01,2013-05-18 22:40:00,
2013-05-18 18:41:00,80.1,67.7,30.11,NNW,342,4.0,7.0,66,0.00,,---,0.14,VWS V14.01,2013-05-18 22:41:00,
2013-05-18 18:42:00,80.1,67.7,30.11,NNW,338,0.0,7.0,66,0.00,,---,0.14,VWS V14.01,2013-05-18 22:42:00,
2013-05-18 18:43:00,80.1,67.7,30.11,NNW,336,0.0,7.0,66,0.00,,---,0.14,VWS V14.01,2013-05-18 22:43:00,
2013-05-18 18:44:00,80.1,68.6,30.11,NNW,336,0.0,7.0,68,0.00,,---,0.14,VWS V14.01,2013-05-18 22:44:00,
2013-05-18 18:45:00,80.2,68.7,30.11,NNW,336,1.0,7.0,68,0.00,,---,0.14,VWS V14.01,2013-05-18 22:45:00,
2013-05-18 18:46:00,80.3,67.9,30.11,North,5,4.0,7.0,66,0.00,,---,0.14,VWS V14.01,2013-05-18 22:46:00,
2013-05-18 18:47:00,80.5,67.7,30.11,North,5,0.0,7.0,65,0.00,,---,0.14,VWS V14.01,2013-05-18 22:47:00,
2013-05-18 18:48:00,80.6,67.8,30.11,North,5,0.0,7.0,65,0.00,,---,0.14,VWS V14.01,2013-05-18 22:48:00,
2013-05-18 18:49:00,80.7,68.7,30.11,NW,316,0.0,7.0,67,0.00,,---,0.14,VWS V14.01,2013-05-18 22:49:00,
2013-05-18 18:50:00,80.9,66.7,30.11,NW,315,2.0,7.0,62,0.00,,---,0.14,VWS V14.01,2013-05-18 22:50:00,
2013-05-18 18:51:00,80.9,66.7,30.11,NW,315,0.0,7.0,62,0.00,,---,0.14,VWS V14.01,2013-05-18 22:51:00,
2013-05-18 18:52:00,80.9,67.1,30.11,NW,315,0.0,7.0,63,0.00,,---,0.14,VWS V14.01,2013-05-18 22:52:00,
2013-05-18 18:53:00,80.9,67.6,30.11,NW,315,0.0,7.0,64,0.00,,---,0.14,VWS V14.01,2013-05-18 22:53:00,
2013-05-18 18:54:00,80.9,67.1,30.11,NW,315,0.0,7.0,63,0.00,,---,0.14,VWS V14.01,2013-05-18 22:54:00,
2013-05-18 18:55:00,80.8,67.0,30.11,NW,315,0.0,7.0,63,0.00,,---,0.14,VWS V14.01,2013-05-18 22:55:00,
2013-05-18 18:56:00,80.8,67.5,30.11,NW,315,0.0,7.0,64,0.00,,---,0.14,VWS V14.01,2013-05-18 22:56:00,
2013-05-18 18:57:00,80.8,68.8,30.11,WNW,293,0.0,7.0,67,0.00,,---,0.14,VWS V14.01,2013-05-18 22:57:00,
2013-05-18 18:58:00,80.8,69.3,30.11,WNW,286,0.0,7.0,68,0.00,,---,0.14,VWS V14.01,2013-05-18 22:58:00,
2013-05-18 18:59:00,80.7,69.6,30.11,South,179,0.0,7.0,69,0.00,,---,0.14,VWS V14.01,2013-05-18 22:59:00,
2013-05-18 19:00:00,80.6,70.3,30.11,SSW,194,0.0,7.0,71,0.00,,---,0.14,VWS V14.01,2013-05-18 23:00:00,
2013-05-18 19:01:00,80.4,70.1,30.11,WSW,248,2.0,3.0,71,0.00,,---,0.14,VWS V14.01,2013-05-18 23:01:00,
2013-05-18 19:02:00,80.1,70.3,30.11,South,179,2.0,5.0,72,0.00,,---,0.14,VWS V14.01,2013-05-18 23:02:00,
2013-05-18 19:03:00,79.8,70.0,30.11,SSE,167,0.0,5.0,72,0.00,,---,0.14,VWS V14.01,2013-05-18 23:03:00,
2013-05-18 19:04:00,79.7,70.3,30.11,WSW,243,0.0,5.0,73,0.00,,---,0.14,VWS V14.01,2013-05-18 23:04:00,
2013-05-18 19:05:00,79.5,70.1,30.11,WSW,243,0.0,5.0,73,0.00,,---,0.14,VWS V14.01,2013-05-18 23:05:00,
2013-05-18 19:06:00,79.4,70.0,30.11,WSW,246,0.0,5.0,73,0.00,,---,0.14,VWS V14.01,2013-05-18 23:06:00,
2013-05-18 19:07:00,79.3,70.3,30.11,SW,217,0.0,5.0,74,0.00,,---,0.14,VWS V14.01,2013-05-18 23:07:00,
2013-05-18 19:08:00,79.3,70.3,30.11,South,190,0.0,5.0,74,0.00,,---,0.14,VWS V14.01,2013-05-18 23:08:00,
2013-05-18 19:09:00,79.1,70.1,30.11,West,263,0.0,5.0,74,0.00,,---,0.14,VWS V14.01,2013-05-18 23:09:00,
2013-05-18 19:10:00,79.1,70.1,30.11,West,263,0.0,5.0,74,0.00,,---,0.14,VWS V14.01,2013-05-18 23:10:00,
2013-05-18 19:11:00,79.1,70.5,30.11,West,263,0.0,5.0,75,0.00,,---,0.14,VWS V14.01,2013-05-18 23:11:00,
2013-05-18 19:12:00,79.1,70.5,30.11,West,265,0.0,5.0,75,0.00,,---,0.14,VWS V14.01,2013-05-18 23:12:00,
2013-05-18 19:13:00,79.2,70.6,30.10,West,266,0.0,5.0,75,0.00,,---,0.14,VWS V14.01,2013-05-18 23:13:00,
2013-05-18 19:14:00,79.3,71.1,30.10,West,266,0.0,5.0,76,0.00,,---,0.14,VWS V14.01,2013-05-18 23:14:00,
2013-05-18 19:15:00,79.4,70.8,30.10,West,267,0.0,5.0,75,0.00,,---,0.14,VWS V14.01,2013-05-18 23:15:00,
2013-05-18 19:16:00,79.4,70.4,30.10,WSW,255,0.0,5.0,74,0.00,,---,0.14,VWS V14.01,2013-05-18 23:16:00,
2013-05-18 19:17:00,79.4,70.4,30.10,WSW,255,1.0,5.0,74,0.00,,---,0.14,VWS V14.01,2013-05-18 23:17:00,
2013-05-18 19:18:00,79.4,70.0,30.10,WSW,255,0.0,5.0,73,0.00,,---,0.14,VWS V14.01,2013-05-18 23:18:00,
2013-05-18 19:19:00,79.4,70.0,30.10,WSW,255,0.0,5.0,73,0.00,,---,0.14,VWS V14.01,2013-05-18 23:19:00,
2013-05-18 19:20:00,79.4,70.0,30.10,WSW,255,0.0,5.0,73,0.00,,---,0.14,VWS V14.01,2013-05-18 23:20:00,
2013-05-18 19:21:00,79.5,70.1,30.10,WSW,255,0.0,5.0,73,0.00,,---,0.14,VWS V14.01,2013-05-18 23:21:00,
2013-05-18 19:22:00,79.5,69.7,30.10,WSW,255,0.0,5.0,72,0.00,,---,0.14,VWS V14.01,2013-05-18 23:22:00,
2013-05-18 19:23:00,79.5,69.3,30.10,WSW,255,3.0,5.0,71,0.00,,---,0.14,VWS V14.01,2013-05-18 23:23:00,
2013-05-18 19:24:00,79.6,68.1,30.10,WSW,248,0.0,5.0,68,0.00,,---,0.14,VWS V14.01,2013-05-18 23:24:00,
2013-05-18 19:25:00,79.6,68.5,30.10,WSW,248,0.0,5.0,69,0.00,,---,0.14,VWS V14.01,2013-05-18 23:25:00,
2013-05-18 19:26:00,79.7,68.6,30.10,NW,306,1.0,5.0,69,0.00,,---,0.14,VWS V14.01,2013-05-18 23:26:00,
2013-05-18 19:27:00,79.8,68.7,30.10,West,274,1.0,5.0,69,0.00,,---,0.14,VWS V14.01,2013-05-18 23:27:00,
2013-05-18 19:28:00,79.9,68.8,30.10,West,265,0.0,5.0,69,0.00,,---,0.14,VWS V14.01,2013-05-18 23:28:00,
2013-05-18 19:29:00,80.0,68.9,30.10,WNW,285,0.0,5.0,69,0.00,,---,0.14,VWS V14.01,2013-05-18 23:29:00,
2013-05-18 19:30:00,80.1,69.0,30.10,West,270,0.0,5.0,69,0.00,,---,0.14,VWS V14.01,2013-05-18 23:30:00,
2013-05-18 19:31:00,80.2,69.1,30.10,West,267,0.0,0.0,69,0.00,,---,0.14,VWS V14.01,2013-05-18 23:31:00,
2013-05-18 19:32:00,80.2,68.7,30.10,WNW,291,4.0,5.0,68,0.00,,---,0.14,VWS V14.01,2013-05-18 23:32:00,
2013-05-18 19:33:00,80.2,68.7,30.10,WNW,291,0.0,5.0,68,0.00,,---,0.14,VWS V14.01,2013-05-18 23:33:00,
2013-05-18 19:34:00,80.3,69.6,30.10,WNW,291,0.0,5.0,70,0.00,,---,0.14,VWS V14.01,2013-05-18 23:34:00,
2013-05-18 19:35:00,80.4,69.3,30.10,WNW,291,0.0,5.0,69,0.00,,---,0.14,VWS V14.01,2013-05-18 23:35:00,
2013-05-18 19:36:00,80.6,69.5,30.10,WNW,291,0.0,5.0,69,0.00,,---,0.14,VWS V14.01,2013-05-18 23:36:00,
2013-05-18 19:37:00,80.8,69.7,30.10,WSW,258,0.0,5.0,69,0.00,,---,0.14,VWS V14.01,2013-05-18 23:37:00,
2013-05-18 19:38:00,81.0,69.4,30.10,WSW,255,0.0,5.0,68,0.00,,---,0.14,VWS V14.01,2013-05-18 23:38:00,
2013-05-18 19:39:00,81.2,69.6,30.10,West,265,0.0,5.0,68,0.00,,---,0.14,VWS V14.01,2013-05-18 23:39:00,
2013-05-18 19:40:00,81.6,69.6,30.10,WSW,238,5.0,5.0,67,0.00,,---,0.14,VWS V14.01,2013-05-18 23:40:00,
2013-05-18 19:41:00,81.7,68.8,30.10,WNW,292,0.0,6.0,65,0.00,,---,0.14,VWS V14.01,2013-05-18 23:41:00,
2013-05-18 19:42:00,82.0,68.6,30.10,NW,326,1.0,6.0,64,0.00,,---,0.14,VWS V14.01,2013-05-18 23:42:00,
2013-05-18 19:43:00,82.1,69.6,30.10,NW,326,0.0,6.0,66,0.00,,---,0.14,VWS V14.01,2013-05-18 23:43:00,
2013-05-18 19:44:00,82.3,69.4,30.10,WNW,295,1.0,6.0,65,0.00,,---,0.14,VWS V14.01,2013-05-18 23:44:00,
2013-05-18 19:45:00,82.4,69.9,30.10,WSW,246,5.0,8.0,66,0.00,,---,0.14,VWS V14.01,2013-05-18 23:45:00,
2013-05-18 19:46:00,82.3,68.5,30.10,WSW,241,0.0,8.0,63,0.00,,---,0.14,VWS V14.01,2013-05-18 23:46:00,
2013-05-18 19:47:00,82.2,68.4,30.10,WSW,238,0.0,8.0,63,0.00,,---,0.14,VWS V14.01,2013-05-18 23:47:00,
2013-05-18 19:48:00,82.2,68.4,30.10,WNW,290,0.0,8.0,63,0.00,,---,0.14,VWS V14.01,2013-05-18 23:48:00,
2013-05-18 19:49:00,82.1,68.3,30.10,WNW,292,0.0,8.0,63,0.00,,---,0.14,VWS V14.01,2013-05-18 23:49:00,
2013-05-18 19:50:00,82.2,67.4,30.10,West,265,5.0,8.0,61,0.00,,---,0.14,VWS V14.01,2013-05-18 23:50:00,
2013-05-18 19:51:00,82.2,67.4,30.10,West,270,5.0,8.0,61,0.00,,---,0.14,VWS V14.01,2013-05-18 23:51:00,
2013-05-18 19:52:00,82.0,66.8,30.10,West,270,0.0,8.0,60,0.00,,---,0.14,VWS V14.01,2013-05-18 23:52:00,
2013-05-18 19:53:00,82.0,67.2,30.10,West,263,1.0,8.0,61,0.00,,---,0.14,VWS V14.01,2013-05-18 23:53:00,
2013-05-18 19:54:00,82.0,67.2,30.09,NW,307,2.0,8.0,61,0.00,,---,0.14,VWS V14.01,2013-05-18 23:54:00,
2013-05-18 19:55:00,82.0,67.2,30.09,NW,307,0.0,8.0,61,0.00,,---,0.14,VWS V14.01,2013-05-18 23:55:00,
2013-05-18 19:56:00,82.1,67.8,30.09,WSW,253,0.0,8.0,62,0.00,,---,0.14,VWS V14.01,2013-05-18 23:56:00,
2013-05-18 19:57:00,82.2,67.9,30.09,WSW,254,4.0,8.0,62,0.00,,---,0.14,VWS V14.01,2013-05-18 23:57:00,
2013-05-18 19:58:00,82.3,67.0,30.09,West,265,4.0,8.0,60,0.00,,---,0.14,VWS V14.01,2013-05-18 23:58:00,
2013-05-18 19:59:00,82.2,66.9,30.09,WSW,257,0.0,8.0,60,0.00,,---,0.14,VWS V14.01,2013-05-18 23:59:00,
2013-05-18 20:00:00,82.2,66.9,30.09,West,263,0.0,8.0,60,0.00,,---,0.14,VWS V14.01,2013-05-19 00:00:00,
2013-05-18 20:01:00,82.2,67.4,30.09,WSW,258,4.0,6.0,61,0.00,,---,0.14,VWS V14.01,2013-05-19 00:01:00,
2013-05-18 20:02:00,82.2,66.9,30.09,WSW,247,0.0,6.0,60,0.00,,---,0.14,VWS V14.01,2013-05-19 00:02:00,
2013-05-18 20:03:00,82.2,66.9,30.09,West,273,0.0,6.0,60,0.00,,---,0.14,VWS V14.01,2013-05-19 00:03:00,
2013-05-18 20:04:00,82.2,66.9,30.09,West,273,0.0,6.0,60,0.00,,---,0.14,VWS V14.01,2013-05-19 00:04:00,
2013-05-18 20:05:00,82.3,67.5,30.09,WNW,298,1.0,6.0,61,0.00,,---,0.14,VWS V14.01,2013-05-19 00:05:00,
2013-05-18 20:06:00,82.4,67.6,30.09,NW,310,4.0,6.0,61,0.00,,---,0.14,VWS V14.01,2013-05-19 00:06:00,
2013-05-18 20:07:00,82.5,67.2,30.09,NNW,343,9.0,9.0,60,0.00,,---,0.14,VWS V14.01,2013-05-19 00:07:00,
2013-05-18 20:08:00,82.6,66.8,30.09,NNW,341,5.0,9.0,59,0.00,,---,0.14,VWS V14.01,2013-05-19 00:08:00,
2013-05-18 20:09:00,82.7,66.9,30.09,WNW,294,3.0,9.0,59,0.00,,---,0.14,VWS V14.01,2013-05-19 00:09:00,
2013-05-18 20:10:00,82.8,66.0,30.09,WNW,290,1.0,9.0,57,0.00,,---,0.14,VWS V14.01,2013-05-19 00:10:00,
2013-05-18 20:11:00,82.9,66.1,30.09,NNW,330,2.0,9.0,57,0.00,,---,0.14,VWS V14.01,2013-05-19 00:11:00,
2013-05-18 20:12:00,83.1,66.8,30.09,NW,315,1.0,9.0,58,0.00,,---,0.14,VWS V14.01,2013-05-19 00:12:00,
2013-05-18 20:13:00,83.2,65.9,30.09,NNW,334,0.0,9.0,56,0.00,,---,0.14,VWS V14.01,2013-05-19 00:13:00,
2013-05-18 20:14:00,83.2,65.9,30.09,NNW,334,0.0,9.0,56,0.00,,---,0.14,VWS V14.01,2013-05-19 00:14:00,
2013-05-18 20:15:00,83.3,66.5,30.09,WNW,296,0.0,9.0,57,0.00,,---,0.14,VWS V14.01,2013-05-19 00:15:00,
2013-05-18 20:16:00,83.5,67.2,30.09,West,268,0.0,9.0,58,0.00,,---,0.14,VWS V14.01,2013-05-19 00:16:00,
2013-05-18 20:17:00,83.6,66.8,30.09,West,267,2.0,9.0,57,0.00,,---,0.14,VWS V14.01,2013-05-19 00:17:00,
2013-05-18 20:18:00,83.6,65.7,30.09,West,276,3.0,9.0,55,0.00,,---,0.14,VWS V14.01,2013-05-19 00:18:00,
2013-05-18 20:19:00,83.6,66.3,30.09,West,276,0.0,9.0,56,0.00,,---,0.14,VWS V14.01,2013-05-19 00:19:00,
2013-05-18 20:20:00,83.5,66.2,30.08,West,276,0.0,9.0,56,0.00,,---,0.14,VWS V14.01,2013-05-19 00:20:00,
2013-05-18 20:21:00,83.4,66.1,30.08,WNW,302,3.0,9.0,56,0.00,,---,0.14,VWS V14.01,2013-05-19 00:21:00,
2013-05-18 20:22:00,83.4,66.6,30.08,SW,236,0.0,9.0,57,0.00,,---,0.14,VWS V14.01,2013-05-19 00:22:00,
2013-05-18 20:23:00,83.5,66.7,30.08,SW,236,5.0,9.0,57,0.00,,---,0.14,VWS V14.01,2013-05-19 00:23:00,
2013-05-18 20:24:00,83.5,66.7,30.08,WSW,253,0.0,9.0,57,0.00,,---,0.14,VWS V14.01,2013-05-19 00:24:00,
2013-05-18 20:25:00,83.5,66.2,30.08,NW,321,0.0,9.0,56,0.00,,---,0.14,VWS V14.01,2013-05-19 00:25:00,
2013-05-18 20:26:00,83.6,67.3,30.08,WSW,257,2.0,9.0,58,0.00,,---,0.14,VWS V14.01,2013-05-19 00:26:00,
2013-05-18 20:27:00,83.7,67.9,30.08,ESE,115,2.0,9.0,59,0.00,,---,0.14,VWS V14.01,2013-05-19 00:27:00,
2013-05-18 20:28:00,83.8,66.4,30.08,WSW,246,0.0,9.0,56,0.00,,---,0.14,VWS V14.01,2013-05-19 00:28:00,
2013-05-18 20:29:00,83.7,65.8,30.08,West,267,4.0,9.0,55,0.00,,---,0.14,VWS V14.01,2013-05-19 00:29:00,
2013-05-18 20:30:00,83.6,66.3,30.08,WSW,241,0.0,0.0,56,0.00,,---,0.14,VWS V14.01,2013-05-19 00:30:00,
2013-05-18 20:31:00,83.5,65.7,30.08,WNW,288,0.0,5.0,55,0.00,,---,0.14,VWS V14.01,2013-05-19 00:31:00,
2013-05-18 20:32:00,83.4,66.1,30.08,NW,310,0.0,5.0,56,0.00,,---,0.14,VWS V14.01,2013-05-19 00:32:00,
2013-05-18 20:33:00,83.3,66.5,30.08,West,279,5.0,7.0,57,0.00,,---,0.14,VWS V14.01,2013-05-19 00:33:00,
2013-05-18 20:34:00,83.1,66.3,30.08,NW,309,0.0,7.0,57,0.00,,---,0.14,VWS V14.01,2013-05-19 00:34:00,
2013-05-18 20:35:00,82.9,66.1,30.08,WNW,295,0.0,7.0,57,0.00,,---,0.14,VWS V14.01,2013-05-19 00:35:00,
2013-05-18 20:36:00,82.8,67.0,30.08,WNW,292,0.0,7.0,59,0.00,,---,0.14,VWS V14.01,2013-05-19 00:36:00,
2013-05-18 20:37:00,82.7,66.9,30.08,West,264,4.0,7.0,59,0.00,,---,0.14,VWS V14.01,2013-05-19 00:37:00,
2013-05-18 20:38:00,82.7,66.9,30.08,WNW,284,0.0,7.0,59,0.00,,---,0.14,VWS V14.01,2013-05-19 00:38:00,
2013-05-18 20:39:00,82.6,66.8,30.07,WNW,284,0.0,7.0,59,0.00,,---,0.14,VWS V14.01,2013-05-19 00:39:00,
2013-05-18 20:40:00,82.6,66.3,30.07,WNW,284,0.0,7.0,58,0.00,,---,0.14,VWS V14.01,2013-05-19 00:40:00,
2013-05-18 20:41:00,82.6,66.3,30.07,West,270,7.0,8.0,58,0.00,,---,0.14,VWS V14.01,2013-05-19 00:41:00,
2013-05-18 20:42:00,82.5,66.2,30.07,West,276,0.0,8.0,58,0.00,,---,0.14,VWS V14.01,2013-05-19 00:42:00,
2013-05-18 20:43:00,82.3,66.6,30.07,West,277,4.0,8.0,59,0.00,,---,0.14,VWS V14.01,2013-05-19 00:43:00,
2013-05-18 20:44:00,82.3,66.6,30.07,West,269,2.0,8.0,59,0.00,,---,0.14,VWS V14.01,2013-05-19 00:44:00,
2013-05-18 20:45:00,82.3,67.0,30.07,West,261,1.0,8.0,60,0.00,,---,0.14,VWS V14.01,2013-05-19 00:45:00,
2013-05-18 20:46:00,82.4,67.1,30.07,WNW,284,0.0,8.0,60,0.00,,---,0.14,VWS V14.01,2013-05-19 00:46:00,
2013-05-18 20:47:00,82.5,66.2,30.07,NW,312,7.0,8.0,58,0.00,,---,0.14,VWS V14.01,2013-05-19 00:47:00,
2013-05-18 20:48:00,82.5,65.8,30.07,North,355,4.0,8.0,57,0.00,,---,0.14,VWS V14.01,2013-05-19 00:48:00,
2013-05-18 20:49:00,82.4,65.7,30.07,NW,318,2.0,8.0,57,0.00,,---,0.14,VWS V14.01,2013-05-19 00:49:00,
2013-05-18 20:50:00,82.4,66.2,30.07,WNW,295,2.0,8.0,58,0.00,,---,0.14,VWS V14.01,2013-05-19 00:50:00,
2013-05-18 20:51:00,82.4,66.2,30.07,NNE,20,5.0,8.0,58,0.00,,---,0.14,VWS V14.01,2013-05-19 00:51:00,
2013-05-18 20:52:00,82.4,66.2,30.07,NW,317,3.0,8.0,58,0.00,,---,0.14,VWS V14.01,2013-05-19 00:52:00,
2013-05-18 20:53:00,82.4,66.7,30.07,NNW,334,6.0,9.0,59,0.00,,---,0.14,VWS V14.01,2013-05-19 00:53:00,
2013-05-18 20:54:00,82.4,67.1,30.07,WNW,286,4.0,9.0,60,0.00,,---,0.14,VWS V14.01,2013-05-19 00:54:00,
2013-05-18 20:55:00,82.3,67.5,30.07,WNW,293,1.0,10.0,61,0.00,,---,0.14,VWS V14.01,2013-05-19 00:55:00,
2013-05-18 20:56:00,82.1,67.8,30.07,WNW,291,2.0,10.0,62,0.00,,---,0.14,VWS V14.01,2013-05-19 00:56:00,
2013-05-18 20:57:00,82.0,67.7,30.07,North,350,11.0,12.0,62,0.00,,---,0.14,VWS V14.01,2013-05-19 00:57:00,
2013-05-18 20:58:00,81.7,67.9,30.07,NW,319,7.0,13.0,63,0.00,,---,0.14,VWS V14.01,2013-05-19 00:58:00,
2013-05-18 20:59:00,81.4,68.5,30.07,NNW,344,4.0,13.0,65,0.00,,---,0.14,VWS V14.01,2013-05-19 00:59:00,
2013-05-18 21:00:00,81.3,68.9,30.07,NNW,345,8.0,13.0,66,0.00,,---,0.14,VWS V14.01,2013-05-19 01:00:00,
2013-05-18 21:01:00,81.1,68.7,30.08,West,274,7.0,12.0,66,0.00,,---,0.14,VWS V14.01,2013-05-19 01:01:00,
2013-05-18 21:02:00,80.8,68.8,30.08,WNW,296,8.0,12.0,67,0.00,,---,0.14,VWS V14.01,2013-05-19 01:02:00,
2013-05-18 21:03:00,80.6,68.6,30.07,West,275,5.0,12.0,67,0.00,,---,0.14,VWS V14.01,2013-05-19 01:03:00,
2013-05-18 21:04:00,80.3,68.8,30.07,WNW,303,1.0,12.0,68,0.00,,---,0.14,VWS V14.01,2013-05-19 01:04:00,
2013-05-18 21:05:00,80.2,68.7,30.08,West,279,6.0,12.0,68,0.00,,---,0.14,VWS V14.01,2013-05-19 01:05:00,
2013-05-18 21:06:00,80.0,68.5,30.08,WNW,303,3.0,12.0,68,0.00,,---,0.14,VWS V14.01,2013-05-19 01:06:00,
2013-05-18 21:07:00,80.0,67.2,30.08,NW,309,5.0,12.0,65,0.00,,---,0.14,VWS V14.01,2013-05-19 01:07:00,
2013-05-18 21:08:00,79.9,67.1,30.08,NNW,341,9.0,12.0,65,0.00,,---,0.14,VWS V14.01,2013-05-19 01:08:00,
2013-05-18 21:09:00,80.0,67.2,30.08,NNW,335,5.0,12.0,65,0.00,,---,0.14,VWS V14.01,2013-05-19 01:09:00,
2013-05-18 21:10:00,79.9,67.5,30.08,NNW,345,6.0,12.0,66,0.00,,---,0.14,VWS V14.01,2013-05-19 01:10:00,
2013-05-18 21:11:00,79.9,67.5,30.08,NNE,14,11.0,13.0,66,0.00,,---,0.14,VWS V14.01,2013-05-19 01:11:00,
2013-05-18 21:12:00,79.8,67.9,30.08,North,351,6.0,13.0,67,0.00,,---,0.14,VWS V14.01,2013-05-19 01:12:00,
2013-05-18 21:13:00,79.7,67.8,30.08,North,5,7.0,13.0,67,0.00,,---,0.14,VWS V14.01,2013-05-19 01:13:00,
2013-05-18 21:14:00,79.6,68.1,30.08,North,355,8.0,13.0,68,0.00,,---,0.14,VWS V14.01,2013-05-19 01:14:00,
2013-05-18 21:15:00,79.5,68.4,30.08,NNE,13,7.0,19.0,69,0.00,,---,0.14,VWS V14.01,2013-05-19 01:15:00,
2013-05-18 21:16:00,78.8,67.8,30.08,NNE,15,9.0,19.0,69,0.00,,---,0.14,VWS V14.01,2013-05-19 01:16:00,
2013-05-18 21:17:00,78.3,67.7,30.09,North,350,4.0,19.0,70,0.00,,---,0.14,VWS V14.01,2013-05-19 01:17:00,
2013-05-18 21:18:00,77.8,67.2,30.09,North,355,11.0,19.0,70,0.00,,---,0.14,VWS V14.01,2013-05-19 01:18:00,
2013-05-18 21:19:00,77.2,67.1,30.09,NNW,334,8.0,19.0,71,0.00,,---,0.14,VWS V14.01,2013-05-19 01:19:00,
2013-05-18 21:20:00,76.4,66.3,30.09,North,350,13.0,19.0,71,0.00,,---,0.14,VWS V14.01,2013-05-19 01:20:00,
2013-05-18 21:21:00,75.8,66.5,30.09,North,350,7.0,19.0,73,0.00,,---,0.14,VWS V14.01,2013-05-19 01:21:00,
2013-05-18 21:22:00,75.3,66.8,30.09,NNE,19,8.0,19.0,75,0.00,,---,0.14,VWS V14.01,2013-05-19 01:22:00,
2013-05-18 21:23:00,75.0,66.6,30.09,North,5,9.0,19.0,75,0.00,,---,0.14,VWS V14.01,2013-05-19 01:23:00,
2013-05-18 21:24:00,74.8,66.7,30.09,North,355,5.0,19.0,76,0.00,,---,0.14,VWS V14.01,2013-05-19 01:24:00,
2013-05-18 21:25:00,74.5,66.4,30.09,North,360,5.0,19.0,76,0.00,,---,0.14,VWS V14.01,2013-05-19 01:25:00,
2013-05-18 21:26:00,74.3,66.6,30.09,North,5,6.0,19.0,77,0.00,,---,0.14,VWS V14.01,2013-05-19 01:26:00,
2013-05-18 21:27:00,74.2,66.5,30.09,North,5,5.0,19.0,77,0.00,,---,0.14,VWS V14.01,2013-05-19 01:27:00,
2013-05-18 21:28:00,74.0,66.7,30.09,NNW,342,4.0,19.0,78,0.00,,---,0.14,VWS V14.01,2013-05-19 01:28:00,
2013-05-18 21:29:00,73.8,66.5,30.09,North,360,2.0,19.0,78,0.00,,---,0.14,VWS V14.01,2013-05-19 01:29:00,
2013-05-18 21:30:00,73.6,67.1,30.09,WNW,302,7.0,19.0,80,0.00,,---,0.14,VWS V14.01,2013-05-19 01:30:00,
2013-05-18 21:31:00,73.4,67.6,30.09,NNW,330,8.0,10.0,82,0.01,,---,0.15,VWS V14.01,2013-05-19 01:31:00,
2013-05-18 21:32:00,73.1,67.6,30.09,NNW,342,7.0,12.0,83,0.02,,---,0.16,VWS V14.01,2013-05-19 01:32:00,
2013-05-18 21:33:00,72.6,67.2,30.09,NNW,331,7.0,12.0,83,0.03,,---,0.17,VWS V14.01,2013-05-19 01:33:00,
2013-05-18 21:34:00,72.2,67.1,30.09,NNW,348,5.0,12.0,84,0.05,,---,0.19,VWS V14.01,2013-05-19 01:34:00,
2013-05-18 21:35:00,71.9,67.2,30.09,NNW,339,6.0,12.0,85,0.06,,---,0.20,VWS V14.01,2013-05-19 01:35:00,
2013-05-18 21:36:00,71.7,67.3,30.09,North,360,3.0,12.0,86,0.08,,---,0.22,VWS V14.01,2013-05-19 01:36:00,
2013-05-18 21:37:00,71.5,67.1,30.09,North,349,11.0,12.0,86,0.10,,---,0.24,VWS V14.01,2013-05-19 01:37:00,
2013-05-18 21:38:00,71.2,66.8,30.09,North,355,10.0,13.0,86,0.11,,---,0.25,VWS V14.01,2013-05-19 01:38:00,
2013-05-18 21:39:00,71.0,66.6,30.09,NNW,332,7.0,13.0,86,0.12,,---,0.26,VWS V14.01,2013-05-19 01:39:00,
2013-05-18 21:40:00,70.9,66.8,30.09,NW,317,7.0,13.0,87,0.14,,---,0.28,VWS V14.01,2013-05-19 01:40:00,
2013-05-18 21:41:00,70.7,66.7,30.09,NW,312,6.0,13.0,87,0.15,,---,0.29,VWS V14.01,2013-05-19 01:41:00,
2013-05-18 21:42:00,70.6,66.6,30.09,NNW,344,1.0,13.0,87,0.16,,---,0.30,VWS V14.01,2013-05-19 01:42:00,
2013-05-18 21:43:00,70.6,66.6,30.09,NNW,332,1.0,13.0,87,0.17,,---,0.31,VWS V14.01,2013-05-19 01:43:00,
2013-05-18 21:44:00,70.5,66.8,30.08,NNW,342,6.0,13.0,88,0.17,,---,0.31,VWS V14.01,2013-05-19 01:44:00,
2013-05-18 21:45:00,70.5,66.8,30.08,NW,307,0.0,13.0,88,0.18,,---,0.32,VWS V14.01,2013-05-19 01:45:00,
2013-05-18 21:46:00,70.4,66.7,30.08,NNW,332,6.0,13.0,88,0.18,,---,0.32,VWS V14.01,2013-05-19 01:46:00,
2013-05-18 21:47:00,70.4,66.7,30.08,NNW,327,4.0,13.0,88,0.18,,---,0.32,VWS V14.01,2013-05-19 01:47:00,
2013-05-18 21:48:00,70.4,66.7,30.08,WNW,282,0.0,13.0,88,0.19,,---,0.33,VWS V14.01,2013-05-19 01:48:00,
2013-05-18 21:49:00,70.3,66.9,30.08,WNW,298,0.0,13.0,89,0.19,,---,0.33,VWS V14.01,2013-05-19 01:49:00,
2013-05-18 21:50:00,70.3,66.9,30.08,WNW,282,0.0,13.0,89,0.19,,---,0.33,VWS V14.01,2013-05-19 01:50:00,
2013-05-18 21:51:00,70.3,66.6,30.08,WNW,301,5.0,13.0,88,0.19,,---,0.33,VWS V14.01,2013-05-19 01:51:00,
2013-05-18 21:52:00,70.3,66.9,30.08,WNW,288,4.0,13.0,89,0.19,,---,0.33,VWS V14.01,2013-05-19 01:52:00,
2013-05-18 21:53:00,70.2,66.5,30.08,WNW,288,3.0,13.0,88,0.19,,---,0.33,VWS V14.01,2013-05-19 01:53:00,
2013-05-18 21:54:00,70.2,66.5,30.08,NW,309,5.0,13.0,88,0.19,,---,0.33,VWS V14.01,2013-05-19 01:54:00,
2013-05-18 21:55:00,70.2,66.5,30.08,NNW,345,3.0,13.0,88,0.19,,---,0.33,VWS V14.01,2013-05-19 01:55:00,
2013-05-18 21:56:00,70.3,66.6,30.08,NNW,340,0.0,13.0,88,0.19,,---,0.33,VWS V14.01,2013-05-19 01:56:00,
2013-05-18 21:57:00,70.3,66.9,30.08,NW,317,0.0,13.0,89,0.19,,---,0.33,VWS V14.01,2013-05-19 01:57:00,
2013-05-18 21:58:00,70.3,66.9,30.08,NW,318,0.0,13.0,89,0.19,,---,0.33,VWS V14.01,2013-05-19 01:58:00,
2013-05-18 21:59:00,70.4,66.7,30.08,NW,318,0.0,13.0,88,0.19,,---,0.33,VWS V14.01,2013-05-19 01:59:00,
2013-05-18 22:00:00,70.4,67.0,30.08,NW,313,0.0,0.0,89,0.19,,---,0.33,VWS V14.01,2013-05-19 02:00:00,
2013-05-18 22:01:00,70.4,66.7,30.08,West,264,0.0,1.0,88,0.19,,---,0.33,VWS V14.01,2013-05-19 02:01:00,
2013-05-18 22:02:00,70.4,66.7,30.08,WNW,284,0.0,3.0,88,0.19,,---,0.33,VWS V14.01,2013-05-19 02:02:00,
2013-05-18 22:03:00,70.4,66.7,30.08,WNW,282,0.0,3.0,88,0.19,,---,0.33,VWS V14.01,2013-05-19 02:03:00,
2013-05-18 22:04:00,70.4,66.7,30.08,NW,324,1.0,3.0,88,0.19,,---,0.33,VWS V14.01,2013-05-19 02:04:00,
2013-05-18 22:05:00,70.4,66.7,30.08,NW,324,0.0,3.0,88,0.19,,---,0.33,VWS V14.01,2013-05-19 02:05:00,
2013-05-18 22:06:00,70.4,66.7,30.08,NW,324,0.0,3.0,88,0.19,,---,0.33,VWS V14.01,2013-05-19 02:06:00,
2013-05-18 22:07:00,70.4,66.7,30.07,WSW,249,0.0,3.0,88,0.19,,---,0.33,VWS V14.01,2013-05-19 02:07:00,
2013-05-18 22:08:00,70.5,66.8,30.07,West,265,0.0,4.0,88,0.19,,---,0.33,VWS V14.01,2013-05-19 02:08:00,
2013-05-18 22:09:00,70.5,66.8,30.07,West,265,0.0,4.0,88,0.20,,---,0.34,VWS V14.01,2013-05-19 02:09:00,
2013-05-18 22:10:00,70.5,67.1,30.07,West,267,0.0,4.0,89,0.20,,---,0.34,VWS V14.01,2013-05-19 02:10:00,
2013-05-18 22:11:00,70.6,67.2,30.07,West,270,0.0,5.0,89,0.20,,---,0.34,VWS V14.01,2013-05-19 02:11:00,
2013-05-18 22:12:00,70.6,67.2,30.08,WNW,283,0.0,5.0,89,0.20,,---,0.34,VWS V14.01,2013-05-19 02:12:00,
2013-05-18 22:13:00,70.6,67.2,30.08,West,269,0.0,5.0,89,0.20,,---,0.34,VWS V14.01,2013-05-19 02:13:00,
2013-05-18 22:14:00,70.7,67.3,30.08,West,269,0.0,5.0,89,0.20,,---,0.34,VWS V14.01,2013-05-19 02:14:00,
2013-05-18 22:15:00,70.7,67.3,30.08,West,275,0.0,5.0,89,0.20,,---,0.34,VWS V14.01,2013-05-19 02:15:00,
2013-05-18 22:16:00,70.6,67.2,30.08,WNW,286,1.0,5.0,89,0.20,,---,0.34,VWS V14.01,2013-05-19 02:16:00,
2013-05-18 22:17:00,70.6,67.2,30.08,WNW,286,0.0,5.0,89,0.20,,---,0.34,VWS V14.01,2013-05-19 02:17:00,
2013-05-18 22:18:00,70.6,67.2,30.08,WNW,286,0.0,5.0,89,0.20,,---,0.34,VWS V14.01,2013-05-19 02:18:00,
2013-05-18 22:19:00,70.7,67.3,30.08,West,273,2.0,7.0,89,0.20,,---,0.34,VWS V14.01,2013-05-19 02:19:00,
2013-05-18 22:20:00,70.7,67.3,30.08,NW,323,1.0,7.0,89,0.20,,---,0.34,VWS V14.01,2013-05-19 02:20:00,
2013-05-18 22:21:00,70.8,67.4,30.08,WNW,296,4.0,7.0,89,0.20,,---,0.34,VWS V14.01,2013-05-19 02:21:00,
2013-05-18 22:22:00,70.8,67.4,30.08,WNW,286,3.0,7.0,89,0.20,,---,0.34,VWS V14.01,2013-05-19 02:22:00,
2013-05-18 22:23:00,70.8,67.7,30.08,WNW,282,1.0,7.0,90,0.20,,---,0.34,VWS V14.01,2013-05-19 02:23:00,
2013-05-18 22:24:00,70.8,67.7,30.08,WNW,287,0.0,7.0,90,0.20,,---,0.34,VWS V14.01,2013-05-19 02:24:00,
2013-05-18 22:25:00,70.9,67.8,30.08,West,272,0.0,7.0,90,0.20,,---,0.34,VWS V14.01,2013-05-19 02:25:00,
2013-05-18 22:26:00,71.0,67.9,30.08,WNW,283,0.0,7.0,90,0.20,,---,0.34,VWS V14.01,2013-05-19 02:26:00,
2013-05-18 22:27:00,71.0,67.9,30.08,NW,319,0.0,7.0,90,0.20,,---,0.34,VWS V14.01,2013-05-19 02:27:00,
2013-05-18 22:28:00,71.1,68.0,30.08,NW,319,0.0,7.0,90,0.20,,---,0.34,VWS V14.01,2013-05-19 02:28:00,
2013-05-18 22:29:00,71.1,68.0,30.08,WNW,294,5.0,7.0,90,0.20,,---,0.34,VWS V14.01,2013-05-19 02:29:00,
2013-05-18 22:30:00,71.1,68.0,30.08,NW,317,0.0,7.0,90,0.20,,---,0.34,VWS V14.01,2013-05-19 02:30:00,
2013-05-18 22:31:00,71.2,68.1,30.08,WNW,293,0.0,3.0,90,0.20,,---,0.34,VWS V14.01,2013-05-19 02:31:00,
2013-05-18 22:32:00,71.2,68.4,30.08,WNW,293,0.0,3.0,91,0.20,,---,0.34,VWS V14.01,2013-05-19 02:32:00,
2013-05-18 22:33:00,71.2,68.4,30.08,NNW,345,8.0,8.0,91,0.20,,---,0.34,VWS V14.01,2013-05-19 02:33:00,
2013-05-18 22:34:00,71.3,68.5,30.08,NNE,30,1.0,8.0,91,0.20,,---,0.34,VWS V14.01,2013-05-19 02:34:00,
2013-05-18 22:35:00,71.4,68.6,30.08,North,9,2.0,8.0,91,0.20,,---,0.34,VWS V14.01,2013-05-19 02:35:00,
2013-05-18 22:36:00,71.4,68.6,30.08,North,10,4.0,8.0,91,0.20,,---,0.34,VWS V14.01,2013-05-19 02:36:00,
2013-05-18 22:37:00,71.5,68.7,30.08,NNE,17,0.0,8.0,91,0.20,,---,0.34,VWS V14.01,2013-05-19 02:37:00,
2013-05-18 22:38:00,71.5,68.7,30.08,NNE,26,0.0,8.0,91,0.20,,---,0.34,VWS V14.01,2013-05-19 02:38:00,
2013-05-18 22:39:00,71.5,68.7,30.08,North,355,2.0,8.0,91,0.20,,---,0.34,VWS V14.01,2013-05-19 02:39:00,
2013-05-18 22:40:00,71.5,68.7,30.08,North,351,1.0,8.0,91,0.20,,---,0.34,VWS V14.01,2013-05-19 02:40:00,
2013-05-18 22:41:00,71.5,68.7,30.08,NNW,348,0.0,8.0,91,0.21,,---,0.35,VWS V14.01,2013-05-19 02:41:00,
2013-05-18 22:42:00,71.5,68.7,30.08,NNW,348,0.0,8.0,91,0.21,,---,0.35,VWS V14.01,2013-05-19 02:42:00,
2013-05-18 22:43:00,71.5,68.7,30.08,West,277,0.0,8.0,91,0.21,,---,0.35,VWS V14.01,2013-05-19 02:43:00,
2013-05-18 22:44:00,71.5,68.7,30.08,WNW,286,0.0,8.0,91,0.22,,---,0.36,VWS V14.01,2013-05-19 02:44:00,
2013-05-18 22:45:00,71.4,68.6,30.08,West,277,0.0,8.0,91,0.22,,---,0.36,VWS V14.01,2013-05-19 02:45:00,
2013-05-18 22:46:00,71.4,68.6,30.08,West,278,0.0,8.0,91,0.22,,---,0.36,VWS V14.01,2013-05-19 02:46:00,
2013-05-18 22:47:00,71.4,68.6,30.08,NW,314,3.0,8.0,91,0.22,,---,0.36,VWS V14.01,2013-05-19 02:47:00,
2013-05-18 22:48:00,71.4,68.6,30.08,WNW,298,0.0,8.0,91,0.22,,---,0.36,VWS V14.01,2013-05-19 02:48:00,
2013-05-18 22:49:00,71.5,68.7,30.08,NNW,344,0.0,8.0,91,0.22,,---,0.36,VWS V14.01,2013-05-19 02:49:00,
2013-05-18 22:50:00,71.5,69.1,30.08,West,275,0.0,8.0,92,0.22,,---,0.36,VWS V14.01,2013-05-19 02:50:00,
2013-05-18 22:51:00,71.5,68.7,30.08,West,266,0.0,8.0,91,0.22,,---,0.36,VWS V14.01,2013-05-19 02:51:00,
2013-05-18 22:52:00,71.5,68.7,30.08,West,273,0.0,8.0,91,0.22,,---,0.36,VWS V14.01,2013-05-19 02:52:00,
2013-05-18 22:53:00,71.5,68.7,30.08,WSW,240,4.0,8.0,91,0.22,,---,0.36,VWS V14.01,2013-05-19 02:53:00,
2013-05-18 22:54:00,71.5,68.7,30.07,WSW,244,0.0,8.0,91,0.22,,---,0.36,VWS V14.01,2013-05-19 02:54:00,
2013-05-18 22:55:00,71.5,69.1,30.07,West,277,0.0,8.0,92,0.22,,---,0.36,VWS V14.01,2013-05-19 02:55:00,
2013-05-18 22:56:00,71.5,69.1,30.07,West,259,0.0,8.0,92,0.22,,---,0.36,VWS V14.01,2013-05-19 02:56:00,
2013-05-18 22:57:00,71.5,69.1,30.07,WSW,258,0.0,8.0,92,0.22,,---,0.36,VWS V14.01,2013-05-19 02:57:00,
2013-05-18 22:58:00,71.5,69.1,30.08,WNW,292,0.0,8.0,92,0.22,,---,0.36,VWS V14.01,2013-05-19 02:58:00,
2013-05-18 22:59:00,71.5,69.1,30.08,NW,317,0.0,8.0,92,0.22,,---,0.36,VWS V14.01,2013-05-19 02:59:00,
2013-05-18 23:00:00,71.5,69.1,30.08,SW,222,7.0,7.0,92,0.03,,---,0.36,VWS V14.01,2013-05-19 03:00:00,
2013-05-18 23:01:00,71.5,69.1,30.08,WNW,294,0.0,7.0,92,0.03,,---,0.36,VWS V14.01,2013-05-19 03:01:00,
2013-05-18 23:02:00,71.5,68.7,30.08,WNW,296,0.0,7.0,91,0.03,,---,0.36,VWS V14.01,2013-05-19 03:02:00,
2013-05-18 23:03:00,71.5,69.1,30.08,WSW,252,0.0,7.0,92,0.03,,---,0.36,VWS V14.01,2013-05-19 03:03:00,
2013-05-18 23:04:00,71.5,69.1,30.08,West,265,0.0,7.0,92,0.03,,---,0.36,VWS V14.01,2013-05-19 03:04:00,
2013-05-18 23:05:00,71.5,68.7,30.08,West,279,0.0,7.0,91,0.03,,---,0.36,VWS V14.01,2013-05-19 03:05:00,
2013-05-18 23:06:00,71.4,68.6,30.08,WSW,248,0.0,7.0,91,0.03,,---,0.36,VWS V14.01,2013-05-19 03:06:00,
2013-05-18 23:07:00,71.4,68.6,30.08,WNW,303,0.0,7.0,91,0.03,,---,0.36,VWS V14.01,2013-05-19 03:07:00,
2013-05-18 23:08:00,71.4,68.6,30.08,WSW,252,5.0,7.0,91,0.03,,---,0.36,VWS V14.01,2013-05-19 03:08:00,
2013-05-18 23:09:00,71.4,68.6,30.08,WSW,257,0.0,7.0,91,0.03,,---,0.36,VWS V14.01,2013-05-19 03:09:00,
2013-05-18 23:10:00,71.4,68.6,30.08,WSW,240,0.0,7.0,91,0.03,,---,0.36,VWS V14.01,2013-05-19 03:10:00,
2013-05-18 23:11:00,71.4,68.6,30.08,WSW,252,0.0,7.0,91,0.03,,---,0.36,VWS V14.01,2013-05-19 03:11:00,
2013-05-18 23:12:00,71.4,68.6,30.08,WSW,254,0.0,7.0,91,0.03,,---,0.36,VWS V14.01,2013-05-19 03:12:00,
2013-05-18 23:13:00,71.4,68.6,30.08,West,269,1.0,7.0,91,0.03,,---,0.36,VWS V14.01,2013-05-19 03:13:00,
2013-05-18 23:14:00,71.3,68.5,30.08,WNW,288,1.0,7.0,91,0.03,,---,0.36,VWS V14.01,2013-05-19 03:14:00,
2013-05-18 23:15:00,71.3,68.5,30.08,WNW,292,0.0,7.0,91,0.03,,---,0.36,VWS V14.01,2013-05-19 03:15:00,
2013-05-18 23:16:00,71.3,68.5,30.08,WNW,292,0.0,7.0,91,0.03,,---,0.36,VWS V14.01,2013-05-19 03:16:00,
2013-05-18 23:17:00,71.3,68.5,30.08,WNW,298,0.0,7.0,91,0.03,,---,0.36,VWS V14.01,2013-05-19 03:17:00,
2013-05-18 23:18:00,71.3,68.5,30.08,WNW,298,0.0,7.0,91,0.03,,---,0.36,VWS V14.01,2013-05-19 03:18:00,
2013-05-18 23:19:00,71.3,68.5,30.08,WNW,297,0.0,7.0,91,0.03,,---,0.36,VWS V14.01,2013-05-19 03:19:00,
2013-05-18 23:20:00,71.3,68.5,30.08,WNW,297,0.0,7.0,91,0.03,,---,0.36,VWS V14.01,2013-05-19 03:20:00,
2013-05-18 23:21:00,71.3,68.5,30.08,WNW,297,0.0,7.0,91,0.03,,---,0.36,VWS V14.01,2013-05-19 03:21:00,
2013-05-18 23:22:00,71.3,68.5,30.08,WNW,297,0.0,7.0,91,0.03,,---,0.36,VWS V14.01,2013-05-19 03:22:00,
2013-05-18 23:23:00,71.3,68.5,30.08,WNW,297,0.0,7.0,91,0.03,,---,0.36,VWS V14.01,2013-05-19 03:23:00,
2013-05-18 23:24:00,71.3,68.5,30.08,WSW,254,0.0,7.0,91,0.03,,---,0.36,VWS V14.01,2013-05-19 03:24:00,
2013-05-18 23:25:00,71.3,68.5,30.08,West,261,0.0,7.0,91,0.03,,---,0.36,VWS V14.01,2013-05-19 03:25:00,
2013-05-18 23:26:00,71.3,68.5,30.08,West,261,0.0,7.0,91,0.03,,---,0.36,VWS V14.01,2013-05-19 03:26:00,
2013-05-18 23:27:00,71.3,68.5,30.08,West,261,0.0,7.0,91,0.03,,---,0.36,VWS V14.01,2013-05-19 03:27:00,
2013-05-18 23:28:00,71.3,68.5,30.08,West,261,0.0,7.0,91,0.03,,---,0.36,VWS V14.01,2013-05-19 03:28:00,
2013-05-18 23:29:00,71.3,68.5,30.08,West,273,0.0,7.0,91,0.03,,---,0.36,VWS V14.01,2013-05-19 03:29:00,
2013-05-18 23:30:00,71.3,68.5,30.08,West,271,0.0,0.0,91,0.02,,---,0.36,VWS V14.01,2013-05-19 03:30:00,
2013-05-18 23:31:00,71.2,68.4,30.08,WSW,257,0.0,3.0,91,0.02,,---,0.36,VWS V14.01,2013-05-19 03:31:00,
2013-05-18 23:32:00,71.2,68.4,30.08,West,275,0.0,4.0,91,0.02,,---,0.36,VWS V14.01,2013-05-19 03:32:00,
2013-05-18 23:33:00,71.2,68.4,30.08,West,265,0.0,4.0,91,0.02,,---,0.36,VWS V14.01,2013-05-19 03:33:00,
2013-05-18 23:34:00,71.2,68.4,30.08,West,263,0.0,4.0,91,0.02,,---,0.36,VWS V14.01,2013-05-19 03:34:00,
2013-05-18 23:35:00,71.2,68.4,30.08,NW,316,0.0,4.0,91,0.02,,---,0.36,VWS V14.01,2013-05-19 03:35:00,
2013-05-18 23:36:00,71.2,68.4,30.08,NW,316,0.0,4.0,91,0.02,,---,0.36,VWS V14.01,2013-05-19 03:36:00,
2013-05-18 23:37:00,71.2,68.4,30.08,NW,316,0.0,4.0,91,0.02,,---,0.36,VWS V14.01,2013-05-19 03:37:00,
2013-05-18 23:38:00,71.3,68.5,30.08,NW,316,0.0,4.0,91,0.02,,---,0.36,VWS V14.01,2013-05-19 03:38:00,
2013-05-18 23:39:00,71.3,68.5,30.08,West,269,0.0,4.0,91,0.02,,---,0.36,VWS V14.01,2013-05-19 03:39:00,
2013-05-18 23:40:00,71.2,68.4,30.07,West,269,0.0,4.0,91,0.02,,---,0.36,VWS V14.01,2013-05-19 03:40:00,
2013-05-18 23:41:00,71.2,68.4,30.07,West,269,0.0,4.0,91,0.02,,---,0.36,VWS V14.01,2013-05-19 03:41:00,
2013-05-18 23:42:00,71.2,68.4,30.07,NW,309,4.0,4.0,91,0.02,,---,0.36,VWS V14.01,2013-05-19 03:42:00,
2013-05-18 23:43:00,71.2,68.4,30.07,West,263,0.0,5.0,91,0.02,,---,0.36,VWS V14.01,2013-05-19 03:43:00,
2013-05-18 23:44:00,71.2,68.4,30.07,WNW,300,0.0,6.0,91,0.02,,---,0.36,VWS V14.01,2013-05-19 03:44:00,
2013-05-18 23:45:00,71.3,68.5,30.07,WNW,300,0.0,6.0,91,0.02,,---,0.36,VWS V14.01,2013-05-19 03:45:00,
2013-05-18 23:46:00,71.3,68.5,30.07,WNW,300,0.0,6.0,91,0.02,,---,0.36,VWS V14.01,2013-05-19 03:46:00,
2013-05-18 23:47:00,71.3,68.5,30.08,WNW,300,0.0,6.0,91,0.02,,---,0.36,VWS V14.01,2013-05-19 03:47:00,
2013-05-18 23:48:00,71.3,68.5,30.08,WNW,300,0.0,6.0,91,0.02,,---,0.36,VWS V14.01,2013-05-19 03:48:00,
2013-05-18 23:49:00,71.3,68.5,30.08,West,281,1.0,6.0,91,0.02,,---,0.36,VWS V14.01,2013-05-19 03:49:00,
2013-05-18 23:50:00,71.3,68.5,30.07,WNW,292,0.0,6.0,91,0.02,,---,0.36,VWS V14.01,2013-05-19 03:50:00,
2013-05-18 23:51:00,71.3,68.5,30.07,WNW,292,0.0,6.0,91,0.02,,---,0.36,VWS V14.01,2013-05-19 03:51:00,
2013-05-18 23:52:00,71.3,68.5,30.07,WNW,292,0.0,6.0,91,0.02,,---,0.36,VWS V14.01,2013-05-19 03:52:00,
2013-05-18 23:53:00,71.3,68.5,30.07,WNW,292,0.0,6.0,91,0.02,,---,0.36,VWS V14.01,2013-05-19 03:53:00,
2013-05-18 23:54:00,71.3,68.5,30.07,WNW,292,0.0,6.0,91,0.02,,---,0.36,VWS V14.01,2013-05-19 03:54:00,
2013-05-18 23:55:00,71.3,68.5,30.07,West,274,0.0,6.0,91,0.02,,---,0.36,VWS V14.01,2013-05-19 03:55:00,
2013-05-18 23:56:00,71.4,68.6,30.07,West,274,0.0,6.0,91,0.02,,---,0.36,VWS V14.01,2013-05-19 03:56:00,
2013-05-18 23:57:00,71.3,68.5,30.07,West,274,0.0,6.0,91,0.02,,---,0.36,VWS V14.01,2013-05-19 03:57:00,
2013-05-18 23:58:00,71.4,68.6,30.07,West,274,0.0,6.0,91,0.02,,---,0.36,VWS V14.01,2013-05-19 03:58:00,
2013-05-18 23:59:00,71.4,68.6,30.07,West,274,0.0,6.0,91,0.02,,---,0.36,VWS V14.01,2013-05-19 03:59:00,